<?xml version="1.0" encoding="UTF-8" standalone="no" ?>
<gpx xmlns="http://www.topografix.com/GPX/1/1" xmlns:xsi="http://www.w3.org/2001/XMLSchema-instance" xsi:schemaLocation="http://www.topografix.com/GPX/1/1 http://www.topografix.com/GPX/1/1/gpx.xsd" version="1.1" creator="VisuGPX - https://www.visugpx.com">
  <metadata>
    <name>Circuit au alentour de Villefranche de Rouergue</name>
    <desc><![CDATA[Circuit principalement route de campagne, attention le passage en // de la D911, je suis partie sur un tracé balisé \\\"jaune\\\", c\\\'est pour marcheur, au bout de quelques centaines de mètres j\\\'ai du mettre pied à terre et poussé car le sentier est très étroite et barré par des ronces.]]></desc>
  </metadata>
  <trk>
    <name><![CDATA[ACTIVE LOG: 17 JUL 2012 07:54]]></name>
    <trkseg>
      <trkpt lat="44.27398" lon="1.99835">
        <ele>249.12</ele>
        <time>2012-07-17T05:54:33Z</time>
      </trkpt>
      <trkpt lat="44.27397" lon="1.99835">
        <ele>248.64</ele>
        <time>2012-07-17T05:54:41Z</time>
      </trkpt>
      <trkpt lat="44.27393" lon="1.99827">
        <ele>248.64</ele>
        <time>2012-07-17T05:54:55Z</time>
      </trkpt>
      <trkpt lat="44.27372" lon="1.99809">
        <ele>250.08</ele>
        <time>2012-07-17T05:55:08Z</time>
      </trkpt>
      <trkpt lat="44.27354" lon="1.99776">
        <ele>251.04</ele>
        <time>2012-07-17T05:55:20Z</time>
      </trkpt>
      <trkpt lat="44.27301" lon="1.99686">
        <ele>251.04</ele>
        <time>2012-07-17T05:55:37Z</time>
      </trkpt>
      <trkpt lat="44.27286" lon="1.99673">
        <ele>251.52</ele>
        <time>2012-07-17T05:55:43Z</time>
      </trkpt>
      <trkpt lat="44.27227" lon="1.99726">
        <ele>248.64</ele>
        <time>2012-07-17T05:55:55Z</time>
      </trkpt>
      <trkpt lat="44.27201" lon="1.99756">
        <ele>244.79</ele>
        <time>2012-07-17T05:55:59Z</time>
      </trkpt>
      <trkpt lat="44.27179" lon="1.99779">
        <ele>243.35</ele>
        <time>2012-07-17T05:56:02Z</time>
      </trkpt>
      <trkpt lat="44.27158" lon="1.99805">
        <ele>240.95</ele>
        <time>2012-07-17T05:56:05Z</time>
      </trkpt>
      <trkpt lat="44.27146" lon="1.99824">
        <ele>239.51</ele>
        <time>2012-07-17T05:56:07Z</time>
      </trkpt>
      <trkpt lat="44.27109" lon="1.99861">
        <ele>235.66</ele>
        <time>2012-07-17T05:56:12Z</time>
      </trkpt>
      <trkpt lat="44.27049" lon="1.99878">
        <ele>232.78</ele>
        <time>2012-07-17T05:56:19Z</time>
      </trkpt>
      <trkpt lat="44.27004" lon="1.99903">
        <ele>229.41</ele>
        <time>2012-07-17T05:56:25Z</time>
      </trkpt>
      <trkpt lat="44.2699" lon="1.99915">
        <ele>228.93</ele>
        <time>2012-07-17T05:56:27Z</time>
      </trkpt>
      <trkpt lat="44.26958" lon="1.99931">
        <ele>227.01</ele>
        <time>2012-07-17T05:56:32Z</time>
      </trkpt>
      <trkpt lat="44.26941" lon="1.99942">
        <ele>226.05</ele>
        <time>2012-07-17T05:56:37Z</time>
      </trkpt>
      <trkpt lat="44.26888" lon="1.99917">
        <ele>225.57</ele>
        <time>2012-07-17T05:56:50Z</time>
      </trkpt>
      <trkpt lat="44.26769" lon="1.99861">
        <ele>224.61</ele>
        <time>2012-07-17T05:57:14Z</time>
      </trkpt>
      <trkpt lat="44.26754" lon="1.99868">
        <ele>225.57</ele>
        <time>2012-07-17T05:57:18Z</time>
      </trkpt>
      <trkpt lat="44.26728" lon="1.99936">
        <ele>224.61</ele>
        <time>2012-07-17T05:57:28Z</time>
      </trkpt>
      <trkpt lat="44.26706" lon="1.99983">
        <ele>226.05</ele>
        <time>2012-07-17T05:57:36Z</time>
      </trkpt>
      <trkpt lat="44.26659" lon="2.00057">
        <ele>226.53</ele>
        <time>2012-07-17T05:57:51Z</time>
      </trkpt>
      <trkpt lat="44.26635" lon="2.00128">
        <ele>229.41</ele>
        <time>2012-07-17T05:58:06Z</time>
      </trkpt>
      <trkpt lat="44.26621" lon="2.00186">
        <ele>230.37</ele>
        <time>2012-07-17T05:58:19Z</time>
      </trkpt>
      <trkpt lat="44.26616" lon="2.00256">
        <ele>230.37</ele>
        <time>2012-07-17T05:58:33Z</time>
      </trkpt>
      <trkpt lat="44.26642" lon="2.00292">
        <ele>229.89</ele>
        <time>2012-07-17T05:58:45Z</time>
      </trkpt>
      <trkpt lat="44.26685" lon="2.00313">
        <ele>230.37</ele>
        <time>2012-07-17T05:58:59Z</time>
      </trkpt>
      <trkpt lat="44.26729" lon="2.0027">
        <ele>228.93</ele>
        <time>2012-07-17T05:59:11Z</time>
      </trkpt>
      <trkpt lat="44.2674" lon="2.00261">
        <ele>228.93</ele>
        <time>2012-07-17T05:59:14Z</time>
      </trkpt>
      <trkpt lat="44.26762" lon="2.00253">
        <ele>228.45</ele>
        <time>2012-07-17T05:59:19Z</time>
      </trkpt>
      <trkpt lat="44.26816" lon="2.00242">
        <ele>227.49</ele>
        <time>2012-07-17T05:59:31Z</time>
      </trkpt>
      <trkpt lat="44.26858" lon="2.00231">
        <ele>229.41</ele>
        <time>2012-07-17T05:59:40Z</time>
      </trkpt>
      <trkpt lat="44.269" lon="2.00227">
        <ele>228.93</ele>
        <time>2012-07-17T05:59:49Z</time>
      </trkpt>
      <trkpt lat="44.26945" lon="2.00235">
        <ele>229.41</ele>
        <time>2012-07-17T06:00:00Z</time>
      </trkpt>
      <trkpt lat="44.26985" lon="2.00253">
        <ele>231.81</ele>
        <time>2012-07-17T06:00:13Z</time>
      </trkpt>
      <trkpt lat="44.27026" lon="2.0027">
        <ele>235.18</ele>
        <time>2012-07-17T06:00:26Z</time>
      </trkpt>
      <trkpt lat="44.27086" lon="2.00293">
        <ele>237.58</ele>
        <time>2012-07-17T06:00:48Z</time>
      </trkpt>
      <trkpt lat="44.27104" lon="2.003">
        <ele>238.06</ele>
        <time>2012-07-17T06:00:53Z</time>
      </trkpt>
      <trkpt lat="44.27154" lon="2.00326">
        <ele>237.1</ele>
        <time>2012-07-17T06:01:05Z</time>
      </trkpt>
      <trkpt lat="44.27213" lon="2.00367">
        <ele>235.66</ele>
        <time>2012-07-17T06:01:19Z</time>
      </trkpt>
      <trkpt lat="44.27233" lon="2.0038">
        <ele>236.14</ele>
        <time>2012-07-17T06:01:24Z</time>
      </trkpt>
      <trkpt lat="44.2724" lon="2.00384">
        <ele>237.1</ele>
        <time>2012-07-17T06:01:26Z</time>
      </trkpt>
      <trkpt lat="44.27285" lon="2.0041">
        <ele>237.1</ele>
        <time>2012-07-17T06:01:37Z</time>
      </trkpt>
      <trkpt lat="44.27288" lon="2.00413">
        <ele>237.1</ele>
        <time>2012-07-17T06:01:38Z</time>
      </trkpt>
      <trkpt lat="44.27297" lon="2.00446">
        <ele>239.02</ele>
        <time>2012-07-17T06:01:48Z</time>
      </trkpt>
      <trkpt lat="44.27299" lon="2.00447">
        <ele>239.02</ele>
        <time>2012-07-17T06:01:49Z</time>
      </trkpt>
      <trkpt lat="44.27351" lon="2.00473">
        <ele>241.91</ele>
        <time>2012-07-17T06:02:09Z</time>
      </trkpt>
      <trkpt lat="44.27361" lon="2.00479">
        <ele>242.87</ele>
        <time>2012-07-17T06:02:13Z</time>
      </trkpt>
      <trkpt lat="44.27376" lon="2.00487">
        <ele>243.83</ele>
        <time>2012-07-17T06:02:22Z</time>
      </trkpt>
      <trkpt lat="44.27417" lon="2.00498">
        <ele>244.79</ele>
        <time>2012-07-17T06:02:33Z</time>
      </trkpt>
      <trkpt lat="44.27469" lon="2.00509">
        <ele>246.23</ele>
        <time>2012-07-17T06:02:48Z</time>
      </trkpt>
      <trkpt lat="44.27512" lon="2.0052">
        <ele>247.2</ele>
        <time>2012-07-17T06:03:01Z</time>
      </trkpt>
      <trkpt lat="44.27539" lon="2.0053">
        <ele>249.12</ele>
        <time>2012-07-17T06:03:13Z</time>
      </trkpt>
      <trkpt lat="44.27561" lon="2.0054">
        <ele>252.48</ele>
        <time>2012-07-17T06:03:26Z</time>
      </trkpt>
      <trkpt lat="44.27565" lon="2.00545">
        <ele>253.44</ele>
        <time>2012-07-17T06:03:31Z</time>
      </trkpt>
      <trkpt lat="44.27584" lon="2.00552">
        <ele>254.89</ele>
        <time>2012-07-17T06:03:39Z</time>
      </trkpt>
      <trkpt lat="44.27592" lon="2.00555">
        <ele>256.81</ele>
        <time>2012-07-17T06:03:44Z</time>
      </trkpt>
      <trkpt lat="44.27612" lon="2.00566">
        <ele>258.73</ele>
        <time>2012-07-17T06:03:56Z</time>
      </trkpt>
      <trkpt lat="44.27626" lon="2.00575">
        <ele>261.14</ele>
        <time>2012-07-17T06:04:06Z</time>
      </trkpt>
      <trkpt lat="44.27645" lon="2.00582">
        <ele>264.02</ele>
        <time>2012-07-17T06:04:19Z</time>
      </trkpt>
      <trkpt lat="44.2767" lon="2.00594">
        <ele>266.9</ele>
        <time>2012-07-17T06:04:32Z</time>
      </trkpt>
      <trkpt lat="44.2771" lon="2.00622">
        <ele>266.42</ele>
        <time>2012-07-17T06:04:47Z</time>
      </trkpt>
      <trkpt lat="44.27733" lon="2.00633">
        <ele>264.02</ele>
        <time>2012-07-17T06:04:51Z</time>
      </trkpt>
      <trkpt lat="44.27792" lon="2.00663">
        <ele>265.46</ele>
        <time>2012-07-17T06:05:04Z</time>
      </trkpt>
      <trkpt lat="44.2781" lon="2.00667">
        <ele>266.42</ele>
        <time>2012-07-17T06:05:13Z</time>
      </trkpt>
      <trkpt lat="44.27796" lon="2.0066">
        <ele>266.42</ele>
        <time>2012-07-17T06:05:21Z</time>
      </trkpt>
      <trkpt lat="44.2779" lon="2.00678">
        <ele>267.38</ele>
        <time>2012-07-17T06:05:29Z</time>
      </trkpt>
      <trkpt lat="44.27811" lon="2.00701">
        <ele>270.27</ele>
        <time>2012-07-17T06:05:43Z</time>
      </trkpt>
      <trkpt lat="44.27834" lon="2.00711">
        <ele>273.63</ele>
        <time>2012-07-17T06:05:54Z</time>
      </trkpt>
      <trkpt lat="44.27894" lon="2.00718">
        <ele>274.59</ele>
        <time>2012-07-17T06:06:14Z</time>
      </trkpt>
      <trkpt lat="44.27964" lon="2.00697">
        <ele>272.19</ele>
        <time>2012-07-17T06:06:31Z</time>
      </trkpt>
      <trkpt lat="44.28022" lon="2.00659">
        <ele>269.79</ele>
        <time>2012-07-17T06:06:42Z</time>
      </trkpt>
      <trkpt lat="44.28045" lon="2.00626">
        <ele>266.42</ele>
        <time>2012-07-17T06:06:47Z</time>
      </trkpt>
      <trkpt lat="44.28053" lon="2.00599">
        <ele>264.02</ele>
        <time>2012-07-17T06:06:50Z</time>
      </trkpt>
      <trkpt lat="44.28056" lon="2.00581">
        <ele>263.54</ele>
        <time>2012-07-17T06:06:52Z</time>
      </trkpt>
      <trkpt lat="44.28057" lon="2.00573">
        <ele>262.58</ele>
        <time>2012-07-17T06:06:53Z</time>
      </trkpt>
      <trkpt lat="44.28077" lon="2.0054">
        <ele>258.73</ele>
        <time>2012-07-17T06:06:59Z</time>
      </trkpt>
      <trkpt lat="44.28148" lon="2.00519">
        <ele>254.89</ele>
        <time>2012-07-17T06:07:09Z</time>
      </trkpt>
      <trkpt lat="44.28161" lon="2.00513">
        <ele>253.93</ele>
        <time>2012-07-17T06:07:11Z</time>
      </trkpt>
      <trkpt lat="44.28207" lon="2.00508">
        <ele>250.08</ele>
        <time>2012-07-17T06:07:17Z</time>
      </trkpt>
      <trkpt lat="44.28229" lon="2.00507">
        <ele>247.2</ele>
        <time>2012-07-17T06:07:20Z</time>
      </trkpt>
      <trkpt lat="44.28239" lon="2.00504">
        <ele>246.72</ele>
        <time>2012-07-17T06:07:22Z</time>
      </trkpt>
      <trkpt lat="44.28248" lon="2.00489">
        <ele>246.72</ele>
        <time>2012-07-17T06:07:25Z</time>
      </trkpt>
      <trkpt lat="44.28268" lon="2.00417">
        <ele>247.2</ele>
        <time>2012-07-17T06:07:39Z</time>
      </trkpt>
      <trkpt lat="44.28303" lon="2.00412">
        <ele>248.64</ele>
        <time>2012-07-17T06:07:50Z</time>
      </trkpt>
      <trkpt lat="44.28321" lon="2.00416">
        <ele>249.12</ele>
        <time>2012-07-17T06:07:58Z</time>
      </trkpt>
      <trkpt lat="44.2832" lon="2.00433">
        <ele>250.56</ele>
        <time>2012-07-17T06:08:04Z</time>
      </trkpt>
      <trkpt lat="44.28328" lon="2.00464">
        <ele>252.48</ele>
        <time>2012-07-17T06:08:19Z</time>
      </trkpt>
      <trkpt lat="44.28327" lon="2.00464">
        <ele>252.48</ele>
        <time>2012-07-17T06:08:37Z</time>
      </trkpt>
      <trkpt lat="44.28328" lon="2.00463">
        <ele>253.44</ele>
        <time>2012-07-17T06:09:03Z</time>
      </trkpt>
      <trkpt lat="44.28329" lon="2.00466">
        <ele>253.44</ele>
        <time>2012-07-17T06:10:13Z</time>
      </trkpt>
      <trkpt lat="44.28328" lon="2.00464">
        <ele>252.48</ele>
        <time>2012-07-17T06:10:27Z</time>
      </trkpt>
      <trkpt lat="44.28328" lon="2.00464">
        <ele>253.44</ele>
        <time>2012-07-17T06:10:39Z</time>
      </trkpt>
      <trkpt lat="44.28327" lon="2.0046">
        <ele>252.96</ele>
        <time>2012-07-17T06:10:46Z</time>
      </trkpt>
      <trkpt lat="44.28322" lon="2.00439">
        <ele>252</ele>
        <time>2012-07-17T06:10:52Z</time>
      </trkpt>
      <trkpt lat="44.28328" lon="2.00397">
        <ele>250.56</ele>
        <time>2012-07-17T06:10:58Z</time>
      </trkpt>
      <trkpt lat="44.28342" lon="2.00367">
        <ele>247.68</ele>
        <time>2012-07-17T06:11:02Z</time>
      </trkpt>
      <trkpt lat="44.28371" lon="2.00275">
        <ele>248.16</ele>
        <time>2012-07-17T06:11:16Z</time>
      </trkpt>
      <trkpt lat="44.28374" lon="2.00266">
        <ele>248.64</ele>
        <time>2012-07-17T06:11:18Z</time>
      </trkpt>
      <trkpt lat="44.2839" lon="2.0022">
        <ele>247.2</ele>
        <time>2012-07-17T06:11:28Z</time>
      </trkpt>
      <trkpt lat="44.28407" lon="2.00174">
        <ele>244.79</ele>
        <time>2012-07-17T06:11:33Z</time>
      </trkpt>
      <trkpt lat="44.28413" lon="2.00154">
        <ele>243.35</ele>
        <time>2012-07-17T06:11:35Z</time>
      </trkpt>
      <trkpt lat="44.28426" lon="2.0013">
        <ele>240.95</ele>
        <time>2012-07-17T06:11:38Z</time>
      </trkpt>
      <trkpt lat="44.28439" lon="2.00123">
        <ele>238.06</ele>
        <time>2012-07-17T06:11:40Z</time>
      </trkpt>
      <trkpt lat="44.28453" lon="2.00125">
        <ele>237.1</ele>
        <time>2012-07-17T06:11:42Z</time>
      </trkpt>
      <trkpt lat="44.28461" lon="2.00128">
        <ele>237.1</ele>
        <time>2012-07-17T06:11:43Z</time>
      </trkpt>
      <trkpt lat="44.28517" lon="2.00154">
        <ele>233.74</ele>
        <time>2012-07-17T06:11:50Z</time>
      </trkpt>
      <trkpt lat="44.28532" lon="2.00159">
        <ele>232.3</ele>
        <time>2012-07-17T06:11:52Z</time>
      </trkpt>
      <trkpt lat="44.2856" lon="2.00151">
        <ele>233.74</ele>
        <time>2012-07-17T06:11:58Z</time>
      </trkpt>
      <trkpt lat="44.28605" lon="2.00122">
        <ele>235.18</ele>
        <time>2012-07-17T06:12:12Z</time>
      </trkpt>
      <trkpt lat="44.28619" lon="2.00106">
        <ele>233.74</ele>
        <time>2012-07-17T06:12:16Z</time>
      </trkpt>
      <trkpt lat="44.28621" lon="2.00102">
        <ele>232.78</ele>
        <time>2012-07-17T06:12:17Z</time>
      </trkpt>
      <trkpt lat="44.28619" lon="2.00099">
        <ele>231.81</ele>
        <time>2012-07-17T06:12:21Z</time>
      </trkpt>
      <trkpt lat="44.28612" lon="2.00116">
        <ele>233.74</ele>
        <time>2012-07-17T06:12:25Z</time>
      </trkpt>
      <trkpt lat="44.28571" lon="2.00143">
        <ele>236.62</ele>
        <time>2012-07-17T06:12:38Z</time>
      </trkpt>
      <trkpt lat="44.28555" lon="2.00152">
        <ele>236.14</ele>
        <time>2012-07-17T06:12:42Z</time>
      </trkpt>
      <trkpt lat="44.28539" lon="2.00157">
        <ele>234.7</ele>
        <time>2012-07-17T06:12:45Z</time>
      </trkpt>
      <trkpt lat="44.28527" lon="2.00155">
        <ele>233.74</ele>
        <time>2012-07-17T06:12:47Z</time>
      </trkpt>
      <trkpt lat="44.28459" lon="2.00128">
        <ele>234.7</ele>
        <time>2012-07-17T06:13:01Z</time>
      </trkpt>
      <trkpt lat="44.28428" lon="2.00129">
        <ele>238.06</ele>
        <time>2012-07-17T06:13:14Z</time>
      </trkpt>
      <trkpt lat="44.28413" lon="2.00152">
        <ele>240.95</ele>
        <time>2012-07-17T06:13:23Z</time>
      </trkpt>
      <trkpt lat="44.28395" lon="2.00204">
        <ele>244.31</ele>
        <time>2012-07-17T06:13:40Z</time>
      </trkpt>
      <trkpt lat="44.28392" lon="2.00213">
        <ele>245.27</ele>
        <time>2012-07-17T06:13:43Z</time>
      </trkpt>
      <trkpt lat="44.2838" lon="2.00247">
        <ele>248.16</ele>
        <time>2012-07-17T06:13:55Z</time>
      </trkpt>
      <trkpt lat="44.28359" lon="2.0031">
        <ele>248.16</ele>
        <time>2012-07-17T06:14:11Z</time>
      </trkpt>
      <trkpt lat="44.28332" lon="2.00392">
        <ele>248.64</ele>
        <time>2012-07-17T06:14:31Z</time>
      </trkpt>
      <trkpt lat="44.28322" lon="2.00444">
        <ele>251.52</ele>
        <time>2012-07-17T06:14:48Z</time>
      </trkpt>
      <trkpt lat="44.2834" lon="2.00453">
        <ele>253.93</ele>
        <time>2012-07-17T06:14:57Z</time>
      </trkpt>
      <trkpt lat="44.28396" lon="2.00442">
        <ele>254.41</ele>
        <time>2012-07-17T06:15:16Z</time>
      </trkpt>
      <trkpt lat="44.28445" lon="2.00465">
        <ele>256.81</ele>
        <time>2012-07-17T06:15:33Z</time>
      </trkpt>
      <trkpt lat="44.28449" lon="2.00468">
        <ele>257.77</ele>
        <time>2012-07-17T06:15:35Z</time>
      </trkpt>
      <trkpt lat="44.28487" lon="2.00483">
        <ele>260.65</ele>
        <time>2012-07-17T06:15:52Z</time>
      </trkpt>
      <trkpt lat="44.28508" lon="2.00516">
        <ele>261.62</ele>
        <time>2012-07-17T06:16:06Z</time>
      </trkpt>
      <trkpt lat="44.28523" lon="2.00558">
        <ele>264.98</ele>
        <time>2012-07-17T06:16:20Z</time>
      </trkpt>
      <trkpt lat="44.2855" lon="2.00604">
        <ele>267.86</ele>
        <time>2012-07-17T06:16:38Z</time>
      </trkpt>
      <trkpt lat="44.28584" lon="2.00659">
        <ele>269.79</ele>
        <time>2012-07-17T06:16:59Z</time>
      </trkpt>
      <trkpt lat="44.28615" lon="2.00703">
        <ele>270.27</ele>
        <time>2012-07-17T06:17:14Z</time>
      </trkpt>
      <trkpt lat="44.28614" lon="2.00703">
        <ele>270.27</ele>
        <time>2012-07-17T06:17:21Z</time>
      </trkpt>
      <trkpt lat="44.28615" lon="2.00696">
        <ele>268.83</ele>
        <time>2012-07-17T06:17:27Z</time>
      </trkpt>
      <trkpt lat="44.28614" lon="2.00696">
        <ele>268.35</ele>
        <time>2012-07-17T06:17:43Z</time>
      </trkpt>
      <trkpt lat="44.28619" lon="2.00702">
        <ele>269.31</ele>
        <time>2012-07-17T06:18:03Z</time>
      </trkpt>
      <trkpt lat="44.28619" lon="2.00702">
        <ele>269.31</ele>
        <time>2012-07-17T06:18:41Z</time>
      </trkpt>
      <trkpt lat="44.28623" lon="2.00707">
        <ele>268.83</ele>
        <time>2012-07-17T06:18:57Z</time>
      </trkpt>
      <trkpt lat="44.28616" lon="2.00697">
        <ele>268.83</ele>
        <time>2012-07-17T06:19:13Z</time>
      </trkpt>
      <trkpt lat="44.28618" lon="2.00697">
        <ele>269.79</ele>
        <time>2012-07-17T06:20:01Z</time>
      </trkpt>
      <trkpt lat="44.28618" lon="2.00701">
        <ele>269.31</ele>
        <time>2012-07-17T06:20:20Z</time>
      </trkpt>
      <trkpt lat="44.28628" lon="2.00723">
        <ele>268.83</ele>
        <time>2012-07-17T06:20:29Z</time>
      </trkpt>
      <trkpt lat="44.28677" lon="2.00825">
        <ele>265.94</ele>
        <time>2012-07-17T06:20:44Z</time>
      </trkpt>
      <trkpt lat="44.28719" lon="2.00891">
        <ele>262.1</ele>
        <time>2012-07-17T06:20:53Z</time>
      </trkpt>
      <trkpt lat="44.28743" lon="2.00921">
        <ele>259.21</ele>
        <time>2012-07-17T06:20:57Z</time>
      </trkpt>
      <trkpt lat="44.28802" lon="2.00981">
        <ele>255.37</ele>
        <time>2012-07-17T06:21:06Z</time>
      </trkpt>
      <trkpt lat="44.28808" lon="2.00985">
        <ele>255.37</ele>
        <time>2012-07-17T06:21:07Z</time>
      </trkpt>
      <trkpt lat="44.28837" lon="2.00988">
        <ele>254.41</ele>
        <time>2012-07-17T06:21:15Z</time>
      </trkpt>
      <trkpt lat="44.28895" lon="2.01014">
        <ele>250.56</ele>
        <time>2012-07-17T06:21:26Z</time>
      </trkpt>
      <trkpt lat="44.28939" lon="2.01035">
        <ele>247.2</ele>
        <time>2012-07-17T06:21:32Z</time>
      </trkpt>
      <trkpt lat="44.28972" lon="2.01052">
        <ele>244.31</ele>
        <time>2012-07-17T06:21:36Z</time>
      </trkpt>
      <trkpt lat="44.29034" lon="2.01076">
        <ele>240.95</ele>
        <time>2012-07-17T06:21:43Z</time>
      </trkpt>
      <trkpt lat="44.29045" lon="2.01079">
        <ele>239.51</ele>
        <time>2012-07-17T06:21:44Z</time>
      </trkpt>
      <trkpt lat="44.29074" lon="2.01092">
        <ele>237.1</ele>
        <time>2012-07-17T06:21:47Z</time>
      </trkpt>
      <trkpt lat="44.29082" lon="2.01097">
        <ele>237.1</ele>
        <time>2012-07-17T06:21:48Z</time>
      </trkpt>
      <trkpt lat="44.2911" lon="2.01116">
        <ele>238.06</ele>
        <time>2012-07-17T06:21:52Z</time>
      </trkpt>
      <trkpt lat="44.29128" lon="2.01125">
        <ele>238.54</ele>
        <time>2012-07-17T06:21:55Z</time>
      </trkpt>
      <trkpt lat="44.29149" lon="2.01139">
        <ele>239.02</ele>
        <time>2012-07-17T06:21:59Z</time>
      </trkpt>
      <trkpt lat="44.29168" lon="2.01146">
        <ele>237.58</ele>
        <time>2012-07-17T06:22:02Z</time>
      </trkpt>
      <trkpt lat="44.29212" lon="2.01163">
        <ele>236.62</ele>
        <time>2012-07-17T06:22:09Z</time>
      </trkpt>
      <trkpt lat="44.29265" lon="2.0118">
        <ele>234.22</ele>
        <time>2012-07-17T06:22:17Z</time>
      </trkpt>
      <trkpt lat="44.29337" lon="2.01175">
        <ele>237.1</ele>
        <time>2012-07-17T06:22:31Z</time>
      </trkpt>
      <trkpt lat="44.29373" lon="2.01176">
        <ele>238.06</ele>
        <time>2012-07-17T06:22:39Z</time>
      </trkpt>
      <trkpt lat="44.29389" lon="2.01184">
        <ele>238.54</ele>
        <time>2012-07-17T06:22:43Z</time>
      </trkpt>
      <trkpt lat="44.29409" lon="2.01204">
        <ele>238.54</ele>
        <time>2012-07-17T06:22:48Z</time>
      </trkpt>
      <trkpt lat="44.29452" lon="2.01259">
        <ele>236.62</ele>
        <time>2012-07-17T06:22:59Z</time>
      </trkpt>
      <trkpt lat="44.29482" lon="2.01292">
        <ele>236.62</ele>
        <time>2012-07-17T06:23:06Z</time>
      </trkpt>
      <trkpt lat="44.29557" lon="2.01319">
        <ele>236.14</ele>
        <time>2012-07-17T06:23:20Z</time>
      </trkpt>
      <trkpt lat="44.29629" lon="2.01317">
        <ele>237.1</ele>
        <time>2012-07-17T06:23:34Z</time>
      </trkpt>
      <trkpt lat="44.29647" lon="2.01319">
        <ele>237.1</ele>
        <time>2012-07-17T06:23:38Z</time>
      </trkpt>
      <trkpt lat="44.29676" lon="2.01339">
        <ele>237.58</ele>
        <time>2012-07-17T06:23:45Z</time>
      </trkpt>
      <trkpt lat="44.29704" lon="2.01378">
        <ele>238.06</ele>
        <time>2012-07-17T06:23:53Z</time>
      </trkpt>
      <trkpt lat="44.29723" lon="2.01392">
        <ele>238.06</ele>
        <time>2012-07-17T06:23:58Z</time>
      </trkpt>
      <trkpt lat="44.29736" lon="2.01394">
        <ele>238.06</ele>
        <time>2012-07-17T06:24:01Z</time>
      </trkpt>
      <trkpt lat="44.2983" lon="2.01392">
        <ele>238.06</ele>
        <time>2012-07-17T06:24:20Z</time>
      </trkpt>
      <trkpt lat="44.29937" lon="2.01433">
        <ele>237.58</ele>
        <time>2012-07-17T06:24:41Z</time>
      </trkpt>
      <trkpt lat="44.3002" lon="2.01484">
        <ele>237.58</ele>
        <time>2012-07-17T06:24:59Z</time>
      </trkpt>
      <trkpt lat="44.30078" lon="2.01527">
        <ele>238.54</ele>
        <time>2012-07-17T06:25:13Z</time>
      </trkpt>
      <trkpt lat="44.30175" lon="2.016">
        <ele>237.1</ele>
        <time>2012-07-17T06:25:32Z</time>
      </trkpt>
      <trkpt lat="44.30263" lon="2.01639">
        <ele>238.06</ele>
        <time>2012-07-17T06:25:51Z</time>
      </trkpt>
      <trkpt lat="44.30339" lon="2.01635">
        <ele>237.1</ele>
        <time>2012-07-17T06:26:05Z</time>
      </trkpt>
      <trkpt lat="44.3047" lon="2.01622">
        <ele>237.1</ele>
        <time>2012-07-17T06:26:29Z</time>
      </trkpt>
      <trkpt lat="44.3058" lon="2.01642">
        <ele>239.51</ele>
        <time>2012-07-17T06:26:53Z</time>
      </trkpt>
      <trkpt lat="44.30649" lon="2.01708">
        <ele>239.51</ele>
        <time>2012-07-17T06:27:11Z</time>
      </trkpt>
      <trkpt lat="44.30677" lon="2.01742">
        <ele>238.54</ele>
        <time>2012-07-17T06:27:18Z</time>
      </trkpt>
      <trkpt lat="44.30742" lon="2.01812">
        <ele>237.58</ele>
        <time>2012-07-17T06:27:33Z</time>
      </trkpt>
      <trkpt lat="44.3081" lon="2.01847">
        <ele>236.62</ele>
        <time>2012-07-17T06:27:46Z</time>
      </trkpt>
      <trkpt lat="44.30876" lon="2.01879">
        <ele>239.02</ele>
        <time>2012-07-17T06:28:03Z</time>
      </trkpt>
      <trkpt lat="44.30905" lon="2.0191">
        <ele>241.91</ele>
        <time>2012-07-17T06:28:19Z</time>
      </trkpt>
      <trkpt lat="44.30931" lon="2.01941">
        <ele>244.31</ele>
        <time>2012-07-17T06:28:33Z</time>
      </trkpt>
      <trkpt lat="44.30958" lon="2.01965">
        <ele>246.72</ele>
        <time>2012-07-17T06:28:46Z</time>
      </trkpt>
      <trkpt lat="44.30996" lon="2.0198">
        <ele>247.68</ele>
        <time>2012-07-17T06:29:01Z</time>
      </trkpt>
      <trkpt lat="44.3105" lon="2.01991">
        <ele>244.31</ele>
        <time>2012-07-17T06:29:11Z</time>
      </trkpt>
      <trkpt lat="44.31057" lon="2.01992">
        <ele>243.35</ele>
        <time>2012-07-17T06:29:12Z</time>
      </trkpt>
      <trkpt lat="44.31105" lon="2.01993">
        <ele>239.99</ele>
        <time>2012-07-17T06:29:18Z</time>
      </trkpt>
      <trkpt lat="44.31118" lon="2.01993">
        <ele>240.47</ele>
        <time>2012-07-17T06:29:20Z</time>
      </trkpt>
      <trkpt lat="44.31153" lon="2.02001">
        <ele>240.47</ele>
        <time>2012-07-17T06:29:26Z</time>
      </trkpt>
      <trkpt lat="44.3122" lon="2.01993">
        <ele>239.51</ele>
        <time>2012-07-17T06:29:38Z</time>
      </trkpt>
      <trkpt lat="44.31238" lon="2.0199">
        <ele>239.99</ele>
        <time>2012-07-17T06:29:42Z</time>
      </trkpt>
      <trkpt lat="44.31293" lon="2.01998">
        <ele>241.43</ele>
        <time>2012-07-17T06:29:56Z</time>
      </trkpt>
      <trkpt lat="44.31332" lon="2.02013">
        <ele>242.87</ele>
        <time>2012-07-17T06:30:08Z</time>
      </trkpt>
      <trkpt lat="44.31362" lon="2.02023">
        <ele>244.31</ele>
        <time>2012-07-17T06:30:17Z</time>
      </trkpt>
      <trkpt lat="44.31403" lon="2.02034">
        <ele>245.27</ele>
        <time>2012-07-17T06:30:29Z</time>
      </trkpt>
      <trkpt lat="44.31443" lon="2.02042">
        <ele>247.68</ele>
        <time>2012-07-17T06:30:41Z</time>
      </trkpt>
      <trkpt lat="44.31479" lon="2.02072">
        <ele>250.08</ele>
        <time>2012-07-17T06:30:57Z</time>
      </trkpt>
      <trkpt lat="44.31481" lon="2.02075">
        <ele>250.08</ele>
        <time>2012-07-17T06:30:58Z</time>
      </trkpt>
      <trkpt lat="44.31494" lon="2.02075">
        <ele>250.08</ele>
        <time>2012-07-17T06:31:03Z</time>
      </trkpt>
      <trkpt lat="44.31545" lon="2.0208">
        <ele>250.56</ele>
        <time>2012-07-17T06:31:18Z</time>
      </trkpt>
      <trkpt lat="44.31603" lon="2.02124">
        <ele>251.52</ele>
        <time>2012-07-17T06:31:37Z</time>
      </trkpt>
      <trkpt lat="44.31644" lon="2.02144">
        <ele>253.44</ele>
        <time>2012-07-17T06:31:51Z</time>
      </trkpt>
      <trkpt lat="44.31667" lon="2.02155">
        <ele>254.41</ele>
        <time>2012-07-17T06:32:00Z</time>
      </trkpt>
      <trkpt lat="44.31717" lon="2.02171">
        <ele>256.33</ele>
        <time>2012-07-17T06:32:19Z</time>
      </trkpt>
      <trkpt lat="44.31721" lon="2.02171">
        <ele>256.33</ele>
        <time>2012-07-17T06:32:20Z</time>
      </trkpt>
      <trkpt lat="44.31784" lon="2.02186">
        <ele>254.89</ele>
        <time>2012-07-17T06:32:34Z</time>
      </trkpt>
      <trkpt lat="44.31798" lon="2.02189">
        <ele>255.37</ele>
        <time>2012-07-17T06:32:38Z</time>
      </trkpt>
      <trkpt lat="44.31854" lon="2.0219">
        <ele>257.77</ele>
        <time>2012-07-17T06:32:54Z</time>
      </trkpt>
      <trkpt lat="44.31891" lon="2.02232">
        <ele>259.69</ele>
        <time>2012-07-17T06:33:10Z</time>
      </trkpt>
      <trkpt lat="44.3192" lon="2.02247">
        <ele>262.1</ele>
        <time>2012-07-17T06:33:24Z</time>
      </trkpt>
      <trkpt lat="44.31944" lon="2.02242">
        <ele>262.58</ele>
        <time>2012-07-17T06:33:34Z</time>
      </trkpt>
      <trkpt lat="44.31953" lon="2.02247">
        <ele>264.02</ele>
        <time>2012-07-17T06:33:39Z</time>
      </trkpt>
      <trkpt lat="44.31956" lon="2.02255">
        <ele>264.5</ele>
        <time>2012-07-17T06:33:45Z</time>
      </trkpt>
      <trkpt lat="44.31963" lon="2.02192">
        <ele>263.06</ele>
        <time>2012-07-17T06:33:56Z</time>
      </trkpt>
      <trkpt lat="44.31981" lon="2.02097">
        <ele>259.69</ele>
        <time>2012-07-17T06:34:07Z</time>
      </trkpt>
      <trkpt lat="44.31989" lon="2.02058">
        <ele>257.29</ele>
        <time>2012-07-17T06:34:11Z</time>
      </trkpt>
      <trkpt lat="44.31986" lon="2.0197">
        <ele>253.44</ele>
        <time>2012-07-17T06:34:21Z</time>
      </trkpt>
      <trkpt lat="44.31988" lon="2.01941">
        <ele>252.48</ele>
        <time>2012-07-17T06:34:24Z</time>
      </trkpt>
      <trkpt lat="44.3199" lon="2.01931">
        <ele>252.48</ele>
        <time>2012-07-17T06:34:25Z</time>
      </trkpt>
      <trkpt lat="44.32008" lon="2.01818">
        <ele>249.12</ele>
        <time>2012-07-17T06:34:37Z</time>
      </trkpt>
      <trkpt lat="44.32021" lon="2.01795">
        <ele>249.12</ele>
        <time>2012-07-17T06:34:42Z</time>
      </trkpt>
      <trkpt lat="44.32117" lon="2.01755">
        <ele>247.68</ele>
        <time>2012-07-17T06:35:02Z</time>
      </trkpt>
      <trkpt lat="44.32237" lon="2.01697">
        <ele>247.2</ele>
        <time>2012-07-17T06:35:25Z</time>
      </trkpt>
      <trkpt lat="44.32311" lon="2.01665">
        <ele>249.12</ele>
        <time>2012-07-17T06:35:41Z</time>
      </trkpt>
      <trkpt lat="44.32378" lon="2.01632">
        <ele>247.68</ele>
        <time>2012-07-17T06:35:54Z</time>
      </trkpt>
      <trkpt lat="44.32455" lon="2.01593">
        <ele>250.08</ele>
        <time>2012-07-17T06:36:12Z</time>
      </trkpt>
      <trkpt lat="44.32528" lon="2.01555">
        <ele>252.48</ele>
        <time>2012-07-17T06:36:34Z</time>
      </trkpt>
      <trkpt lat="44.32632" lon="2.01507">
        <ele>254.41</ele>
        <time>2012-07-17T06:37:02Z</time>
      </trkpt>
      <trkpt lat="44.32715" lon="2.01489">
        <ele>256.81</ele>
        <time>2012-07-17T06:37:26Z</time>
      </trkpt>
      <trkpt lat="44.32761" lon="2.0149">
        <ele>258.25</ele>
        <time>2012-07-17T06:37:42Z</time>
      </trkpt>
      <trkpt lat="44.32763" lon="2.01527">
        <ele>259.69</ele>
        <time>2012-07-17T06:37:53Z</time>
      </trkpt>
      <trkpt lat="44.32767" lon="2.01569">
        <ele>263.06</ele>
        <time>2012-07-17T06:38:08Z</time>
      </trkpt>
      <trkpt lat="44.32769" lon="2.01641">
        <ele>265.94</ele>
        <time>2012-07-17T06:38:29Z</time>
      </trkpt>
      <trkpt lat="44.32774" lon="2.01732">
        <ele>266.42</ele>
        <time>2012-07-17T06:38:50Z</time>
      </trkpt>
      <trkpt lat="44.32798" lon="2.01771">
        <ele>265.94</ele>
        <time>2012-07-17T06:39:00Z</time>
      </trkpt>
      <trkpt lat="44.32797" lon="2.01826">
        <ele>265.94</ele>
        <time>2012-07-17T06:39:12Z</time>
      </trkpt>
      <trkpt lat="44.32788" lon="2.01878">
        <ele>268.83</ele>
        <time>2012-07-17T06:39:28Z</time>
      </trkpt>
      <trkpt lat="44.32776" lon="2.01925">
        <ele>271.71</ele>
        <time>2012-07-17T06:39:44Z</time>
      </trkpt>
      <trkpt lat="44.3278" lon="2.01974">
        <ele>275.07</ele>
        <time>2012-07-17T06:39:59Z</time>
      </trkpt>
      <trkpt lat="44.32776" lon="2.02019">
        <ele>277.96</ele>
        <time>2012-07-17T06:40:16Z</time>
      </trkpt>
      <trkpt lat="44.32767" lon="2.02055">
        <ele>281.32</ele>
        <time>2012-07-17T06:40:31Z</time>
      </trkpt>
      <trkpt lat="44.32752" lon="2.02107">
        <ele>284.69</ele>
        <time>2012-07-17T06:40:53Z</time>
      </trkpt>
      <trkpt lat="44.32745" lon="2.02143">
        <ele>287.57</ele>
        <time>2012-07-17T06:41:09Z</time>
      </trkpt>
      <trkpt lat="44.32743" lon="2.02174">
        <ele>290.94</ele>
        <time>2012-07-17T06:41:25Z</time>
      </trkpt>
      <trkpt lat="44.32743" lon="2.02209">
        <ele>293.82</ele>
        <time>2012-07-17T06:41:42Z</time>
      </trkpt>
      <trkpt lat="44.32745" lon="2.02242">
        <ele>296.7</ele>
        <time>2012-07-17T06:41:58Z</time>
      </trkpt>
      <trkpt lat="44.32744" lon="2.0228">
        <ele>300.07</ele>
        <time>2012-07-17T06:42:16Z</time>
      </trkpt>
      <trkpt lat="44.32741" lon="2.0231">
        <ele>302.95</ele>
        <time>2012-07-17T06:42:31Z</time>
      </trkpt>
      <trkpt lat="44.32741" lon="2.02333">
        <ele>305.36</ele>
        <time>2012-07-17T06:42:42Z</time>
      </trkpt>
      <trkpt lat="44.3276" lon="2.02336">
        <ele>305.36</ele>
        <time>2012-07-17T06:42:52Z</time>
      </trkpt>
      <trkpt lat="44.32788" lon="2.02361">
        <ele>303.91</ele>
        <time>2012-07-17T06:42:58Z</time>
      </trkpt>
      <trkpt lat="44.32826" lon="2.02451">
        <ele>300.07</ele>
        <time>2012-07-17T06:43:09Z</time>
      </trkpt>
      <trkpt lat="44.32846" lon="2.02531">
        <ele>297.18</ele>
        <time>2012-07-17T06:43:17Z</time>
      </trkpt>
      <trkpt lat="44.3284" lon="2.02603">
        <ele>294.78</ele>
        <time>2012-07-17T06:43:23Z</time>
      </trkpt>
      <trkpt lat="44.32829" lon="2.02637">
        <ele>293.34</ele>
        <time>2012-07-17T06:43:26Z</time>
      </trkpt>
      <trkpt lat="44.32849" lon="2.02713">
        <ele>290.46</ele>
        <time>2012-07-17T06:43:33Z</time>
      </trkpt>
      <trkpt lat="44.32884" lon="2.02723">
        <ele>288.53</ele>
        <time>2012-07-17T06:43:37Z</time>
      </trkpt>
      <trkpt lat="44.32936" lon="2.02718">
        <ele>285.17</ele>
        <time>2012-07-17T06:43:42Z</time>
      </trkpt>
      <trkpt lat="44.32952" lon="2.02744">
        <ele>283.73</ele>
        <time>2012-07-17T06:43:44Z</time>
      </trkpt>
      <trkpt lat="44.32974" lon="2.02778">
        <ele>281.8</ele>
        <time>2012-07-17T06:43:47Z</time>
      </trkpt>
      <trkpt lat="44.32987" lon="2.02802">
        <ele>280.36</ele>
        <time>2012-07-17T06:43:49Z</time>
      </trkpt>
      <trkpt lat="44.33003" lon="2.02857">
        <ele>277.48</ele>
        <time>2012-07-17T06:43:53Z</time>
      </trkpt>
      <trkpt lat="44.33003" lon="2.02917">
        <ele>275.07</ele>
        <time>2012-07-17T06:43:57Z</time>
      </trkpt>
      <trkpt lat="44.33018" lon="2.02986">
        <ele>272.19</ele>
        <time>2012-07-17T06:44:02Z</time>
      </trkpt>
      <trkpt lat="44.33047" lon="2.03031">
        <ele>269.31</ele>
        <time>2012-07-17T06:44:06Z</time>
      </trkpt>
      <trkpt lat="44.33095" lon="2.03079">
        <ele>265.94</ele>
        <time>2012-07-17T06:44:12Z</time>
      </trkpt>
      <trkpt lat="44.33157" lon="2.03135">
        <ele>262.58</ele>
        <time>2012-07-17T06:44:19Z</time>
      </trkpt>
      <trkpt lat="44.33195" lon="2.03164">
        <ele>259.21</ele>
        <time>2012-07-17T06:44:23Z</time>
      </trkpt>
      <trkpt lat="44.33242" lon="2.032">
        <ele>256.33</ele>
        <time>2012-07-17T06:44:28Z</time>
      </trkpt>
      <trkpt lat="44.33288" lon="2.03239">
        <ele>253.44</ele>
        <time>2012-07-17T06:44:33Z</time>
      </trkpt>
      <trkpt lat="44.3335" lon="2.03294">
        <ele>250.08</ele>
        <time>2012-07-17T06:44:40Z</time>
      </trkpt>
      <trkpt lat="44.33423" lon="2.03341">
        <ele>251.04</ele>
        <time>2012-07-17T06:44:51Z</time>
      </trkpt>
      <trkpt lat="44.33518" lon="2.03338">
        <ele>252</ele>
        <time>2012-07-17T06:45:06Z</time>
      </trkpt>
      <trkpt lat="44.3363" lon="2.03297">
        <ele>252.48</ele>
        <time>2012-07-17T06:45:25Z</time>
      </trkpt>
      <trkpt lat="44.33744" lon="2.03287">
        <ele>253.44</ele>
        <time>2012-07-17T06:45:44Z</time>
      </trkpt>
      <trkpt lat="44.33928" lon="2.03261">
        <ele>254.41</ele>
        <time>2012-07-17T06:46:16Z</time>
      </trkpt>
      <trkpt lat="44.34036" lon="2.03245">
        <ele>255.85</ele>
        <time>2012-07-17T06:46:37Z</time>
      </trkpt>
      <trkpt lat="44.34087" lon="2.03237">
        <ele>255.37</ele>
        <time>2012-07-17T06:46:46Z</time>
      </trkpt>
      <trkpt lat="44.34224" lon="2.03215">
        <ele>253.93</ele>
        <time>2012-07-17T06:47:08Z</time>
      </trkpt>
      <trkpt lat="44.34272" lon="2.03211">
        <ele>253.93</ele>
        <time>2012-07-17T06:47:16Z</time>
      </trkpt>
      <trkpt lat="44.34386" lon="2.03233">
        <ele>253.93</ele>
        <time>2012-07-17T06:47:36Z</time>
      </trkpt>
      <trkpt lat="44.34445" lon="2.03243">
        <ele>253.44</ele>
        <time>2012-07-17T06:47:46Z</time>
      </trkpt>
      <trkpt lat="44.34466" lon="2.0325">
        <ele>253.44</ele>
        <time>2012-07-17T06:47:50Z</time>
      </trkpt>
      <trkpt lat="44.34523" lon="2.03339">
        <ele>254.41</ele>
        <time>2012-07-17T06:48:06Z</time>
      </trkpt>
      <trkpt lat="44.34564" lon="2.0341">
        <ele>254.41</ele>
        <time>2012-07-17T06:48:18Z</time>
      </trkpt>
      <trkpt lat="44.34635" lon="2.03524">
        <ele>255.85</ele>
        <time>2012-07-17T06:48:40Z</time>
      </trkpt>
      <trkpt lat="44.34684" lon="2.03629">
        <ele>258.25</ele>
        <time>2012-07-17T06:49:04Z</time>
      </trkpt>
      <trkpt lat="44.34733" lon="2.03731">
        <ele>261.14</ele>
        <time>2012-07-17T06:49:29Z</time>
      </trkpt>
      <trkpt lat="44.34747" lon="2.03746">
        <ele>261.62</ele>
        <time>2012-07-17T06:49:35Z</time>
      </trkpt>
      <trkpt lat="44.34729" lon="2.03755">
        <ele>262.58</ele>
        <time>2012-07-17T06:49:43Z</time>
      </trkpt>
      <trkpt lat="44.34726" lon="2.03753">
        <ele>262.58</ele>
        <time>2012-07-17T06:49:44Z</time>
      </trkpt>
      <trkpt lat="44.347" lon="2.03711">
        <ele>265.46</ele>
        <time>2012-07-17T06:50:00Z</time>
      </trkpt>
      <trkpt lat="44.34662" lon="2.03661">
        <ele>268.35</ele>
        <time>2012-07-17T06:50:20Z</time>
      </trkpt>
      <trkpt lat="44.34629" lon="2.03601">
        <ele>270.75</ele>
        <time>2012-07-17T06:50:41Z</time>
      </trkpt>
      <trkpt lat="44.34614" lon="2.03578">
        <ele>272.19</ele>
        <time>2012-07-17T06:50:51Z</time>
      </trkpt>
      <trkpt lat="44.34614" lon="2.03572">
        <ele>272.19</ele>
        <time>2012-07-17T06:50:54Z</time>
      </trkpt>
      <trkpt lat="44.34611" lon="2.03565">
        <ele>273.15</ele>
        <time>2012-07-17T06:51:09Z</time>
      </trkpt>
      <trkpt lat="44.34601" lon="2.03551">
        <ele>274.11</ele>
        <time>2012-07-17T06:51:24Z</time>
      </trkpt>
      <trkpt lat="44.34615" lon="2.03568">
        <ele>273.15</ele>
        <time>2012-07-17T06:51:40Z</time>
      </trkpt>
      <trkpt lat="44.34617" lon="2.0357">
        <ele>272.67</ele>
        <time>2012-07-17T06:52:00Z</time>
      </trkpt>
      <trkpt lat="44.34617" lon="2.0357">
        <ele>273.63</ele>
        <time>2012-07-17T06:52:58Z</time>
      </trkpt>
      <trkpt lat="44.34618" lon="2.0357">
        <ele>273.15</ele>
        <time>2012-07-17T06:53:26Z</time>
      </trkpt>
      <trkpt lat="44.34617" lon="2.03572">
        <ele>273.15</ele>
        <time>2012-07-17T06:53:48Z</time>
      </trkpt>
      <trkpt lat="44.34604" lon="2.03559">
        <ele>274.11</ele>
        <time>2012-07-17T06:54:04Z</time>
      </trkpt>
      <trkpt lat="44.34597" lon="2.03551">
        <ele>274.59</ele>
        <time>2012-07-17T06:54:17Z</time>
      </trkpt>
      <trkpt lat="44.34569" lon="2.03539">
        <ele>276.52</ele>
        <time>2012-07-17T06:54:33Z</time>
      </trkpt>
      <trkpt lat="44.34541" lon="2.03561">
        <ele>279.4</ele>
        <time>2012-07-17T06:54:50Z</time>
      </trkpt>
      <trkpt lat="44.34515" lon="2.0359">
        <ele>282.77</ele>
        <time>2012-07-17T06:55:08Z</time>
      </trkpt>
      <trkpt lat="44.34493" lon="2.03621">
        <ele>285.65</ele>
        <time>2012-07-17T06:55:24Z</time>
      </trkpt>
      <trkpt lat="44.34467" lon="2.0365">
        <ele>289.01</ele>
        <time>2012-07-17T06:55:43Z</time>
      </trkpt>
      <trkpt lat="44.34445" lon="2.03668">
        <ele>291.9</ele>
        <time>2012-07-17T06:55:58Z</time>
      </trkpt>
      <trkpt lat="44.34418" lon="2.03687">
        <ele>294.78</ele>
        <time>2012-07-17T06:56:15Z</time>
      </trkpt>
      <trkpt lat="44.34392" lon="2.03707">
        <ele>298.15</ele>
        <time>2012-07-17T06:56:33Z</time>
      </trkpt>
      <trkpt lat="44.34368" lon="2.03725">
        <ele>301.03</ele>
        <time>2012-07-17T06:56:48Z</time>
      </trkpt>
      <trkpt lat="44.34336" lon="2.03746">
        <ele>304.39</ele>
        <time>2012-07-17T06:57:07Z</time>
      </trkpt>
      <trkpt lat="44.343" lon="2.03752">
        <ele>307.28</ele>
        <time>2012-07-17T06:57:26Z</time>
      </trkpt>
      <trkpt lat="44.34262" lon="2.03762">
        <ele>310.16</ele>
        <time>2012-07-17T06:57:47Z</time>
      </trkpt>
      <trkpt lat="44.34227" lon="2.0377">
        <ele>313.53</ele>
        <time>2012-07-17T06:58:07Z</time>
      </trkpt>
      <trkpt lat="44.34195" lon="2.0377">
        <ele>316.41</ele>
        <time>2012-07-17T06:58:26Z</time>
      </trkpt>
      <trkpt lat="44.34159" lon="2.03778">
        <ele>319.3</ele>
        <time>2012-07-17T06:58:46Z</time>
      </trkpt>
      <trkpt lat="44.3413" lon="2.03801">
        <ele>322.18</ele>
        <time>2012-07-17T06:59:05Z</time>
      </trkpt>
      <trkpt lat="44.34107" lon="2.03832">
        <ele>325.06</ele>
        <time>2012-07-17T06:59:23Z</time>
      </trkpt>
      <trkpt lat="44.34085" lon="2.03859">
        <ele>328.43</ele>
        <time>2012-07-17T06:59:39Z</time>
      </trkpt>
      <trkpt lat="44.34066" lon="2.03888">
        <ele>331.31</ele>
        <time>2012-07-17T06:59:55Z</time>
      </trkpt>
      <trkpt lat="44.34074" lon="2.03911">
        <ele>332.27</ele>
        <time>2012-07-17T07:00:08Z</time>
      </trkpt>
      <trkpt lat="44.34104" lon="2.03885">
        <ele>333.71</ele>
        <time>2012-07-17T07:00:25Z</time>
      </trkpt>
      <trkpt lat="44.34144" lon="2.03847">
        <ele>336.6</ele>
        <time>2012-07-17T07:00:49Z</time>
      </trkpt>
      <trkpt lat="44.34189" lon="2.0385">
        <ele>339</ele>
        <time>2012-07-17T07:01:12Z</time>
      </trkpt>
      <trkpt lat="44.34234" lon="2.03866">
        <ele>341.89</ele>
        <time>2012-07-17T07:01:37Z</time>
      </trkpt>
      <trkpt lat="44.34279" lon="2.03887">
        <ele>344.77</ele>
        <time>2012-07-17T07:02:02Z</time>
      </trkpt>
      <trkpt lat="44.34321" lon="2.03911">
        <ele>347.17</ele>
        <time>2012-07-17T07:02:26Z</time>
      </trkpt>
      <trkpt lat="44.34366" lon="2.03938">
        <ele>349.58</ele>
        <time>2012-07-17T07:02:52Z</time>
      </trkpt>
      <trkpt lat="44.3441" lon="2.03965">
        <ele>351.98</ele>
        <time>2012-07-17T07:03:18Z</time>
      </trkpt>
      <trkpt lat="44.34442" lon="2.03984">
        <ele>354.38</ele>
        <time>2012-07-17T07:03:38Z</time>
      </trkpt>
      <trkpt lat="44.34477" lon="2.04006">
        <ele>357.27</ele>
        <time>2012-07-17T07:03:59Z</time>
      </trkpt>
      <trkpt lat="44.34506" lon="2.04035">
        <ele>360.63</ele>
        <time>2012-07-17T07:04:19Z</time>
      </trkpt>
      <trkpt lat="44.34532" lon="2.04076">
        <ele>363.52</ele>
        <time>2012-07-17T07:04:39Z</time>
      </trkpt>
      <trkpt lat="44.34537" lon="2.04081">
        <ele>364.48</ele>
        <time>2012-07-17T07:04:43Z</time>
      </trkpt>
      <trkpt lat="44.34543" lon="2.04087">
        <ele>364.96</ele>
        <time>2012-07-17T07:04:47Z</time>
      </trkpt>
      <trkpt lat="44.34548" lon="2.04093">
        <ele>365.44</ele>
        <time>2012-07-17T07:04:58Z</time>
      </trkpt>
      <trkpt lat="44.34549" lon="2.04092">
        <ele>365.44</ele>
        <time>2012-07-17T07:05:14Z</time>
      </trkpt>
      <trkpt lat="44.34545" lon="2.04088">
        <ele>365.44</ele>
        <time>2012-07-17T07:05:31Z</time>
      </trkpt>
      <trkpt lat="44.34548" lon="2.04082">
        <ele>364.96</ele>
        <time>2012-07-17T07:05:44Z</time>
      </trkpt>
      <trkpt lat="44.34547" lon="2.04083">
        <ele>364.96</ele>
        <time>2012-07-17T07:06:35Z</time>
      </trkpt>
      <trkpt lat="44.34551" lon="2.04095">
        <ele>365.92</ele>
        <time>2012-07-17T07:06:51Z</time>
      </trkpt>
      <trkpt lat="44.34551" lon="2.04094">
        <ele>366.4</ele>
        <time>2012-07-17T07:07:19Z</time>
      </trkpt>
      <trkpt lat="44.34551" lon="2.04094">
        <ele>365.92</ele>
        <time>2012-07-17T07:08:23Z</time>
      </trkpt>
      <trkpt lat="44.34552" lon="2.04096">
        <ele>365.92</ele>
        <time>2012-07-17T07:09:10Z</time>
      </trkpt>
      <trkpt lat="44.34552" lon="2.04095">
        <ele>366.4</ele>
        <time>2012-07-17T07:09:37Z</time>
      </trkpt>
      <trkpt lat="44.34548" lon="2.04093">
        <ele>365.92</ele>
        <time>2012-07-17T07:09:56Z</time>
      </trkpt>
      <trkpt lat="44.34548" lon="2.04094">
        <ele>366.4</ele>
        <time>2012-07-17T07:10:00Z</time>
      </trkpt>
      <trkpt lat="44.34543" lon="2.04104">
        <ele>366.4</ele>
        <time>2012-07-17T07:10:09Z</time>
      </trkpt>
      <trkpt lat="44.34551" lon="2.04158">
        <ele>369.28</ele>
        <time>2012-07-17T07:10:30Z</time>
      </trkpt>
      <trkpt lat="44.34557" lon="2.04209">
        <ele>372.17</ele>
        <time>2012-07-17T07:10:51Z</time>
      </trkpt>
      <trkpt lat="44.34556" lon="2.04254">
        <ele>375.05</ele>
        <time>2012-07-17T07:11:08Z</time>
      </trkpt>
      <trkpt lat="44.3454" lon="2.043">
        <ele>378.42</ele>
        <time>2012-07-17T07:11:27Z</time>
      </trkpt>
      <trkpt lat="44.34521" lon="2.04324">
        <ele>381.3</ele>
        <time>2012-07-17T07:11:42Z</time>
      </trkpt>
      <trkpt lat="44.34483" lon="2.0434">
        <ele>384.66</ele>
        <time>2012-07-17T07:12:03Z</time>
      </trkpt>
      <trkpt lat="44.34453" lon="2.04337">
        <ele>387.55</ele>
        <time>2012-07-17T07:12:20Z</time>
      </trkpt>
      <trkpt lat="44.34421" lon="2.04333">
        <ele>390.91</ele>
        <time>2012-07-17T07:12:37Z</time>
      </trkpt>
      <trkpt lat="44.34387" lon="2.0433">
        <ele>393.8</ele>
        <time>2012-07-17T07:12:56Z</time>
      </trkpt>
      <trkpt lat="44.3437" lon="2.04329">
        <ele>395.24</ele>
        <time>2012-07-17T07:13:05Z</time>
      </trkpt>
      <trkpt lat="44.34365" lon="2.04325">
        <ele>395.72</ele>
        <time>2012-07-17T07:13:17Z</time>
      </trkpt>
      <trkpt lat="44.34367" lon="2.0432">
        <ele>396.2</ele>
        <time>2012-07-17T07:13:22Z</time>
      </trkpt>
      <trkpt lat="44.34392" lon="2.04312">
        <ele>398.6</ele>
        <time>2012-07-17T07:13:40Z</time>
      </trkpt>
      <trkpt lat="44.34416" lon="2.04309">
        <ele>401.97</ele>
        <time>2012-07-17T07:13:55Z</time>
      </trkpt>
      <trkpt lat="44.34435" lon="2.043">
        <ele>404.37</ele>
        <time>2012-07-17T07:14:08Z</time>
      </trkpt>
      <trkpt lat="44.34431" lon="2.04284">
        <ele>406.77</ele>
        <time>2012-07-17T07:14:20Z</time>
      </trkpt>
      <trkpt lat="44.34412" lon="2.0428">
        <ele>409.66</ele>
        <time>2012-07-17T07:14:34Z</time>
      </trkpt>
      <trkpt lat="44.34395" lon="2.04273">
        <ele>412.54</ele>
        <time>2012-07-17T07:14:48Z</time>
      </trkpt>
      <trkpt lat="44.34377" lon="2.04268">
        <ele>415.91</ele>
        <time>2012-07-17T07:15:03Z</time>
      </trkpt>
      <trkpt lat="44.34357" lon="2.04265">
        <ele>418.79</ele>
        <time>2012-07-17T07:15:20Z</time>
      </trkpt>
      <trkpt lat="44.34331" lon="2.04259">
        <ele>420.71</ele>
        <time>2012-07-17T07:15:40Z</time>
      </trkpt>
      <trkpt lat="44.34305" lon="2.0425">
        <ele>424.08</ele>
        <time>2012-07-17T07:16:00Z</time>
      </trkpt>
      <trkpt lat="44.34287" lon="2.04246">
        <ele>427.44</ele>
        <time>2012-07-17T07:16:13Z</time>
      </trkpt>
      <trkpt lat="44.34261" lon="2.04243">
        <ele>430.33</ele>
        <time>2012-07-17T07:16:33Z</time>
      </trkpt>
      <trkpt lat="44.34255" lon="2.04242">
        <ele>431.29</ele>
        <time>2012-07-17T07:16:47Z</time>
      </trkpt>
      <trkpt lat="44.34247" lon="2.04244">
        <ele>431.77</ele>
        <time>2012-07-17T07:16:59Z</time>
      </trkpt>
      <trkpt lat="44.34226" lon="2.04246">
        <ele>434.17</ele>
        <time>2012-07-17T07:17:22Z</time>
      </trkpt>
      <trkpt lat="44.34207" lon="2.04248">
        <ele>436.1</ele>
        <time>2012-07-17T07:17:41Z</time>
      </trkpt>
      <trkpt lat="44.34192" lon="2.0425">
        <ele>439.46</ele>
        <time>2012-07-17T07:18:00Z</time>
      </trkpt>
      <trkpt lat="44.34178" lon="2.04255">
        <ele>442.34</ele>
        <time>2012-07-17T07:18:21Z</time>
      </trkpt>
      <trkpt lat="44.34169" lon="2.04261">
        <ele>444.75</ele>
        <time>2012-07-17T07:18:39Z</time>
      </trkpt>
      <trkpt lat="44.3416" lon="2.04265">
        <ele>445.71</ele>
        <time>2012-07-17T07:18:55Z</time>
      </trkpt>
      <trkpt lat="44.3415" lon="2.04266">
        <ele>446.19</ele>
        <time>2012-07-17T07:19:10Z</time>
      </trkpt>
      <trkpt lat="44.34135" lon="2.04266">
        <ele>448.59</ele>
        <time>2012-07-17T07:19:34Z</time>
      </trkpt>
      <trkpt lat="44.3412" lon="2.0427">
        <ele>451</ele>
        <time>2012-07-17T07:19:57Z</time>
      </trkpt>
      <trkpt lat="44.34107" lon="2.0428">
        <ele>453.4</ele>
        <time>2012-07-17T07:20:19Z</time>
      </trkpt>
      <trkpt lat="44.3409" lon="2.04291">
        <ele>456.28</ele>
        <time>2012-07-17T07:20:42Z</time>
      </trkpt>
      <trkpt lat="44.34076" lon="2.04296">
        <ele>459.17</ele>
        <time>2012-07-17T07:21:02Z</time>
      </trkpt>
      <trkpt lat="44.34063" lon="2.04303">
        <ele>462.05</ele>
        <time>2012-07-17T07:21:22Z</time>
      </trkpt>
      <trkpt lat="44.34049" lon="2.04312">
        <ele>464.93</ele>
        <time>2012-07-17T07:21:44Z</time>
      </trkpt>
      <trkpt lat="44.34039" lon="2.04319">
        <ele>468.3</ele>
        <time>2012-07-17T07:22:02Z</time>
      </trkpt>
      <trkpt lat="44.34027" lon="2.04326">
        <ele>470.22</ele>
        <time>2012-07-17T07:22:21Z</time>
      </trkpt>
      <trkpt lat="44.34013" lon="2.04339">
        <ele>472.14</ele>
        <time>2012-07-17T07:22:42Z</time>
      </trkpt>
      <trkpt lat="44.33996" lon="2.04356">
        <ele>475.03</ele>
        <time>2012-07-17T07:23:11Z</time>
      </trkpt>
      <trkpt lat="44.33982" lon="2.04371">
        <ele>476.95</ele>
        <time>2012-07-17T07:23:35Z</time>
      </trkpt>
      <trkpt lat="44.33977" lon="2.04379">
        <ele>478.39</ele>
        <time>2012-07-17T07:23:45Z</time>
      </trkpt>
      <trkpt lat="44.33963" lon="2.04387">
        <ele>479.35</ele>
        <time>2012-07-17T07:24:02Z</time>
      </trkpt>
      <trkpt lat="44.33951" lon="2.04395">
        <ele>481.28</ele>
        <time>2012-07-17T07:24:22Z</time>
      </trkpt>
      <trkpt lat="44.33944" lon="2.04404">
        <ele>482.24</ele>
        <time>2012-07-17T07:24:40Z</time>
      </trkpt>
      <trkpt lat="44.33935" lon="2.04414">
        <ele>483.2</ele>
        <time>2012-07-17T07:24:59Z</time>
      </trkpt>
      <trkpt lat="44.33919" lon="2.04429">
        <ele>484.16</ele>
        <time>2012-07-17T07:25:15Z</time>
      </trkpt>
      <trkpt lat="44.339" lon="2.04451">
        <ele>485.6</ele>
        <time>2012-07-17T07:25:33Z</time>
      </trkpt>
      <trkpt lat="44.33882" lon="2.04471">
        <ele>487.53</ele>
        <time>2012-07-17T07:25:48Z</time>
      </trkpt>
      <trkpt lat="44.33854" lon="2.04488">
        <ele>490.41</ele>
        <time>2012-07-17T07:26:07Z</time>
      </trkpt>
      <trkpt lat="44.33829" lon="2.04499">
        <ele>492.81</ele>
        <time>2012-07-17T07:26:26Z</time>
      </trkpt>
      <trkpt lat="44.33811" lon="2.04522">
        <ele>495.7</ele>
        <time>2012-07-17T07:26:45Z</time>
      </trkpt>
      <trkpt lat="44.33791" lon="2.04548">
        <ele>498.1</ele>
        <time>2012-07-17T07:27:06Z</time>
      </trkpt>
      <trkpt lat="44.33781" lon="2.04562">
        <ele>499.54</ele>
        <time>2012-07-17T07:27:17Z</time>
      </trkpt>
      <trkpt lat="44.33764" lon="2.04583">
        <ele>500.98</ele>
        <time>2012-07-17T07:27:34Z</time>
      </trkpt>
      <trkpt lat="44.33752" lon="2.04598">
        <ele>501.95</ele>
        <time>2012-07-17T07:27:46Z</time>
      </trkpt>
      <trkpt lat="44.3375" lon="2.046">
        <ele>501.95</ele>
        <time>2012-07-17T07:27:48Z</time>
      </trkpt>
      <trkpt lat="44.33743" lon="2.04608">
        <ele>502.91</ele>
        <time>2012-07-17T07:27:56Z</time>
      </trkpt>
      <trkpt lat="44.33734" lon="2.04616">
        <ele>503.39</ele>
        <time>2012-07-17T07:28:11Z</time>
      </trkpt>
      <trkpt lat="44.33736" lon="2.04616">
        <ele>502.91</ele>
        <time>2012-07-17T07:28:25Z</time>
      </trkpt>
      <trkpt lat="44.33742" lon="2.0461">
        <ele>502.91</ele>
        <time>2012-07-17T07:28:46Z</time>
      </trkpt>
      <trkpt lat="44.33749" lon="2.04599">
        <ele>502.43</ele>
        <time>2012-07-17T07:29:11Z</time>
      </trkpt>
      <trkpt lat="44.33742" lon="2.04614">
        <ele>503.39</ele>
        <time>2012-07-17T07:29:54Z</time>
      </trkpt>
      <trkpt lat="44.33738" lon="2.04618">
        <ele>502.91</ele>
        <time>2012-07-17T07:30:47Z</time>
      </trkpt>
      <trkpt lat="44.33738" lon="2.04617">
        <ele>502.91</ele>
        <time>2012-07-17T07:31:24Z</time>
      </trkpt>
      <trkpt lat="44.33733" lon="2.0462">
        <ele>503.39</ele>
        <time>2012-07-17T07:32:24Z</time>
      </trkpt>
      <trkpt lat="44.33742" lon="2.04622">
        <ele>502.91</ele>
        <time>2012-07-17T07:32:54Z</time>
      </trkpt>
      <trkpt lat="44.33736" lon="2.04621">
        <ele>503.87</ele>
        <time>2012-07-17T07:33:42Z</time>
      </trkpt>
      <trkpt lat="44.33731" lon="2.04617">
        <ele>503.87</ele>
        <time>2012-07-17T07:34:41Z</time>
      </trkpt>
      <trkpt lat="44.33729" lon="2.04618">
        <ele>504.35</ele>
        <time>2012-07-17T07:36:42Z</time>
      </trkpt>
      <trkpt lat="44.33725" lon="2.04619">
        <ele>504.83</ele>
        <time>2012-07-17T07:36:46Z</time>
      </trkpt>
      <trkpt lat="44.33712" lon="2.04622">
        <ele>505.79</ele>
        <time>2012-07-17T07:36:56Z</time>
      </trkpt>
      <trkpt lat="44.33706" lon="2.04622">
        <ele>506.27</ele>
        <time>2012-07-17T07:37:01Z</time>
      </trkpt>
      <trkpt lat="44.33703" lon="2.04618">
        <ele>506.75</ele>
        <time>2012-07-17T07:37:05Z</time>
      </trkpt>
      <trkpt lat="44.33703" lon="2.04611">
        <ele>507.23</ele>
        <time>2012-07-17T07:37:09Z</time>
      </trkpt>
      <trkpt lat="44.33717" lon="2.04585">
        <ele>508.67</ele>
        <time>2012-07-17T07:37:26Z</time>
      </trkpt>
      <trkpt lat="44.33738" lon="2.04552">
        <ele>506.75</ele>
        <time>2012-07-17T07:37:38Z</time>
      </trkpt>
      <trkpt lat="44.33746" lon="2.04513">
        <ele>504.83</ele>
        <time>2012-07-17T07:37:50Z</time>
      </trkpt>
      <trkpt lat="44.33728" lon="2.04502">
        <ele>501.95</ele>
        <time>2012-07-17T07:38:05Z</time>
      </trkpt>
      <trkpt lat="44.33728" lon="2.04499">
        <ele>501.46</ele>
        <time>2012-07-17T07:38:22Z</time>
      </trkpt>
      <trkpt lat="44.33722" lon="2.04497">
        <ele>501.46</ele>
        <time>2012-07-17T07:38:44Z</time>
      </trkpt>
      <trkpt lat="44.33717" lon="2.04492">
        <ele>500.98</ele>
        <time>2012-07-17T07:38:48Z</time>
      </trkpt>
      <trkpt lat="44.33721" lon="2.04471">
        <ele>498.58</ele>
        <time>2012-07-17T07:39:07Z</time>
      </trkpt>
      <trkpt lat="44.33722" lon="2.04478">
        <ele>499.06</ele>
        <time>2012-07-17T07:39:39Z</time>
      </trkpt>
      <trkpt lat="44.33722" lon="2.04479">
        <ele>499.06</ele>
        <time>2012-07-17T07:39:43Z</time>
      </trkpt>
      <trkpt lat="44.33722" lon="2.0449">
        <ele>500.5</ele>
        <time>2012-07-17T07:39:51Z</time>
      </trkpt>
      <trkpt lat="44.33724" lon="2.04494">
        <ele>501.46</ele>
        <time>2012-07-17T07:39:55Z</time>
      </trkpt>
      <trkpt lat="44.3373" lon="2.04493">
        <ele>501.46</ele>
        <time>2012-07-17T07:40:06Z</time>
      </trkpt>
      <trkpt lat="44.33728" lon="2.04495">
        <ele>501.95</ele>
        <time>2012-07-17T07:40:21Z</time>
      </trkpt>
      <trkpt lat="44.33729" lon="2.04498">
        <ele>501.95</ele>
        <time>2012-07-17T07:40:35Z</time>
      </trkpt>
      <trkpt lat="44.33734" lon="2.045">
        <ele>502.43</ele>
        <time>2012-07-17T07:40:39Z</time>
      </trkpt>
      <trkpt lat="44.33751" lon="2.04525">
        <ele>504.35</ele>
        <time>2012-07-17T07:40:46Z</time>
      </trkpt>
      <trkpt lat="44.33724" lon="2.04569">
        <ele>507.23</ele>
        <time>2012-07-17T07:41:00Z</time>
      </trkpt>
      <trkpt lat="44.33693" lon="2.04625">
        <ele>508.19</ele>
        <time>2012-07-17T07:41:16Z</time>
      </trkpt>
      <trkpt lat="44.33642" lon="2.04673">
        <ele>509.64</ele>
        <time>2012-07-17T07:41:32Z</time>
      </trkpt>
      <trkpt lat="44.33605" lon="2.0471">
        <ele>510.6</ele>
        <time>2012-07-17T07:41:47Z</time>
      </trkpt>
      <trkpt lat="44.33598" lon="2.04716">
        <ele>510.12</ele>
        <time>2012-07-17T07:41:49Z</time>
      </trkpt>
      <trkpt lat="44.33563" lon="2.04743">
        <ele>508.67</ele>
        <time>2012-07-17T07:41:59Z</time>
      </trkpt>
      <trkpt lat="44.33518" lon="2.04786">
        <ele>508.19</ele>
        <time>2012-07-17T07:42:07Z</time>
      </trkpt>
      <trkpt lat="44.33466" lon="2.04849">
        <ele>504.83</ele>
        <time>2012-07-17T07:42:15Z</time>
      </trkpt>
      <trkpt lat="44.33456" lon="2.04867">
        <ele>503.87</ele>
        <time>2012-07-17T07:42:17Z</time>
      </trkpt>
      <trkpt lat="44.33445" lon="2.04924">
        <ele>503.39</ele>
        <time>2012-07-17T07:42:23Z</time>
      </trkpt>
      <trkpt lat="44.33424" lon="2.05023">
        <ele>505.31</ele>
        <time>2012-07-17T07:42:34Z</time>
      </trkpt>
      <trkpt lat="44.33423" lon="2.0503">
        <ele>505.31</ele>
        <time>2012-07-17T07:42:35Z</time>
      </trkpt>
      <trkpt lat="44.33423" lon="2.05058">
        <ele>505.79</ele>
        <time>2012-07-17T07:42:39Z</time>
      </trkpt>
      <trkpt lat="44.33442" lon="2.05097">
        <ele>506.75</ele>
        <time>2012-07-17T07:42:47Z</time>
      </trkpt>
      <trkpt lat="44.33504" lon="2.05211">
        <ele>508.19</ele>
        <time>2012-07-17T07:43:06Z</time>
      </trkpt>
      <trkpt lat="44.33515" lon="2.0523">
        <ele>508.67</ele>
        <time>2012-07-17T07:43:10Z</time>
      </trkpt>
      <trkpt lat="44.33519" lon="2.05256">
        <ele>509.16</ele>
        <time>2012-07-17T07:43:15Z</time>
      </trkpt>
      <trkpt lat="44.33525" lon="2.05325">
        <ele>508.67</ele>
        <time>2012-07-17T07:43:28Z</time>
      </trkpt>
      <trkpt lat="44.33512" lon="2.05352">
        <ele>506.75</ele>
        <time>2012-07-17T07:43:33Z</time>
      </trkpt>
      <trkpt lat="44.33481" lon="2.05368">
        <ele>505.31</ele>
        <time>2012-07-17T07:43:38Z</time>
      </trkpt>
      <trkpt lat="44.33471" lon="2.054">
        <ele>505.31</ele>
        <time>2012-07-17T07:43:44Z</time>
      </trkpt>
      <trkpt lat="44.3348" lon="2.0541">
        <ele>505.31</ele>
        <time>2012-07-17T07:43:46Z</time>
      </trkpt>
      <trkpt lat="44.33522" lon="2.05444">
        <ele>504.83</ele>
        <time>2012-07-17T07:43:55Z</time>
      </trkpt>
      <trkpt lat="44.33556" lon="2.055">
        <ele>500.98</ele>
        <time>2012-07-17T07:44:02Z</time>
      </trkpt>
      <trkpt lat="44.33564" lon="2.05517">
        <ele>498.58</ele>
        <time>2012-07-17T07:44:04Z</time>
      </trkpt>
      <trkpt lat="44.3357" lon="2.0557">
        <ele>496.66</ele>
        <time>2012-07-17T07:44:11Z</time>
      </trkpt>
      <trkpt lat="44.33523" lon="2.05658">
        <ele>499.06</ele>
        <time>2012-07-17T07:44:26Z</time>
      </trkpt>
      <trkpt lat="44.33436" lon="2.05712">
        <ele>500.02</ele>
        <time>2012-07-17T07:44:43Z</time>
      </trkpt>
      <trkpt lat="44.33373" lon="2.05746">
        <ele>501.46</ele>
        <time>2012-07-17T07:44:55Z</time>
      </trkpt>
      <trkpt lat="44.33351" lon="2.0577">
        <ele>500.98</ele>
        <time>2012-07-17T07:45:00Z</time>
      </trkpt>
      <trkpt lat="44.33333" lon="2.05823">
        <ele>501.46</ele>
        <time>2012-07-17T07:45:08Z</time>
      </trkpt>
      <trkpt lat="44.33332" lon="2.05851">
        <ele>502.43</ele>
        <time>2012-07-17T07:45:12Z</time>
      </trkpt>
      <trkpt lat="44.33355" lon="2.05931">
        <ele>505.31</ele>
        <time>2012-07-17T07:45:23Z</time>
      </trkpt>
      <trkpt lat="44.33368" lon="2.05961">
        <ele>506.27</ele>
        <time>2012-07-17T07:45:28Z</time>
      </trkpt>
      <trkpt lat="44.33373" lon="2.06049">
        <ele>509.16</ele>
        <time>2012-07-17T07:45:44Z</time>
      </trkpt>
      <trkpt lat="44.33343" lon="2.06196">
        <ele>510.6</ele>
        <time>2012-07-17T07:46:13Z</time>
      </trkpt>
      <trkpt lat="44.33311" lon="2.06279">
        <ele>512.04</ele>
        <time>2012-07-17T07:46:30Z</time>
      </trkpt>
      <trkpt lat="44.33266" lon="2.06366">
        <ele>512.52</ele>
        <time>2012-07-17T07:46:49Z</time>
      </trkpt>
      <trkpt lat="44.33238" lon="2.06384">
        <ele>512.04</ele>
        <time>2012-07-17T07:46:56Z</time>
      </trkpt>
      <trkpt lat="44.332" lon="2.06374">
        <ele>509.64</ele>
        <time>2012-07-17T07:47:02Z</time>
      </trkpt>
      <trkpt lat="44.33147" lon="2.06379">
        <ele>506.27</ele>
        <time>2012-07-17T07:47:08Z</time>
      </trkpt>
      <trkpt lat="44.33128" lon="2.06392">
        <ele>503.87</ele>
        <time>2012-07-17T07:47:10Z</time>
      </trkpt>
      <trkpt lat="44.3309" lon="2.06428">
        <ele>500.5</ele>
        <time>2012-07-17T07:47:14Z</time>
      </trkpt>
      <trkpt lat="44.33044" lon="2.0645">
        <ele>496.66</ele>
        <time>2012-07-17T07:47:18Z</time>
      </trkpt>
      <trkpt lat="44.32999" lon="2.06431">
        <ele>494.74</ele>
        <time>2012-07-17T07:47:22Z</time>
      </trkpt>
      <trkpt lat="44.32984" lon="2.06412">
        <ele>494.74</ele>
        <time>2012-07-17T07:47:24Z</time>
      </trkpt>
      <trkpt lat="44.32952" lon="2.06343">
        <ele>497.62</ele>
        <time>2012-07-17T07:47:33Z</time>
      </trkpt>
      <trkpt lat="44.32929" lon="2.06308">
        <ele>500.02</ele>
        <time>2012-07-17T07:47:43Z</time>
      </trkpt>
      <trkpt lat="44.32912" lon="2.06276">
        <ele>501.46</ele>
        <time>2012-07-17T07:47:53Z</time>
      </trkpt>
      <trkpt lat="44.3291" lon="2.06227">
        <ele>503.87</ele>
        <time>2012-07-17T07:48:07Z</time>
      </trkpt>
      <trkpt lat="44.32907" lon="2.06187">
        <ele>505.79</ele>
        <time>2012-07-17T07:48:19Z</time>
      </trkpt>
      <trkpt lat="44.32896" lon="2.06148">
        <ele>506.75</ele>
        <time>2012-07-17T07:48:32Z</time>
      </trkpt>
      <trkpt lat="44.32872" lon="2.06118">
        <ele>509.16</ele>
        <time>2012-07-17T07:48:46Z</time>
      </trkpt>
      <trkpt lat="44.32841" lon="2.06134">
        <ele>511.08</ele>
        <time>2012-07-17T07:49:01Z</time>
      </trkpt>
      <trkpt lat="44.32806" lon="2.06178">
        <ele>513.96</ele>
        <time>2012-07-17T07:49:23Z</time>
      </trkpt>
      <trkpt lat="44.3277" lon="2.06217">
        <ele>516.37</ele>
        <time>2012-07-17T07:49:44Z</time>
      </trkpt>
      <trkpt lat="44.32737" lon="2.06206">
        <ele>519.25</ele>
        <time>2012-07-17T07:50:00Z</time>
      </trkpt>
      <trkpt lat="44.32702" lon="2.06175">
        <ele>521.65</ele>
        <time>2012-07-17T07:50:21Z</time>
      </trkpt>
      <trkpt lat="44.3267" lon="2.06152">
        <ele>524.06</ele>
        <time>2012-07-17T07:50:38Z</time>
      </trkpt>
      <trkpt lat="44.32629" lon="2.06164">
        <ele>526.46</ele>
        <time>2012-07-17T07:50:57Z</time>
      </trkpt>
      <trkpt lat="44.32589" lon="2.06185">
        <ele>529.34</ele>
        <time>2012-07-17T07:51:17Z</time>
      </trkpt>
      <trkpt lat="44.32547" lon="2.06211">
        <ele>532.71</ele>
        <time>2012-07-17T07:51:39Z</time>
      </trkpt>
      <trkpt lat="44.3251" lon="2.06234">
        <ele>532.71</ele>
        <time>2012-07-17T07:51:57Z</time>
      </trkpt>
      <trkpt lat="44.32481" lon="2.06251">
        <ele>531.27</ele>
        <time>2012-07-17T07:52:07Z</time>
      </trkpt>
      <trkpt lat="44.32474" lon="2.06248">
        <ele>531.27</ele>
        <time>2012-07-17T07:52:11Z</time>
      </trkpt>
      <trkpt lat="44.32472" lon="2.06236">
        <ele>531.27</ele>
        <time>2012-07-17T07:52:30Z</time>
      </trkpt>
      <trkpt lat="44.32475" lon="2.0624">
        <ele>531.27</ele>
        <time>2012-07-17T07:52:46Z</time>
      </trkpt>
      <trkpt lat="44.32469" lon="2.06234">
        <ele>530.79</ele>
        <time>2012-07-17T07:53:45Z</time>
      </trkpt>
      <trkpt lat="44.32478" lon="2.06244">
        <ele>531.27</ele>
        <time>2012-07-17T07:54:38Z</time>
      </trkpt>
      <trkpt lat="44.32477" lon="2.06249">
        <ele>531.27</ele>
        <time>2012-07-17T07:55:12Z</time>
      </trkpt>
      <trkpt lat="44.32471" lon="2.06237">
        <ele>531.27</ele>
        <time>2012-07-17T07:55:26Z</time>
      </trkpt>
      <trkpt lat="44.3247" lon="2.06236">
        <ele>531.27</ele>
        <time>2012-07-17T07:56:19Z</time>
      </trkpt>
      <trkpt lat="44.32469" lon="2.06266">
        <ele>530.79</ele>
        <time>2012-07-17T07:56:29Z</time>
      </trkpt>
      <trkpt lat="44.32466" lon="2.0627">
        <ele>530.79</ele>
        <time>2012-07-17T07:56:30Z</time>
      </trkpt>
      <trkpt lat="44.32421" lon="2.06335">
        <ele>526.94</ele>
        <time>2012-07-17T07:56:40Z</time>
      </trkpt>
      <trkpt lat="44.32386" lon="2.06381">
        <ele>523.58</ele>
        <time>2012-07-17T07:56:46Z</time>
      </trkpt>
      <trkpt lat="44.32371" lon="2.06399">
        <ele>523.09</ele>
        <time>2012-07-17T07:56:48Z</time>
      </trkpt>
      <trkpt lat="44.32331" lon="2.06449">
        <ele>519.25</ele>
        <time>2012-07-17T07:56:53Z</time>
      </trkpt>
      <trkpt lat="44.32303" lon="2.0648">
        <ele>515.88</ele>
        <time>2012-07-17T07:56:56Z</time>
      </trkpt>
      <trkpt lat="44.32283" lon="2.065">
        <ele>514.44</ele>
        <time>2012-07-17T07:56:58Z</time>
      </trkpt>
      <trkpt lat="44.32244" lon="2.06538">
        <ele>511.56</ele>
        <time>2012-07-17T07:57:02Z</time>
      </trkpt>
      <trkpt lat="44.32216" lon="2.06564">
        <ele>509.64</ele>
        <time>2012-07-17T07:57:05Z</time>
      </trkpt>
      <trkpt lat="44.32165" lon="2.06616">
        <ele>505.79</ele>
        <time>2012-07-17T07:57:11Z</time>
      </trkpt>
      <trkpt lat="44.32156" lon="2.06627">
        <ele>504.83</ele>
        <time>2012-07-17T07:57:12Z</time>
      </trkpt>
      <trkpt lat="44.32116" lon="2.06748">
        <ele>501.95</ele>
        <time>2012-07-17T07:57:21Z</time>
      </trkpt>
      <trkpt lat="44.32114" lon="2.06759">
        <ele>501.95</ele>
        <time>2012-07-17T07:57:22Z</time>
      </trkpt>
      <trkpt lat="44.32101" lon="2.06804">
        <ele>503.87</ele>
        <time>2012-07-17T07:57:30Z</time>
      </trkpt>
      <trkpt lat="44.32092" lon="2.06835">
        <ele>504.35</ele>
        <time>2012-07-17T07:57:41Z</time>
      </trkpt>
      <trkpt lat="44.32072" lon="2.06909">
        <ele>503.39</ele>
        <time>2012-07-17T07:57:56Z</time>
      </trkpt>
      <trkpt lat="44.32067" lon="2.06957">
        <ele>501.46</ele>
        <time>2012-07-17T07:58:02Z</time>
      </trkpt>
      <trkpt lat="44.32053" lon="2.06994">
        <ele>499.54</ele>
        <time>2012-07-17T07:58:06Z</time>
      </trkpt>
      <trkpt lat="44.32047" lon="2.07002">
        <ele>498.58</ele>
        <time>2012-07-17T07:58:07Z</time>
      </trkpt>
      <trkpt lat="44.32026" lon="2.07029">
        <ele>496.66</ele>
        <time>2012-07-17T07:58:11Z</time>
      </trkpt>
      <trkpt lat="44.3202" lon="2.07072">
        <ele>495.22</ele>
        <time>2012-07-17T07:58:16Z</time>
      </trkpt>
      <trkpt lat="44.32025" lon="2.07115">
        <ele>493.29</ele>
        <time>2012-07-17T07:58:20Z</time>
      </trkpt>
      <trkpt lat="44.3201" lon="2.0717">
        <ele>490.89</ele>
        <time>2012-07-17T07:58:25Z</time>
      </trkpt>
      <trkpt lat="44.31998" lon="2.07186">
        <ele>489.93</ele>
        <time>2012-07-17T07:58:27Z</time>
      </trkpt>
      <trkpt lat="44.31989" lon="2.07235">
        <ele>487.05</ele>
        <time>2012-07-17T07:58:32Z</time>
      </trkpt>
      <trkpt lat="44.31992" lon="2.07261">
        <ele>486.56</ele>
        <time>2012-07-17T07:58:34Z</time>
      </trkpt>
      <trkpt lat="44.31976" lon="2.07303">
        <ele>484.64</ele>
        <time>2012-07-17T07:58:38Z</time>
      </trkpt>
      <trkpt lat="44.31928" lon="2.07352">
        <ele>482.24</ele>
        <time>2012-07-17T07:58:49Z</time>
      </trkpt>
      <trkpt lat="44.31914" lon="2.07337">
        <ele>482.24</ele>
        <time>2012-07-17T07:58:56Z</time>
      </trkpt>
      <trkpt lat="44.31912" lon="2.07324">
        <ele>480.8</ele>
        <time>2012-07-17T07:59:07Z</time>
      </trkpt>
      <trkpt lat="44.31916" lon="2.07321">
        <ele>479.84</ele>
        <time>2012-07-17T07:59:20Z</time>
      </trkpt>
      <trkpt lat="44.31919" lon="2.07316">
        <ele>479.35</ele>
        <time>2012-07-17T07:59:28Z</time>
      </trkpt>
      <trkpt lat="44.31924" lon="2.07308">
        <ele>479.35</ele>
        <time>2012-07-17T07:59:40Z</time>
      </trkpt>
      <trkpt lat="44.3192" lon="2.07298">
        <ele>479.35</ele>
        <time>2012-07-17T07:59:47Z</time>
      </trkpt>
      <trkpt lat="44.31926" lon="2.07293">
        <ele>478.39</ele>
        <time>2012-07-17T08:00:02Z</time>
      </trkpt>
      <trkpt lat="44.31926" lon="2.07291">
        <ele>478.87</ele>
        <time>2012-07-17T08:00:20Z</time>
      </trkpt>
      <trkpt lat="44.31927" lon="2.07288">
        <ele>478.87</ele>
        <time>2012-07-17T08:01:04Z</time>
      </trkpt>
      <trkpt lat="44.31929" lon="2.07292">
        <ele>478.87</ele>
        <time>2012-07-17T08:01:26Z</time>
      </trkpt>
      <trkpt lat="44.31922" lon="2.07292">
        <ele>478.87</ele>
        <time>2012-07-17T08:01:39Z</time>
      </trkpt>
      <trkpt lat="44.31914" lon="2.07295">
        <ele>480.32</ele>
        <time>2012-07-17T08:01:50Z</time>
      </trkpt>
      <trkpt lat="44.31914" lon="2.07302">
        <ele>480.32</ele>
        <time>2012-07-17T08:01:54Z</time>
      </trkpt>
      <trkpt lat="44.31912" lon="2.07312">
        <ele>480.32</ele>
        <time>2012-07-17T08:02:00Z</time>
      </trkpt>
      <trkpt lat="44.31913" lon="2.0732">
        <ele>480.32</ele>
        <time>2012-07-17T08:02:05Z</time>
      </trkpt>
      <trkpt lat="44.31915" lon="2.07322">
        <ele>480.32</ele>
        <time>2012-07-17T08:02:09Z</time>
      </trkpt>
      <trkpt lat="44.31911" lon="2.0733">
        <ele>480.32</ele>
        <time>2012-07-17T08:02:19Z</time>
      </trkpt>
      <trkpt lat="44.31914" lon="2.07339">
        <ele>480.32</ele>
        <time>2012-07-17T08:02:23Z</time>
      </trkpt>
      <trkpt lat="44.31922" lon="2.07359">
        <ele>481.28</ele>
        <time>2012-07-17T08:02:32Z</time>
      </trkpt>
      <trkpt lat="44.31921" lon="2.07375">
        <ele>482.24</ele>
        <time>2012-07-17T08:02:39Z</time>
      </trkpt>
      <trkpt lat="44.31909" lon="2.07423">
        <ele>483.2</ele>
        <time>2012-07-17T08:02:55Z</time>
      </trkpt>
      <trkpt lat="44.31904" lon="2.07445">
        <ele>484.16</ele>
        <time>2012-07-17T08:03:03Z</time>
      </trkpt>
      <trkpt lat="44.31896" lon="2.07482">
        <ele>486.56</ele>
        <time>2012-07-17T08:03:17Z</time>
      </trkpt>
      <trkpt lat="44.31895" lon="2.07485">
        <ele>486.56</ele>
        <time>2012-07-17T08:03:18Z</time>
      </trkpt>
      <trkpt lat="44.31891" lon="2.07503">
        <ele>487.53</ele>
        <time>2012-07-17T08:03:25Z</time>
      </trkpt>
      <trkpt lat="44.31891" lon="2.07511">
        <ele>488.01</ele>
        <time>2012-07-17T08:03:28Z</time>
      </trkpt>
      <trkpt lat="44.3188" lon="2.07551">
        <ele>490.41</ele>
        <time>2012-07-17T08:03:44Z</time>
      </trkpt>
      <trkpt lat="44.31859" lon="2.0758">
        <ele>491.85</ele>
        <time>2012-07-17T08:03:58Z</time>
      </trkpt>
      <trkpt lat="44.31853" lon="2.07625">
        <ele>494.74</ele>
        <time>2012-07-17T08:04:15Z</time>
      </trkpt>
      <trkpt lat="44.31865" lon="2.07677">
        <ele>497.62</ele>
        <time>2012-07-17T08:04:34Z</time>
      </trkpt>
      <trkpt lat="44.31881" lon="2.077">
        <ele>499.06</ele>
        <time>2012-07-17T08:04:47Z</time>
      </trkpt>
      <trkpt lat="44.31905" lon="2.07719">
        <ele>500.5</ele>
        <time>2012-07-17T08:05:01Z</time>
      </trkpt>
      <trkpt lat="44.31908" lon="2.07723">
        <ele>500.98</ele>
        <time>2012-07-17T08:05:03Z</time>
      </trkpt>
      <trkpt lat="44.31906" lon="2.07738">
        <ele>502.43</ele>
        <time>2012-07-17T08:05:10Z</time>
      </trkpt>
      <trkpt lat="44.31883" lon="2.07746">
        <ele>504.35</ele>
        <time>2012-07-17T08:05:23Z</time>
      </trkpt>
      <trkpt lat="44.3185" lon="2.07734">
        <ele>505.79</ele>
        <time>2012-07-17T08:05:39Z</time>
      </trkpt>
      <trkpt lat="44.31816" lon="2.07708">
        <ele>507.23</ele>
        <time>2012-07-17T08:05:58Z</time>
      </trkpt>
      <trkpt lat="44.31771" lon="2.07715">
        <ele>509.16</ele>
        <time>2012-07-17T08:06:18Z</time>
      </trkpt>
      <trkpt lat="44.31717" lon="2.07723">
        <ele>511.08</ele>
        <time>2012-07-17T08:06:38Z</time>
      </trkpt>
      <trkpt lat="44.31643" lon="2.07744">
        <ele>513.48</ele>
        <time>2012-07-17T08:07:05Z</time>
      </trkpt>
      <trkpt lat="44.31565" lon="2.07805">
        <ele>516.37</ele>
        <time>2012-07-17T08:07:35Z</time>
      </trkpt>
      <trkpt lat="44.31506" lon="2.07852">
        <ele>519.25</ele>
        <time>2012-07-17T08:07:59Z</time>
      </trkpt>
      <trkpt lat="44.3147" lon="2.07882">
        <ele>522.13</ele>
        <time>2012-07-17T08:08:16Z</time>
      </trkpt>
      <trkpt lat="44.31441" lon="2.07914">
        <ele>523.09</ele>
        <time>2012-07-17T08:08:33Z</time>
      </trkpt>
      <trkpt lat="44.31424" lon="2.07953">
        <ele>522.61</ele>
        <time>2012-07-17T08:08:47Z</time>
      </trkpt>
      <trkpt lat="44.31425" lon="2.07951">
        <ele>523.09</ele>
        <time>2012-07-17T08:08:59Z</time>
      </trkpt>
      <trkpt lat="44.31425" lon="2.0795">
        <ele>522.61</ele>
        <time>2012-07-17T08:09:19Z</time>
      </trkpt>
      <trkpt lat="44.31426" lon="2.07948">
        <ele>523.09</ele>
        <time>2012-07-17T08:09:37Z</time>
      </trkpt>
      <trkpt lat="44.31423" lon="2.07948">
        <ele>523.09</ele>
        <time>2012-07-17T08:10:03Z</time>
      </trkpt>
      <trkpt lat="44.31424" lon="2.07951">
        <ele>523.09</ele>
        <time>2012-07-17T08:10:35Z</time>
      </trkpt>
      <trkpt lat="44.31424" lon="2.07951">
        <ele>523.09</ele>
        <time>2012-07-17T08:10:51Z</time>
      </trkpt>
      <trkpt lat="44.31424" lon="2.07952">
        <ele>522.61</ele>
        <time>2012-07-17T08:11:12Z</time>
      </trkpt>
      <trkpt lat="44.31424" lon="2.07952">
        <ele>522.61</ele>
        <time>2012-07-17T08:11:39Z</time>
      </trkpt>
      <trkpt lat="44.31426" lon="2.07952">
        <ele>523.09</ele>
        <time>2012-07-17T08:11:55Z</time>
      </trkpt>
      <trkpt lat="44.31427" lon="2.07954">
        <ele>523.09</ele>
        <time>2012-07-17T08:12:03Z</time>
      </trkpt>
      <trkpt lat="44.31418" lon="2.08006">
        <ele>521.65</ele>
        <time>2012-07-17T08:12:17Z</time>
      </trkpt>
      <trkpt lat="44.31393" lon="2.08092">
        <ele>518.29</ele>
        <time>2012-07-17T08:12:26Z</time>
      </trkpt>
      <trkpt lat="44.31389" lon="2.08102">
        <ele>517.81</ele>
        <time>2012-07-17T08:12:27Z</time>
      </trkpt>
      <trkpt lat="44.31345" lon="2.08204">
        <ele>514.44</ele>
        <time>2012-07-17T08:12:37Z</time>
      </trkpt>
      <trkpt lat="44.31318" lon="2.08242">
        <ele>513</ele>
        <time>2012-07-17T08:12:41Z</time>
      </trkpt>
      <trkpt lat="44.31273" lon="2.08281">
        <ele>509.16</ele>
        <time>2012-07-17T08:12:46Z</time>
      </trkpt>
      <trkpt lat="44.31237" lon="2.08315">
        <ele>506.75</ele>
        <time>2012-07-17T08:12:50Z</time>
      </trkpt>
      <trkpt lat="44.31199" lon="2.08348">
        <ele>503.87</ele>
        <time>2012-07-17T08:12:54Z</time>
      </trkpt>
      <trkpt lat="44.31146" lon="2.08384">
        <ele>500.5</ele>
        <time>2012-07-17T08:12:59Z</time>
      </trkpt>
      <trkpt lat="44.31092" lon="2.08417">
        <ele>496.66</ele>
        <time>2012-07-17T08:13:04Z</time>
      </trkpt>
      <trkpt lat="44.3105" lon="2.08445">
        <ele>493.29</ele>
        <time>2012-07-17T08:13:08Z</time>
      </trkpt>
      <trkpt lat="44.31039" lon="2.08453">
        <ele>493.29</ele>
        <time>2012-07-17T08:13:09Z</time>
      </trkpt>
      <trkpt lat="44.30995" lon="2.08482">
        <ele>489.93</ele>
        <time>2012-07-17T08:13:13Z</time>
      </trkpt>
      <trkpt lat="44.30941" lon="2.08518">
        <ele>486.08</ele>
        <time>2012-07-17T08:13:18Z</time>
      </trkpt>
      <trkpt lat="44.3093" lon="2.08525">
        <ele>486.08</ele>
        <time>2012-07-17T08:13:19Z</time>
      </trkpt>
      <trkpt lat="44.30884" lon="2.08552">
        <ele>482.72</ele>
        <time>2012-07-17T08:13:23Z</time>
      </trkpt>
      <trkpt lat="44.30849" lon="2.08573">
        <ele>478.87</ele>
        <time>2012-07-17T08:13:26Z</time>
      </trkpt>
      <trkpt lat="44.30824" lon="2.08587">
        <ele>477.91</ele>
        <time>2012-07-17T08:13:28Z</time>
      </trkpt>
      <trkpt lat="44.30788" lon="2.08609">
        <ele>474.07</ele>
        <time>2012-07-17T08:13:31Z</time>
      </trkpt>
      <trkpt lat="44.30741" lon="2.08638">
        <ele>470.7</ele>
        <time>2012-07-17T08:13:35Z</time>
      </trkpt>
      <trkpt lat="44.3073" lon="2.08645">
        <ele>470.22</ele>
        <time>2012-07-17T08:13:36Z</time>
      </trkpt>
      <trkpt lat="44.30687" lon="2.08652">
        <ele>469.74</ele>
        <time>2012-07-17T08:13:40Z</time>
      </trkpt>
      <trkpt lat="44.3067" lon="2.08643">
        <ele>470.7</ele>
        <time>2012-07-17T08:13:42Z</time>
      </trkpt>
      <trkpt lat="44.30639" lon="2.08645">
        <ele>472.63</ele>
        <time>2012-07-17T08:13:47Z</time>
      </trkpt>
      <trkpt lat="44.30573" lon="2.08703">
        <ele>475.99</ele>
        <time>2012-07-17T08:14:03Z</time>
      </trkpt>
      <trkpt lat="44.30482" lon="2.08795">
        <ele>475.51</ele>
        <time>2012-07-17T08:14:28Z</time>
      </trkpt>
      <trkpt lat="44.30417" lon="2.08867">
        <ele>473.59</ele>
        <time>2012-07-17T08:14:43Z</time>
      </trkpt>
      <trkpt lat="44.30396" lon="2.08885">
        <ele>473.59</ele>
        <time>2012-07-17T08:14:47Z</time>
      </trkpt>
      <trkpt lat="44.3029" lon="2.0894">
        <ele>472.14</ele>
        <time>2012-07-17T08:15:06Z</time>
      </trkpt>
      <trkpt lat="44.30235" lon="2.09003">
        <ele>468.78</ele>
        <time>2012-07-17T08:15:15Z</time>
      </trkpt>
      <trkpt lat="44.3019" lon="2.0903">
        <ele>465.42</ele>
        <time>2012-07-17T08:15:20Z</time>
      </trkpt>
      <trkpt lat="44.30158" lon="2.09039">
        <ele>463.49</ele>
        <time>2012-07-17T08:15:23Z</time>
      </trkpt>
      <trkpt lat="44.30137" lon="2.09045">
        <ele>462.05</ele>
        <time>2012-07-17T08:15:25Z</time>
      </trkpt>
      <trkpt lat="44.30101" lon="2.09087">
        <ele>458.21</ele>
        <time>2012-07-17T08:15:30Z</time>
      </trkpt>
      <trkpt lat="44.30088" lon="2.09145">
        <ele>456.28</ele>
        <time>2012-07-17T08:15:34Z</time>
      </trkpt>
      <trkpt lat="44.3009" lon="2.09219">
        <ele>453.88</ele>
        <time>2012-07-17T08:15:39Z</time>
      </trkpt>
      <trkpt lat="44.30102" lon="2.09279">
        <ele>451.48</ele>
        <time>2012-07-17T08:15:43Z</time>
      </trkpt>
      <trkpt lat="44.30095" lon="2.09308">
        <ele>450.03</ele>
        <time>2012-07-17T08:15:45Z</time>
      </trkpt>
      <trkpt lat="44.30052" lon="2.09428">
        <ele>446.19</ele>
        <time>2012-07-17T08:15:55Z</time>
      </trkpt>
      <trkpt lat="44.30039" lon="2.09487">
        <ele>444.27</ele>
        <time>2012-07-17T08:16:00Z</time>
      </trkpt>
      <trkpt lat="44.30002" lon="2.09524">
        <ele>443.79</ele>
        <time>2012-07-17T08:16:06Z</time>
      </trkpt>
      <trkpt lat="44.29988" lon="2.09504">
        <ele>444.27</ele>
        <time>2012-07-17T08:16:09Z</time>
      </trkpt>
      <trkpt lat="44.29977" lon="2.09449">
        <ele>447.15</ele>
        <time>2012-07-17T08:16:20Z</time>
      </trkpt>
      <trkpt lat="44.2995" lon="2.09397">
        <ele>450.52</ele>
        <time>2012-07-17T08:16:37Z</time>
      </trkpt>
      <trkpt lat="44.29951" lon="2.09349">
        <ele>453.88</ele>
        <time>2012-07-17T08:16:53Z</time>
      </trkpt>
      <trkpt lat="44.29951" lon="2.09313">
        <ele>455.8</ele>
        <time>2012-07-17T08:17:06Z</time>
      </trkpt>
      <trkpt lat="44.29938" lon="2.0925">
        <ele>458.69</ele>
        <time>2012-07-17T08:17:30Z</time>
      </trkpt>
      <trkpt lat="44.29907" lon="2.09219">
        <ele>461.57</ele>
        <time>2012-07-17T08:17:49Z</time>
      </trkpt>
      <trkpt lat="44.2986" lon="2.09187">
        <ele>464.45</ele>
        <time>2012-07-17T08:18:15Z</time>
      </trkpt>
      <trkpt lat="44.29843" lon="2.09149">
        <ele>466.86</ele>
        <time>2012-07-17T08:18:32Z</time>
      </trkpt>
      <trkpt lat="44.29836" lon="2.09107">
        <ele>470.22</ele>
        <time>2012-07-17T08:18:49Z</time>
      </trkpt>
      <trkpt lat="44.29815" lon="2.09074">
        <ele>472.14</ele>
        <time>2012-07-17T08:19:05Z</time>
      </trkpt>
      <trkpt lat="44.29787" lon="2.09035">
        <ele>474.55</ele>
        <time>2012-07-17T08:19:26Z</time>
      </trkpt>
      <trkpt lat="44.29761" lon="2.09029">
        <ele>476.47</ele>
        <time>2012-07-17T08:19:42Z</time>
      </trkpt>
      <trkpt lat="44.2974" lon="2.09033">
        <ele>477.91</ele>
        <time>2012-07-17T08:19:55Z</time>
      </trkpt>
      <trkpt lat="44.29724" lon="2.09044">
        <ele>477.91</ele>
        <time>2012-07-17T08:20:03Z</time>
      </trkpt>
      <trkpt lat="44.29707" lon="2.09054">
        <ele>477.43</ele>
        <time>2012-07-17T08:20:07Z</time>
      </trkpt>
      <trkpt lat="44.29699" lon="2.09065">
        <ele>476.47</ele>
        <time>2012-07-17T08:20:09Z</time>
      </trkpt>
      <trkpt lat="44.29658" lon="2.09091">
        <ele>473.11</ele>
        <time>2012-07-17T08:20:15Z</time>
      </trkpt>
      <trkpt lat="44.2965" lon="2.09096">
        <ele>472.63</ele>
        <time>2012-07-17T08:20:16Z</time>
      </trkpt>
      <trkpt lat="44.29585" lon="2.0909">
        <ele>469.26</ele>
        <time>2012-07-17T08:20:23Z</time>
      </trkpt>
      <trkpt lat="44.29576" lon="2.09088">
        <ele>468.3</ele>
        <time>2012-07-17T08:20:24Z</time>
      </trkpt>
      <trkpt lat="44.29555" lon="2.09088">
        <ele>467.34</ele>
        <time>2012-07-17T08:20:26Z</time>
      </trkpt>
      <trkpt lat="44.29516" lon="2.09101">
        <ele>465.42</ele>
        <time>2012-07-17T08:20:30Z</time>
      </trkpt>
      <trkpt lat="44.29498" lon="2.09111">
        <ele>464.93</ele>
        <time>2012-07-17T08:20:32Z</time>
      </trkpt>
      <trkpt lat="44.29468" lon="2.09095">
        <ele>464.45</ele>
        <time>2012-07-17T08:20:37Z</time>
      </trkpt>
      <trkpt lat="44.29471" lon="2.09064">
        <ele>465.42</ele>
        <time>2012-07-17T08:20:41Z</time>
      </trkpt>
      <trkpt lat="44.29473" lon="2.09022">
        <ele>467.34</ele>
        <time>2012-07-17T08:20:55Z</time>
      </trkpt>
      <trkpt lat="44.29455" lon="2.08969">
        <ele>469.74</ele>
        <time>2012-07-17T08:21:15Z</time>
      </trkpt>
      <trkpt lat="44.29434" lon="2.08934">
        <ele>471.66</ele>
        <time>2012-07-17T08:21:31Z</time>
      </trkpt>
      <trkpt lat="44.29404" lon="2.08913">
        <ele>474.07</ele>
        <time>2012-07-17T08:21:49Z</time>
      </trkpt>
      <trkpt lat="44.29366" lon="2.08928">
        <ele>476.47</ele>
        <time>2012-07-17T08:22:10Z</time>
      </trkpt>
      <trkpt lat="44.2934" lon="2.08966">
        <ele>478.87</ele>
        <time>2012-07-17T08:22:31Z</time>
      </trkpt>
      <trkpt lat="44.29325" lon="2.09024">
        <ele>481.76</ele>
        <time>2012-07-17T08:22:54Z</time>
      </trkpt>
      <trkpt lat="44.29298" lon="2.09058">
        <ele>484.16</ele>
        <time>2012-07-17T08:23:13Z</time>
      </trkpt>
      <trkpt lat="44.29268" lon="2.09062">
        <ele>486.08</ele>
        <time>2012-07-17T08:23:30Z</time>
      </trkpt>
      <trkpt lat="44.29229" lon="2.09065">
        <ele>488.97</ele>
        <time>2012-07-17T08:23:52Z</time>
      </trkpt>
      <trkpt lat="44.29201" lon="2.0908">
        <ele>490.41</ele>
        <time>2012-07-17T08:24:08Z</time>
      </trkpt>
      <trkpt lat="44.2917" lon="2.09117">
        <ele>490.41</ele>
        <time>2012-07-17T08:24:22Z</time>
      </trkpt>
      <trkpt lat="44.29087" lon="2.09208">
        <ele>489.93</ele>
        <time>2012-07-17T08:24:45Z</time>
      </trkpt>
      <trkpt lat="44.29011" lon="2.09279">
        <ele>489.45</ele>
        <time>2012-07-17T08:25:04Z</time>
      </trkpt>
      <trkpt lat="44.28955" lon="2.09377">
        <ele>488.01</ele>
        <time>2012-07-17T08:25:20Z</time>
      </trkpt>
      <trkpt lat="44.28905" lon="2.09471">
        <ele>486.08</ele>
        <time>2012-07-17T08:25:32Z</time>
      </trkpt>
      <trkpt lat="44.28881" lon="2.095">
        <ele>484.64</ele>
        <time>2012-07-17T08:25:36Z</time>
      </trkpt>
      <trkpt lat="44.28775" lon="2.09562">
        <ele>481.28</ele>
        <time>2012-07-17T08:25:50Z</time>
      </trkpt>
      <trkpt lat="44.2871" lon="2.09648">
        <ele>480.8</ele>
        <time>2012-07-17T08:26:02Z</time>
      </trkpt>
      <trkpt lat="44.28667" lon="2.09713">
        <ele>477.43</ele>
        <time>2012-07-17T08:26:09Z</time>
      </trkpt>
      <trkpt lat="44.28625" lon="2.09762">
        <ele>473.59</ele>
        <time>2012-07-17T08:26:14Z</time>
      </trkpt>
      <trkpt lat="44.28598" lon="2.09796">
        <ele>471.66</ele>
        <time>2012-07-17T08:26:17Z</time>
      </trkpt>
      <trkpt lat="44.2858" lon="2.09817">
        <ele>469.74</ele>
        <time>2012-07-17T08:26:19Z</time>
      </trkpt>
      <trkpt lat="44.28536" lon="2.09851">
        <ele>465.42</ele>
        <time>2012-07-17T08:26:23Z</time>
      </trkpt>
      <trkpt lat="44.28501" lon="2.09873">
        <ele>461.57</ele>
        <time>2012-07-17T08:26:26Z</time>
      </trkpt>
      <trkpt lat="44.28489" lon="2.09881">
        <ele>461.57</ele>
        <time>2012-07-17T08:26:27Z</time>
      </trkpt>
      <trkpt lat="44.2844" lon="2.09906">
        <ele>458.69</ele>
        <time>2012-07-17T08:26:31Z</time>
      </trkpt>
      <trkpt lat="44.28403" lon="2.09928">
        <ele>455.32</ele>
        <time>2012-07-17T08:26:34Z</time>
      </trkpt>
      <trkpt lat="44.28373" lon="2.09959">
        <ele>453.4</ele>
        <time>2012-07-17T08:26:37Z</time>
      </trkpt>
      <trkpt lat="44.28307" lon="2.10035">
        <ele>454.36</ele>
        <time>2012-07-17T08:26:46Z</time>
      </trkpt>
      <trkpt lat="44.28272" lon="2.10058">
        <ele>457.24</ele>
        <time>2012-07-17T08:26:54Z</time>
      </trkpt>
      <trkpt lat="44.28236" lon="2.10078">
        <ele>459.17</ele>
        <time>2012-07-17T08:27:09Z</time>
      </trkpt>
      <trkpt lat="44.28198" lon="2.10093">
        <ele>458.21</ele>
        <time>2012-07-17T08:27:22Z</time>
      </trkpt>
      <trkpt lat="44.28189" lon="2.10095">
        <ele>458.21</ele>
        <time>2012-07-17T08:27:26Z</time>
      </trkpt>
      <trkpt lat="44.28185" lon="2.10086">
        <ele>458.69</ele>
        <time>2012-07-17T08:27:40Z</time>
      </trkpt>
      <trkpt lat="44.28186" lon="2.10088">
        <ele>458.21</ele>
        <time>2012-07-17T08:27:58Z</time>
      </trkpt>
      <trkpt lat="44.28188" lon="2.1009">
        <ele>458.21</ele>
        <time>2012-07-17T08:28:20Z</time>
      </trkpt>
      <trkpt lat="44.28187" lon="2.10088">
        <ele>458.21</ele>
        <time>2012-07-17T08:29:50Z</time>
      </trkpt>
      <trkpt lat="44.28188" lon="2.10088">
        <ele>457.24</ele>
        <time>2012-07-17T08:30:04Z</time>
      </trkpt>
      <trkpt lat="44.28187" lon="2.10086">
        <ele>458.21</ele>
        <time>2012-07-17T08:30:24Z</time>
      </trkpt>
      <trkpt lat="44.28185" lon="2.10087">
        <ele>458.69</ele>
        <time>2012-07-17T08:30:36Z</time>
      </trkpt>
      <trkpt lat="44.28185" lon="2.10088">
        <ele>458.69</ele>
        <time>2012-07-17T08:30:55Z</time>
      </trkpt>
      <trkpt lat="44.28185" lon="2.10088">
        <ele>458.21</ele>
        <time>2012-07-17T08:30:59Z</time>
      </trkpt>
      <trkpt lat="44.28159" lon="2.101">
        <ele>458.69</ele>
        <time>2012-07-17T08:31:12Z</time>
      </trkpt>
      <trkpt lat="44.28108" lon="2.10102">
        <ele>460.61</ele>
        <time>2012-07-17T08:31:30Z</time>
      </trkpt>
      <trkpt lat="44.2806" lon="2.10101">
        <ele>462.53</ele>
        <time>2012-07-17T08:31:48Z</time>
      </trkpt>
      <trkpt lat="44.28024" lon="2.10063">
        <ele>464.45</ele>
        <time>2012-07-17T08:32:05Z</time>
      </trkpt>
      <trkpt lat="44.27978" lon="2.10008">
        <ele>466.38</ele>
        <time>2012-07-17T08:32:26Z</time>
      </trkpt>
      <trkpt lat="44.27932" lon="2.09977">
        <ele>467.82</ele>
        <time>2012-07-17T08:32:42Z</time>
      </trkpt>
      <trkpt lat="44.27866" lon="2.09959">
        <ele>467.82</ele>
        <time>2012-07-17T08:33:00Z</time>
      </trkpt>
      <trkpt lat="44.27789" lon="2.09936">
        <ele>468.3</ele>
        <time>2012-07-17T08:33:21Z</time>
      </trkpt>
      <trkpt lat="44.27724" lon="2.09933">
        <ele>468.3</ele>
        <time>2012-07-17T08:33:40Z</time>
      </trkpt>
      <trkpt lat="44.27704" lon="2.09952">
        <ele>467.82</ele>
        <time>2012-07-17T08:33:48Z</time>
      </trkpt>
      <trkpt lat="44.2764" lon="2.10033">
        <ele>466.38</ele>
        <time>2012-07-17T08:34:04Z</time>
      </trkpt>
      <trkpt lat="44.27619" lon="2.1006">
        <ele>465.9</ele>
        <time>2012-07-17T08:34:09Z</time>
      </trkpt>
      <trkpt lat="44.27572" lon="2.10072">
        <ele>465.9</ele>
        <time>2012-07-17T08:34:18Z</time>
      </trkpt>
      <trkpt lat="44.2753" lon="2.10036">
        <ele>468.78</ele>
        <time>2012-07-17T08:34:31Z</time>
      </trkpt>
      <trkpt lat="44.27499" lon="2.10018">
        <ele>470.22</ele>
        <time>2012-07-17T08:34:41Z</time>
      </trkpt>
      <trkpt lat="44.27459" lon="2.10026">
        <ele>473.11</ele>
        <time>2012-07-17T08:34:54Z</time>
      </trkpt>
      <trkpt lat="44.27404" lon="2.10053">
        <ele>475.51</ele>
        <time>2012-07-17T08:35:12Z</time>
      </trkpt>
      <trkpt lat="44.27342" lon="2.10088">
        <ele>478.39</ele>
        <time>2012-07-17T08:35:33Z</time>
      </trkpt>
      <trkpt lat="44.27283" lon="2.10095">
        <ele>480.32</ele>
        <time>2012-07-17T08:35:52Z</time>
      </trkpt>
      <trkpt lat="44.27278" lon="2.10095">
        <ele>479.84</ele>
        <time>2012-07-17T08:35:53Z</time>
      </trkpt>
      <trkpt lat="44.27231" lon="2.10115">
        <ele>475.99</ele>
        <time>2012-07-17T08:36:00Z</time>
      </trkpt>
      <trkpt lat="44.27187" lon="2.10132">
        <ele>473.11</ele>
        <time>2012-07-17T08:36:05Z</time>
      </trkpt>
      <trkpt lat="44.27177" lon="2.10134">
        <ele>473.11</ele>
        <time>2012-07-17T08:36:06Z</time>
      </trkpt>
      <trkpt lat="44.27146" lon="2.10142">
        <ele>470.7</ele>
        <time>2012-07-17T08:36:09Z</time>
      </trkpt>
      <trkpt lat="44.27114" lon="2.10159">
        <ele>467.34</ele>
        <time>2012-07-17T08:36:12Z</time>
      </trkpt>
      <trkpt lat="44.2708" lon="2.10179">
        <ele>464.93</ele>
        <time>2012-07-17T08:36:15Z</time>
      </trkpt>
      <trkpt lat="44.27046" lon="2.10201">
        <ele>461.57</ele>
        <time>2012-07-17T08:36:18Z</time>
      </trkpt>
      <trkpt lat="44.27003" lon="2.1023">
        <ele>457.72</ele>
        <time>2012-07-17T08:36:22Z</time>
      </trkpt>
      <trkpt lat="44.26973" lon="2.10252">
        <ele>456.28</ele>
        <time>2012-07-17T08:36:25Z</time>
      </trkpt>
      <trkpt lat="44.26918" lon="2.10292">
        <ele>454.36</ele>
        <time>2012-07-17T08:36:31Z</time>
      </trkpt>
      <trkpt lat="44.26874" lon="2.10314">
        <ele>454.84</ele>
        <time>2012-07-17T08:36:37Z</time>
      </trkpt>
      <trkpt lat="44.26845" lon="2.10321">
        <ele>458.69</ele>
        <time>2012-07-17T08:36:45Z</time>
      </trkpt>
      <trkpt lat="44.26816" lon="2.10308">
        <ele>461.57</ele>
        <time>2012-07-17T08:37:00Z</time>
      </trkpt>
      <trkpt lat="44.26789" lon="2.10291">
        <ele>464.93</ele>
        <time>2012-07-17T08:37:17Z</time>
      </trkpt>
      <trkpt lat="44.26764" lon="2.10289">
        <ele>467.82</ele>
        <time>2012-07-17T08:37:33Z</time>
      </trkpt>
      <trkpt lat="44.26739" lon="2.10302">
        <ele>470.22</ele>
        <time>2012-07-17T08:37:50Z</time>
      </trkpt>
      <trkpt lat="44.26715" lon="2.10319">
        <ele>472.63</ele>
        <time>2012-07-17T08:38:08Z</time>
      </trkpt>
      <trkpt lat="44.26693" lon="2.10341">
        <ele>475.51</ele>
        <time>2012-07-17T08:38:26Z</time>
      </trkpt>
      <trkpt lat="44.26677" lon="2.10369">
        <ele>478.39</ele>
        <time>2012-07-17T08:38:44Z</time>
      </trkpt>
      <trkpt lat="44.2667" lon="2.10388">
        <ele>479.84</ele>
        <time>2012-07-17T08:38:54Z</time>
      </trkpt>
      <trkpt lat="44.26665" lon="2.10399">
        <ele>480.8</ele>
        <time>2012-07-17T08:39:00Z</time>
      </trkpt>
      <trkpt lat="44.26651" lon="2.10436">
        <ele>483.68</ele>
        <time>2012-07-17T08:39:18Z</time>
      </trkpt>
      <trkpt lat="44.26638" lon="2.10461">
        <ele>486.08</ele>
        <time>2012-07-17T08:39:33Z</time>
      </trkpt>
      <trkpt lat="44.26616" lon="2.10482">
        <ele>488.49</ele>
        <time>2012-07-17T08:39:49Z</time>
      </trkpt>
      <trkpt lat="44.26599" lon="2.10498">
        <ele>490.89</ele>
        <time>2012-07-17T08:40:02Z</time>
      </trkpt>
      <trkpt lat="44.26575" lon="2.10518">
        <ele>493.29</ele>
        <time>2012-07-17T08:40:20Z</time>
      </trkpt>
      <trkpt lat="44.26549" lon="2.10538">
        <ele>496.66</ele>
        <time>2012-07-17T08:40:40Z</time>
      </trkpt>
      <trkpt lat="44.26523" lon="2.10551">
        <ele>498.58</ele>
        <time>2012-07-17T08:40:59Z</time>
      </trkpt>
      <trkpt lat="44.2649" lon="2.10556">
        <ele>498.1</ele>
        <time>2012-07-17T08:41:13Z</time>
      </trkpt>
      <trkpt lat="44.26438" lon="2.10559">
        <ele>494.74</ele>
        <time>2012-07-17T08:41:19Z</time>
      </trkpt>
      <trkpt lat="44.2639" lon="2.10589">
        <ele>489.93</ele>
        <time>2012-07-17T08:41:24Z</time>
      </trkpt>
      <trkpt lat="44.26373" lon="2.10607">
        <ele>488.01</ele>
        <time>2012-07-17T08:41:26Z</time>
      </trkpt>
      <trkpt lat="44.26357" lon="2.10627">
        <ele>487.05</ele>
        <time>2012-07-17T08:41:28Z</time>
      </trkpt>
      <trkpt lat="44.26337" lon="2.1064">
        <ele>485.12</ele>
        <time>2012-07-17T08:41:30Z</time>
      </trkpt>
      <trkpt lat="44.26281" lon="2.10662">
        <ele>480.32</ele>
        <time>2012-07-17T08:41:35Z</time>
      </trkpt>
      <trkpt lat="44.26258" lon="2.10673">
        <ele>479.35</ele>
        <time>2012-07-17T08:41:37Z</time>
      </trkpt>
      <trkpt lat="44.26212" lon="2.10695">
        <ele>475.99</ele>
        <time>2012-07-17T08:41:41Z</time>
      </trkpt>
      <trkpt lat="44.26178" lon="2.10712">
        <ele>472.63</ele>
        <time>2012-07-17T08:41:44Z</time>
      </trkpt>
      <trkpt lat="44.26154" lon="2.10723">
        <ele>471.66</ele>
        <time>2012-07-17T08:41:46Z</time>
      </trkpt>
      <trkpt lat="44.26119" lon="2.10739">
        <ele>468.78</ele>
        <time>2012-07-17T08:41:49Z</time>
      </trkpt>
      <trkpt lat="44.26094" lon="2.1075">
        <ele>466.38</ele>
        <time>2012-07-17T08:41:51Z</time>
      </trkpt>
      <trkpt lat="44.26071" lon="2.10762">
        <ele>464.45</ele>
        <time>2012-07-17T08:41:53Z</time>
      </trkpt>
      <trkpt lat="44.2605" lon="2.10776">
        <ele>462.53</ele>
        <time>2012-07-17T08:41:55Z</time>
      </trkpt>
      <trkpt lat="44.26004" lon="2.10855">
        <ele>463.97</ele>
        <time>2012-07-17T08:42:03Z</time>
      </trkpt>
      <trkpt lat="44.25982" lon="2.10895">
        <ele>466.86</ele>
        <time>2012-07-17T08:42:11Z</time>
      </trkpt>
      <trkpt lat="44.25963" lon="2.10932">
        <ele>469.26</ele>
        <time>2012-07-17T08:42:25Z</time>
      </trkpt>
      <trkpt lat="44.25933" lon="2.10964">
        <ele>472.14</ele>
        <time>2012-07-17T08:42:44Z</time>
      </trkpt>
      <trkpt lat="44.25904" lon="2.10988">
        <ele>472.63</ele>
        <time>2012-07-17T08:43:00Z</time>
      </trkpt>
      <trkpt lat="44.25891" lon="2.11006">
        <ele>472.14</ele>
        <time>2012-07-17T08:43:05Z</time>
      </trkpt>
      <trkpt lat="44.25872" lon="2.11049">
        <ele>470.7</ele>
        <time>2012-07-17T08:43:12Z</time>
      </trkpt>
      <trkpt lat="44.25838" lon="2.11105">
        <ele>467.82</ele>
        <time>2012-07-17T08:43:19Z</time>
      </trkpt>
      <trkpt lat="44.25807" lon="2.11194">
        <ele>463.97</ele>
        <time>2012-07-17T08:43:27Z</time>
      </trkpt>
      <trkpt lat="44.25802" lon="2.11247">
        <ele>462.53</ele>
        <time>2012-07-17T08:43:31Z</time>
      </trkpt>
      <trkpt lat="44.25775" lon="2.11339">
        <ele>458.69</ele>
        <time>2012-07-17T08:43:38Z</time>
      </trkpt>
      <trkpt lat="44.25745" lon="2.11421">
        <ele>455.32</ele>
        <time>2012-07-17T08:43:44Z</time>
      </trkpt>
      <trkpt lat="44.25738" lon="2.1148">
        <ele>453.4</ele>
        <time>2012-07-17T08:43:48Z</time>
      </trkpt>
      <trkpt lat="44.25741" lon="2.11524">
        <ele>451</ele>
        <time>2012-07-17T08:43:51Z</time>
      </trkpt>
      <trkpt lat="44.25716" lon="2.1158">
        <ele>449.07</ele>
        <time>2012-07-17T08:43:56Z</time>
      </trkpt>
      <trkpt lat="44.25689" lon="2.11595">
        <ele>448.59</ele>
        <time>2012-07-17T08:43:59Z</time>
      </trkpt>
      <trkpt lat="44.2567" lon="2.11614">
        <ele>448.59</ele>
        <time>2012-07-17T08:44:02Z</time>
      </trkpt>
      <trkpt lat="44.25647" lon="2.11661">
        <ele>448.59</ele>
        <time>2012-07-17T08:44:08Z</time>
      </trkpt>
      <trkpt lat="44.25637" lon="2.11678">
        <ele>448.59</ele>
        <time>2012-07-17T08:44:11Z</time>
      </trkpt>
      <trkpt lat="44.25616" lon="2.11682">
        <ele>448.11</ele>
        <time>2012-07-17T08:44:19Z</time>
      </trkpt>
      <trkpt lat="44.25593" lon="2.11653">
        <ele>446.19</ele>
        <time>2012-07-17T08:44:26Z</time>
      </trkpt>
      <trkpt lat="44.25552" lon="2.11639">
        <ele>442.82</ele>
        <time>2012-07-17T08:44:32Z</time>
      </trkpt>
      <trkpt lat="44.25525" lon="2.11644">
        <ele>440.9</ele>
        <time>2012-07-17T08:44:35Z</time>
      </trkpt>
      <trkpt lat="44.25481" lon="2.11641">
        <ele>437.54</ele>
        <time>2012-07-17T08:44:41Z</time>
      </trkpt>
      <trkpt lat="44.25465" lon="2.11642">
        <ele>434.17</ele>
        <time>2012-07-17T08:44:49Z</time>
      </trkpt>
      <trkpt lat="44.25453" lon="2.11647">
        <ele>432.73</ele>
        <time>2012-07-17T08:44:54Z</time>
      </trkpt>
      <trkpt lat="44.25425" lon="2.1172">
        <ele>429.85</ele>
        <time>2012-07-17T08:45:05Z</time>
      </trkpt>
      <trkpt lat="44.25353" lon="2.11842">
        <ele>427.44</ele>
        <time>2012-07-17T08:45:21Z</time>
      </trkpt>
      <trkpt lat="44.2527" lon="2.11924">
        <ele>424.08</ele>
        <time>2012-07-17T08:45:38Z</time>
      </trkpt>
      <trkpt lat="44.25208" lon="2.11998">
        <ele>420.71</ele>
        <time>2012-07-17T08:45:48Z</time>
      </trkpt>
      <trkpt lat="44.25159" lon="2.12078">
        <ele>417.35</ele>
        <time>2012-07-17T08:45:56Z</time>
      </trkpt>
      <trkpt lat="44.25132" lon="2.12126">
        <ele>413.98</ele>
        <time>2012-07-17T08:46:00Z</time>
      </trkpt>
      <trkpt lat="44.25126" lon="2.12139">
        <ele>413.02</ele>
        <time>2012-07-17T08:46:01Z</time>
      </trkpt>
      <trkpt lat="44.25115" lon="2.12165">
        <ele>412.06</ele>
        <time>2012-07-17T08:46:03Z</time>
      </trkpt>
      <trkpt lat="44.25109" lon="2.12194">
        <ele>410.14</ele>
        <time>2012-07-17T08:46:05Z</time>
      </trkpt>
      <trkpt lat="44.25105" lon="2.12258">
        <ele>405.81</ele>
        <time>2012-07-17T08:46:09Z</time>
      </trkpt>
      <trkpt lat="44.25104" lon="2.12273">
        <ele>404.37</ele>
        <time>2012-07-17T08:46:10Z</time>
      </trkpt>
      <trkpt lat="44.25095" lon="2.12307">
        <ele>401.97</ele>
        <time>2012-07-17T08:46:13Z</time>
      </trkpt>
      <trkpt lat="44.25062" lon="2.12302">
        <ele>398.6</ele>
        <time>2012-07-17T08:46:17Z</time>
      </trkpt>
      <trkpt lat="44.25057" lon="2.12277">
        <ele>396.68</ele>
        <time>2012-07-17T08:46:19Z</time>
      </trkpt>
      <trkpt lat="44.25058" lon="2.12251">
        <ele>395.24</ele>
        <time>2012-07-17T08:46:21Z</time>
      </trkpt>
      <trkpt lat="44.2504" lon="2.1223">
        <ele>393.32</ele>
        <time>2012-07-17T08:46:25Z</time>
      </trkpt>
      <trkpt lat="44.25023" lon="2.12234">
        <ele>392.36</ele>
        <time>2012-07-17T08:46:27Z</time>
      </trkpt>
      <trkpt lat="44.24984" lon="2.1224">
        <ele>391.87</ele>
        <time>2012-07-17T08:46:33Z</time>
      </trkpt>
      <trkpt lat="44.24962" lon="2.12234">
        <ele>392.36</ele>
        <time>2012-07-17T08:46:37Z</time>
      </trkpt>
      <trkpt lat="44.24931" lon="2.12192">
        <ele>394.28</ele>
        <time>2012-07-17T08:46:50Z</time>
      </trkpt>
      <trkpt lat="44.24916" lon="2.12135">
        <ele>397.64</ele>
        <time>2012-07-17T08:47:10Z</time>
      </trkpt>
      <trkpt lat="44.24915" lon="2.12092">
        <ele>399.57</ele>
        <time>2012-07-17T08:47:28Z</time>
      </trkpt>
      <trkpt lat="44.24915" lon="2.12078">
        <ele>400.53</ele>
        <time>2012-07-17T08:47:44Z</time>
      </trkpt>
      <trkpt lat="44.24914" lon="2.1208">
        <ele>400.53</ele>
        <time>2012-07-17T08:47:46Z</time>
      </trkpt>
      <trkpt lat="44.24913" lon="2.1209">
        <ele>400.05</ele>
        <time>2012-07-17T08:47:57Z</time>
      </trkpt>
      <trkpt lat="44.24913" lon="2.12087">
        <ele>399.57</ele>
        <time>2012-07-17T08:48:17Z</time>
      </trkpt>
      <trkpt lat="44.24913" lon="2.12092">
        <ele>399.08</ele>
        <time>2012-07-17T08:50:30Z</time>
      </trkpt>
      <trkpt lat="44.24913" lon="2.12092">
        <ele>399.08</ele>
        <time>2012-07-17T08:51:17Z</time>
      </trkpt>
      <trkpt lat="44.24916" lon="2.12092">
        <ele>399.08</ele>
        <time>2012-07-17T08:51:23Z</time>
      </trkpt>
      <trkpt lat="44.2492" lon="2.12091">
        <ele>398.6</ele>
        <time>2012-07-17T08:51:37Z</time>
      </trkpt>
      <trkpt lat="44.24919" lon="2.1209">
        <ele>398.6</ele>
        <time>2012-07-17T08:51:58Z</time>
      </trkpt>
      <trkpt lat="44.24919" lon="2.1209">
        <ele>399.08</ele>
        <time>2012-07-17T08:52:11Z</time>
      </trkpt>
      <trkpt lat="44.24917" lon="2.12089">
        <ele>399.57</ele>
        <time>2012-07-17T08:52:22Z</time>
      </trkpt>
      <trkpt lat="44.24911" lon="2.12074">
        <ele>400.05</ele>
        <time>2012-07-17T08:52:40Z</time>
      </trkpt>
      <trkpt lat="44.24907" lon="2.12059">
        <ele>401.01</ele>
        <time>2012-07-17T08:52:57Z</time>
      </trkpt>
      <trkpt lat="44.24905" lon="2.12044">
        <ele>401.49</ele>
        <time>2012-07-17T08:53:03Z</time>
      </trkpt>
      <trkpt lat="44.249" lon="2.12015">
        <ele>402.45</ele>
        <time>2012-07-17T08:53:15Z</time>
      </trkpt>
      <trkpt lat="44.24893" lon="2.11985">
        <ele>404.37</ele>
        <time>2012-07-17T08:53:29Z</time>
      </trkpt>
      <trkpt lat="44.24872" lon="2.11946">
        <ele>406.77</ele>
        <time>2012-07-17T08:53:50Z</time>
      </trkpt>
      <trkpt lat="44.24845" lon="2.11916">
        <ele>408.7</ele>
        <time>2012-07-17T08:54:10Z</time>
      </trkpt>
      <trkpt lat="44.24818" lon="2.11901">
        <ele>410.14</ele>
        <time>2012-07-17T08:54:26Z</time>
      </trkpt>
      <trkpt lat="44.2479" lon="2.11889">
        <ele>412.06</ele>
        <time>2012-07-17T08:54:44Z</time>
      </trkpt>
      <trkpt lat="44.24766" lon="2.11878">
        <ele>414.47</ele>
        <time>2012-07-17T08:55:00Z</time>
      </trkpt>
      <trkpt lat="44.24745" lon="2.11867">
        <ele>415.91</ele>
        <time>2012-07-17T08:55:15Z</time>
      </trkpt>
      <trkpt lat="44.24718" lon="2.11852">
        <ele>417.83</ele>
        <time>2012-07-17T08:55:32Z</time>
      </trkpt>
      <trkpt lat="44.24691" lon="2.11851">
        <ele>420.71</ele>
        <time>2012-07-17T08:55:51Z</time>
      </trkpt>
      <trkpt lat="44.24685" lon="2.11874">
        <ele>422.16</ele>
        <time>2012-07-17T08:56:06Z</time>
      </trkpt>
      <trkpt lat="44.24704" lon="2.11893">
        <ele>425.52</ele>
        <time>2012-07-17T08:56:24Z</time>
      </trkpt>
      <trkpt lat="44.24709" lon="2.11896">
        <ele>425.52</ele>
        <time>2012-07-17T08:56:28Z</time>
      </trkpt>
      <trkpt lat="44.24725" lon="2.11908">
        <ele>427.44</ele>
        <time>2012-07-17T08:56:41Z</time>
      </trkpt>
      <trkpt lat="44.24736" lon="2.1192">
        <ele>428.4</ele>
        <time>2012-07-17T08:56:52Z</time>
      </trkpt>
      <trkpt lat="44.24752" lon="2.11945">
        <ele>430.33</ele>
        <time>2012-07-17T08:57:08Z</time>
      </trkpt>
      <trkpt lat="44.24771" lon="2.11981">
        <ele>433.21</ele>
        <time>2012-07-17T08:57:30Z</time>
      </trkpt>
      <trkpt lat="44.24771" lon="2.1202">
        <ele>436.1</ele>
        <time>2012-07-17T08:57:50Z</time>
      </trkpt>
      <trkpt lat="44.24756" lon="2.12057">
        <ele>439.46</ele>
        <time>2012-07-17T08:58:11Z</time>
      </trkpt>
      <trkpt lat="44.24747" lon="2.12079">
        <ele>440.42</ele>
        <time>2012-07-17T08:58:23Z</time>
      </trkpt>
      <trkpt lat="44.2473" lon="2.12119">
        <ele>441.38</ele>
        <time>2012-07-17T08:58:40Z</time>
      </trkpt>
      <trkpt lat="44.24701" lon="2.1217">
        <ele>442.82</ele>
        <time>2012-07-17T08:58:57Z</time>
      </trkpt>
      <trkpt lat="44.24665" lon="2.12229">
        <ele>444.27</ele>
        <time>2012-07-17T08:59:17Z</time>
      </trkpt>
      <trkpt lat="44.2464" lon="2.12307">
        <ele>445.23</ele>
        <time>2012-07-17T08:59:37Z</time>
      </trkpt>
      <trkpt lat="44.24643" lon="2.12384">
        <ele>447.63</ele>
        <time>2012-07-17T08:59:55Z</time>
      </trkpt>
      <trkpt lat="44.24663" lon="2.12445">
        <ele>450.03</ele>
        <time>2012-07-17T09:00:15Z</time>
      </trkpt>
      <trkpt lat="44.2469" lon="2.12478">
        <ele>452.92</ele>
        <time>2012-07-17T09:00:36Z</time>
      </trkpt>
      <trkpt lat="44.24677" lon="2.12512">
        <ele>455.8</ele>
        <time>2012-07-17T09:00:51Z</time>
      </trkpt>
      <trkpt lat="44.2464" lon="2.1256">
        <ele>458.69</ele>
        <time>2012-07-17T09:01:18Z</time>
      </trkpt>
      <trkpt lat="44.24612" lon="2.12598">
        <ele>460.61</ele>
        <time>2012-07-17T09:01:39Z</time>
      </trkpt>
      <trkpt lat="44.24584" lon="2.12633">
        <ele>463.97</ele>
        <time>2012-07-17T09:02:01Z</time>
      </trkpt>
      <trkpt lat="44.24545" lon="2.12658">
        <ele>464.93</ele>
        <time>2012-07-17T09:02:18Z</time>
      </trkpt>
      <trkpt lat="44.24505" lon="2.12707">
        <ele>465.9</ele>
        <time>2012-07-17T09:02:37Z</time>
      </trkpt>
      <trkpt lat="44.24463" lon="2.1277">
        <ele>466.38</ele>
        <time>2012-07-17T09:02:59Z</time>
      </trkpt>
      <trkpt lat="44.24416" lon="2.12821">
        <ele>466.86</ele>
        <time>2012-07-17T09:03:17Z</time>
      </trkpt>
      <trkpt lat="44.24364" lon="2.12884">
        <ele>467.82</ele>
        <time>2012-07-17T09:03:41Z</time>
      </trkpt>
      <trkpt lat="44.24335" lon="2.1293">
        <ele>468.78</ele>
        <time>2012-07-17T09:03:57Z</time>
      </trkpt>
      <trkpt lat="44.24303" lon="2.12986">
        <ele>471.18</ele>
        <time>2012-07-17T09:04:20Z</time>
      </trkpt>
      <trkpt lat="44.24276" lon="2.13023">
        <ele>473.59</ele>
        <time>2012-07-17T09:04:40Z</time>
      </trkpt>
      <trkpt lat="44.24248" lon="2.13056">
        <ele>476.47</ele>
        <time>2012-07-17T09:05:00Z</time>
      </trkpt>
      <trkpt lat="44.24223" lon="2.13096">
        <ele>479.35</ele>
        <time>2012-07-17T09:05:21Z</time>
      </trkpt>
      <trkpt lat="44.24207" lon="2.13145">
        <ele>481.76</ele>
        <time>2012-07-17T09:05:41Z</time>
      </trkpt>
      <trkpt lat="44.24187" lon="2.13204">
        <ele>484.64</ele>
        <time>2012-07-17T09:06:07Z</time>
      </trkpt>
      <trkpt lat="44.2417" lon="2.13255">
        <ele>487.53</ele>
        <time>2012-07-17T09:06:29Z</time>
      </trkpt>
      <trkpt lat="44.2416" lon="2.13301">
        <ele>490.41</ele>
        <time>2012-07-17T09:06:49Z</time>
      </trkpt>
      <trkpt lat="44.24158" lon="2.1331">
        <ele>490.89</ele>
        <time>2012-07-17T09:06:53Z</time>
      </trkpt>
      <trkpt lat="44.24152" lon="2.13344">
        <ele>492.81</ele>
        <time>2012-07-17T09:07:06Z</time>
      </trkpt>
      <trkpt lat="44.24142" lon="2.134">
        <ele>495.22</ele>
        <time>2012-07-17T09:07:28Z</time>
      </trkpt>
      <trkpt lat="44.24127" lon="2.13442">
        <ele>498.1</ele>
        <time>2012-07-17T09:07:47Z</time>
      </trkpt>
      <trkpt lat="44.24112" lon="2.13479">
        <ele>501.46</ele>
        <time>2012-07-17T09:08:04Z</time>
      </trkpt>
      <trkpt lat="44.241" lon="2.13517">
        <ele>504.35</ele>
        <time>2012-07-17T09:08:21Z</time>
      </trkpt>
      <trkpt lat="44.24097" lon="2.13561">
        <ele>507.23</ele>
        <time>2012-07-17T09:08:41Z</time>
      </trkpt>
      <trkpt lat="44.24104" lon="2.13596">
        <ele>509.64</ele>
        <time>2012-07-17T09:09:00Z</time>
      </trkpt>
      <trkpt lat="44.2411" lon="2.1363">
        <ele>512.04</ele>
        <time>2012-07-17T09:09:19Z</time>
      </trkpt>
      <trkpt lat="44.24114" lon="2.13642">
        <ele>513.48</ele>
        <time>2012-07-17T09:09:33Z</time>
      </trkpt>
      <trkpt lat="44.24113" lon="2.13648">
        <ele>513.48</ele>
        <time>2012-07-17T09:09:52Z</time>
      </trkpt>
      <trkpt lat="44.2411" lon="2.13649">
        <ele>513</ele>
        <time>2012-07-17T09:10:37Z</time>
      </trkpt>
      <trkpt lat="44.24111" lon="2.13639">
        <ele>513</ele>
        <time>2012-07-17T09:11:07Z</time>
      </trkpt>
      <trkpt lat="44.2411" lon="2.13642">
        <ele>513</ele>
        <time>2012-07-17T09:11:10Z</time>
      </trkpt>
      <trkpt lat="44.24107" lon="2.1365">
        <ele>513</ele>
        <time>2012-07-17T09:11:22Z</time>
      </trkpt>
      <trkpt lat="44.24114" lon="2.13655">
        <ele>512.52</ele>
        <time>2012-07-17T09:11:41Z</time>
      </trkpt>
      <trkpt lat="44.2411" lon="2.13653">
        <ele>512.52</ele>
        <time>2012-07-17T09:12:11Z</time>
      </trkpt>
      <trkpt lat="44.24119" lon="2.1364">
        <ele>512.04</ele>
        <time>2012-07-17T09:12:26Z</time>
      </trkpt>
      <trkpt lat="44.24113" lon="2.13644">
        <ele>511.56</ele>
        <time>2012-07-17T09:12:38Z</time>
      </trkpt>
      <trkpt lat="44.24112" lon="2.13643">
        <ele>511.56</ele>
        <time>2012-07-17T09:12:58Z</time>
      </trkpt>
      <trkpt lat="44.24107" lon="2.13642">
        <ele>511.56</ele>
        <time>2012-07-17T09:13:29Z</time>
      </trkpt>
      <trkpt lat="44.24114" lon="2.13643">
        <ele>511.56</ele>
        <time>2012-07-17T09:14:00Z</time>
      </trkpt>
      <trkpt lat="44.24114" lon="2.13641">
        <ele>511.56</ele>
        <time>2012-07-17T09:14:29Z</time>
      </trkpt>
      <trkpt lat="44.24116" lon="2.13645">
        <ele>511.08</ele>
        <time>2012-07-17T09:15:40Z</time>
      </trkpt>
      <trkpt lat="44.24112" lon="2.13647">
        <ele>511.08</ele>
        <time>2012-07-17T09:16:06Z</time>
      </trkpt>
      <trkpt lat="44.2411" lon="2.13649">
        <ele>511.08</ele>
        <time>2012-07-17T09:16:19Z</time>
      </trkpt>
      <trkpt lat="44.241" lon="2.13633">
        <ele>510.6</ele>
        <time>2012-07-17T09:16:29Z</time>
      </trkpt>
      <trkpt lat="44.24087" lon="2.13606">
        <ele>512.52</ele>
        <time>2012-07-17T09:16:44Z</time>
      </trkpt>
      <trkpt lat="44.24075" lon="2.1358">
        <ele>513.96</ele>
        <time>2012-07-17T09:16:58Z</time>
      </trkpt>
      <trkpt lat="44.2405" lon="2.13556">
        <ele>515.88</ele>
        <time>2012-07-17T09:17:17Z</time>
      </trkpt>
      <trkpt lat="44.24021" lon="2.13549">
        <ele>518.29</ele>
        <time>2012-07-17T09:17:37Z</time>
      </trkpt>
      <trkpt lat="44.2401" lon="2.13551">
        <ele>519.25</ele>
        <time>2012-07-17T09:17:45Z</time>
      </trkpt>
      <trkpt lat="44.23977" lon="2.13545">
        <ele>519.25</ele>
        <time>2012-07-17T09:18:01Z</time>
      </trkpt>
      <trkpt lat="44.23967" lon="2.13539">
        <ele>518.77</ele>
        <time>2012-07-17T09:18:04Z</time>
      </trkpt>
      <trkpt lat="44.2388" lon="2.13468">
        <ele>516.85</ele>
        <time>2012-07-17T09:18:18Z</time>
      </trkpt>
      <trkpt lat="44.23845" lon="2.13438">
        <ele>515.4</ele>
        <time>2012-07-17T09:18:23Z</time>
      </trkpt>
      <trkpt lat="44.23807" lon="2.13393">
        <ele>513.48</ele>
        <time>2012-07-17T09:18:29Z</time>
      </trkpt>
      <trkpt lat="44.23786" lon="2.13344">
        <ele>512.04</ele>
        <time>2012-07-17T09:18:34Z</time>
      </trkpt>
      <trkpt lat="44.23771" lon="2.13251">
        <ele>509.64</ele>
        <time>2012-07-17T09:18:42Z</time>
      </trkpt>
      <trkpt lat="44.23743" lon="2.13204">
        <ele>508.67</ele>
        <time>2012-07-17T09:18:47Z</time>
      </trkpt>
      <trkpt lat="44.2365" lon="2.13154">
        <ele>505.31</ele>
        <time>2012-07-17T09:18:58Z</time>
      </trkpt>
      <trkpt lat="44.23601" lon="2.13125">
        <ele>503.87</ele>
        <time>2012-07-17T09:19:04Z</time>
      </trkpt>
      <trkpt lat="44.23563" lon="2.13071">
        <ele>501.95</ele>
        <time>2012-07-17T09:19:10Z</time>
      </trkpt>
      <trkpt lat="44.2355" lon="2.13054">
        <ele>500.98</ele>
        <time>2012-07-17T09:19:12Z</time>
      </trkpt>
      <trkpt lat="44.23518" lon="2.13034">
        <ele>500.5</ele>
        <time>2012-07-17T09:19:16Z</time>
      </trkpt>
      <trkpt lat="44.23458" lon="2.13024">
        <ele>497.62</ele>
        <time>2012-07-17T09:19:23Z</time>
      </trkpt>
      <trkpt lat="44.23415" lon="2.13025">
        <ele>495.7</ele>
        <time>2012-07-17T09:19:28Z</time>
      </trkpt>
      <trkpt lat="44.2338" lon="2.13014">
        <ele>494.74</ele>
        <time>2012-07-17T09:19:32Z</time>
      </trkpt>
      <trkpt lat="44.23334" lon="2.12973">
        <ele>492.33</ele>
        <time>2012-07-17T09:19:38Z</time>
      </trkpt>
      <trkpt lat="44.23309" lon="2.12959">
        <ele>490.89</ele>
        <time>2012-07-17T09:19:41Z</time>
      </trkpt>
      <trkpt lat="44.23215" lon="2.12909">
        <ele>488.49</ele>
        <time>2012-07-17T09:19:53Z</time>
      </trkpt>
      <trkpt lat="44.23174" lon="2.12837">
        <ele>486.56</ele>
        <time>2012-07-17T09:20:01Z</time>
      </trkpt>
      <trkpt lat="44.23175" lon="2.12812">
        <ele>485.6</ele>
        <time>2012-07-17T09:20:03Z</time>
      </trkpt>
      <trkpt lat="44.23181" lon="2.12777">
        <ele>484.64</ele>
        <time>2012-07-17T09:20:06Z</time>
      </trkpt>
      <trkpt lat="44.23182" lon="2.12732">
        <ele>482.72</ele>
        <time>2012-07-17T09:20:10Z</time>
      </trkpt>
      <trkpt lat="44.23186" lon="2.12608">
        <ele>479.84</ele>
        <time>2012-07-17T09:20:20Z</time>
      </trkpt>
      <trkpt lat="44.23204" lon="2.12549">
        <ele>478.39</ele>
        <time>2012-07-17T09:20:25Z</time>
      </trkpt>
      <trkpt lat="44.2326" lon="2.12456">
        <ele>475.03</ele>
        <time>2012-07-17T09:20:35Z</time>
      </trkpt>
      <trkpt lat="44.23268" lon="2.12419">
        <ele>474.07</ele>
        <time>2012-07-17T09:20:38Z</time>
      </trkpt>
      <trkpt lat="44.23284" lon="2.12331">
        <ele>471.66</ele>
        <time>2012-07-17T09:20:45Z</time>
      </trkpt>
      <trkpt lat="44.23295" lon="2.12284">
        <ele>470.7</ele>
        <time>2012-07-17T09:20:49Z</time>
      </trkpt>
      <trkpt lat="44.23324" lon="2.12131">
        <ele>466.86</ele>
        <time>2012-07-17T09:21:02Z</time>
      </trkpt>
      <trkpt lat="44.2333" lon="2.12082">
        <ele>465.42</ele>
        <time>2012-07-17T09:21:06Z</time>
      </trkpt>
      <trkpt lat="44.23309" lon="2.11995">
        <ele>463.01</ele>
        <time>2012-07-17T09:21:13Z</time>
      </trkpt>
      <trkpt lat="44.23266" lon="2.11922">
        <ele>460.61</ele>
        <time>2012-07-17T09:21:20Z</time>
      </trkpt>
      <trkpt lat="44.23256" lon="2.11875">
        <ele>459.65</ele>
        <time>2012-07-17T09:21:24Z</time>
      </trkpt>
      <trkpt lat="44.2327" lon="2.11796">
        <ele>457.24</ele>
        <time>2012-07-17T09:21:31Z</time>
      </trkpt>
      <trkpt lat="44.23284" lon="2.11768">
        <ele>456.28</ele>
        <time>2012-07-17T09:21:34Z</time>
      </trkpt>
      <trkpt lat="44.2336" lon="2.11653">
        <ele>456.28</ele>
        <time>2012-07-17T09:21:51Z</time>
      </trkpt>
      <trkpt lat="44.23403" lon="2.11581">
        <ele>457.72</ele>
        <time>2012-07-17T09:22:06Z</time>
      </trkpt>
      <trkpt lat="44.23433" lon="2.11519">
        <ele>459.65</ele>
        <time>2012-07-17T09:22:25Z</time>
      </trkpt>
      <trkpt lat="44.23469" lon="2.11466">
        <ele>462.53</ele>
        <time>2012-07-17T09:22:46Z</time>
      </trkpt>
      <trkpt lat="44.23485" lon="2.11431">
        <ele>464.45</ele>
        <time>2012-07-17T09:23:00Z</time>
      </trkpt>
      <trkpt lat="44.23497" lon="2.11432">
        <ele>466.38</ele>
        <time>2012-07-17T09:23:08Z</time>
      </trkpt>
      <trkpt lat="44.23506" lon="2.11427">
        <ele>467.82</ele>
        <time>2012-07-17T09:23:15Z</time>
      </trkpt>
      <trkpt lat="44.23515" lon="2.11396">
        <ele>471.18</ele>
        <time>2012-07-17T09:23:33Z</time>
      </trkpt>
      <trkpt lat="44.23515" lon="2.11393">
        <ele>471.18</ele>
        <time>2012-07-17T09:23:35Z</time>
      </trkpt>
      <trkpt lat="44.23519" lon="2.11388">
        <ele>472.14</ele>
        <time>2012-07-17T09:23:39Z</time>
      </trkpt>
      <trkpt lat="44.2352" lon="2.11381">
        <ele>473.11</ele>
        <time>2012-07-17T09:23:43Z</time>
      </trkpt>
      <trkpt lat="44.23517" lon="2.11366">
        <ele>474.07</ele>
        <time>2012-07-17T09:23:56Z</time>
      </trkpt>
      <trkpt lat="44.2351" lon="2.11347">
        <ele>474.07</ele>
        <time>2012-07-17T09:24:12Z</time>
      </trkpt>
      <trkpt lat="44.23511" lon="2.11343">
        <ele>473.59</ele>
        <time>2012-07-17T09:24:28Z</time>
      </trkpt>
      <trkpt lat="44.23513" lon="2.11335">
        <ele>474.07</ele>
        <time>2012-07-17T09:24:45Z</time>
      </trkpt>
      <trkpt lat="44.2351" lon="2.11341">
        <ele>473.59</ele>
        <time>2012-07-17T09:25:18Z</time>
      </trkpt>
      <trkpt lat="44.23509" lon="2.11344">
        <ele>473.59</ele>
        <time>2012-07-17T09:25:39Z</time>
      </trkpt>
      <trkpt lat="44.23509" lon="2.11343">
        <ele>474.07</ele>
        <time>2012-07-17T09:26:02Z</time>
      </trkpt>
      <trkpt lat="44.2351" lon="2.11337">
        <ele>474.07</ele>
        <time>2012-07-17T09:26:17Z</time>
      </trkpt>
      <trkpt lat="44.23509" lon="2.11335">
        <ele>473.59</ele>
        <time>2012-07-17T09:26:40Z</time>
      </trkpt>
      <trkpt lat="44.2351" lon="2.11337">
        <ele>474.07</ele>
        <time>2012-07-17T09:27:01Z</time>
      </trkpt>
      <trkpt lat="44.23508" lon="2.11341">
        <ele>473.59</ele>
        <time>2012-07-17T09:27:18Z</time>
      </trkpt>
      <trkpt lat="44.2351" lon="2.11343">
        <ele>473.59</ele>
        <time>2012-07-17T09:27:40Z</time>
      </trkpt>
      <trkpt lat="44.2351" lon="2.11342">
        <ele>473.59</ele>
        <time>2012-07-17T09:27:47Z</time>
      </trkpt>
      <trkpt lat="44.23508" lon="2.11348">
        <ele>474.07</ele>
        <time>2012-07-17T09:28:03Z</time>
      </trkpt>
      <trkpt lat="44.23508" lon="2.11349">
        <ele>473.59</ele>
        <time>2012-07-17T09:28:30Z</time>
      </trkpt>
      <trkpt lat="44.23507" lon="2.11348">
        <ele>474.07</ele>
        <time>2012-07-17T09:28:51Z</time>
      </trkpt>
      <trkpt lat="44.23507" lon="2.11348">
        <ele>474.07</ele>
        <time>2012-07-17T09:29:01Z</time>
      </trkpt>
      <trkpt lat="44.2351" lon="2.11347">
        <ele>473.59</ele>
        <time>2012-07-17T09:29:06Z</time>
      </trkpt>
      <trkpt lat="44.23512" lon="2.11349">
        <ele>473.59</ele>
        <time>2012-07-17T09:29:08Z</time>
      </trkpt>
      <trkpt lat="44.23513" lon="2.11352">
        <ele>473.59</ele>
        <time>2012-07-17T09:29:10Z</time>
      </trkpt>
      <trkpt lat="44.23514" lon="2.11359">
        <ele>474.07</ele>
        <time>2012-07-17T09:29:14Z</time>
      </trkpt>
      <trkpt lat="44.23516" lon="2.11368">
        <ele>474.07</ele>
        <time>2012-07-17T09:29:32Z</time>
      </trkpt>
      <trkpt lat="44.23526" lon="2.1137">
        <ele>473.11</ele>
        <time>2012-07-17T09:30:58Z</time>
      </trkpt>
      <trkpt lat="44.23533" lon="2.11369">
        <ele>472.63</ele>
        <time>2012-07-17T09:31:19Z</time>
      </trkpt>
      <trkpt lat="44.23535" lon="2.11358">
        <ele>473.11</ele>
        <time>2012-07-17T09:31:29Z</time>
      </trkpt>
      <trkpt lat="44.23537" lon="2.11338">
        <ele>474.07</ele>
        <time>2012-07-17T09:31:42Z</time>
      </trkpt>
      <trkpt lat="44.23541" lon="2.11331">
        <ele>473.59</ele>
        <time>2012-07-17T09:32:00Z</time>
      </trkpt>
      <trkpt lat="44.23547" lon="2.11317">
        <ele>473.11</ele>
        <time>2012-07-17T09:32:17Z</time>
      </trkpt>
      <trkpt lat="44.23547" lon="2.113">
        <ele>472.14</ele>
        <time>2012-07-17T09:32:27Z</time>
      </trkpt>
      <trkpt lat="44.2355" lon="2.11285">
        <ele>471.66</ele>
        <time>2012-07-17T09:32:41Z</time>
      </trkpt>
      <trkpt lat="44.23546" lon="2.11275">
        <ele>471.18</ele>
        <time>2012-07-17T09:32:58Z</time>
      </trkpt>
      <trkpt lat="44.23545" lon="2.11274">
        <ele>471.18</ele>
        <time>2012-07-17T09:33:16Z</time>
      </trkpt>
      <trkpt lat="44.23547" lon="2.1126">
        <ele>470.22</ele>
        <time>2012-07-17T09:33:28Z</time>
      </trkpt>
      <trkpt lat="44.23548" lon="2.11256">
        <ele>470.22</ele>
        <time>2012-07-17T09:33:31Z</time>
      </trkpt>
      <trkpt lat="44.23554" lon="2.1125">
        <ele>469.26</ele>
        <time>2012-07-17T09:33:49Z</time>
      </trkpt>
      <trkpt lat="44.23564" lon="2.11265">
        <ele>468.78</ele>
        <time>2012-07-17T09:34:02Z</time>
      </trkpt>
      <trkpt lat="44.23572" lon="2.11268">
        <ele>468.78</ele>
        <time>2012-07-17T09:34:07Z</time>
      </trkpt>
      <trkpt lat="44.23588" lon="2.11269">
        <ele>468.3</ele>
        <time>2012-07-17T09:34:16Z</time>
      </trkpt>
      <trkpt lat="44.23589" lon="2.11274">
        <ele>467.82</ele>
        <time>2012-07-17T09:34:19Z</time>
      </trkpt>
      <trkpt lat="44.23591" lon="2.11282">
        <ele>467.34</ele>
        <time>2012-07-17T09:34:24Z</time>
      </trkpt>
      <trkpt lat="44.23595" lon="2.11301">
        <ele>465.9</ele>
        <time>2012-07-17T09:34:38Z</time>
      </trkpt>
      <trkpt lat="44.23604" lon="2.11329">
        <ele>463.01</ele>
        <time>2012-07-17T09:34:57Z</time>
      </trkpt>
      <trkpt lat="44.23609" lon="2.11344">
        <ele>462.05</ele>
        <time>2012-07-17T09:35:06Z</time>
      </trkpt>
      <trkpt lat="44.23601" lon="2.11374">
        <ele>461.09</ele>
        <time>2012-07-17T09:35:27Z</time>
      </trkpt>
      <trkpt lat="44.23598" lon="2.11377">
        <ele>461.09</ele>
        <time>2012-07-17T09:35:30Z</time>
      </trkpt>
      <trkpt lat="44.23587" lon="2.11389">
        <ele>461.09</ele>
        <time>2012-07-17T09:35:43Z</time>
      </trkpt>
      <trkpt lat="44.23578" lon="2.11395">
        <ele>461.57</ele>
        <time>2012-07-17T09:35:58Z</time>
      </trkpt>
      <trkpt lat="44.23579" lon="2.11398">
        <ele>461.57</ele>
        <time>2012-07-17T09:36:18Z</time>
      </trkpt>
      <trkpt lat="44.23563" lon="2.11414">
        <ele>462.05</ele>
        <time>2012-07-17T09:36:37Z</time>
      </trkpt>
      <trkpt lat="44.23553" lon="2.11422">
        <ele>463.01</ele>
        <time>2012-07-17T09:36:49Z</time>
      </trkpt>
      <trkpt lat="44.23531" lon="2.1143">
        <ele>463.97</ele>
        <time>2012-07-17T09:37:07Z</time>
      </trkpt>
      <trkpt lat="44.23524" lon="2.11431">
        <ele>464.45</ele>
        <time>2012-07-17T09:37:13Z</time>
      </trkpt>
      <trkpt lat="44.23516" lon="2.11434">
        <ele>466.38</ele>
        <time>2012-07-17T09:37:22Z</time>
      </trkpt>
      <trkpt lat="44.23513" lon="2.11412">
        <ele>469.26</ele>
        <time>2012-07-17T09:37:40Z</time>
      </trkpt>
      <trkpt lat="44.23515" lon="2.11403">
        <ele>471.66</ele>
        <time>2012-07-17T09:37:56Z</time>
      </trkpt>
      <trkpt lat="44.23515" lon="2.11403">
        <ele>471.66</ele>
        <time>2012-07-17T09:38:01Z</time>
      </trkpt>
      <trkpt lat="44.23519" lon="2.11394">
        <ele>472.63</ele>
        <time>2012-07-17T09:38:14Z</time>
      </trkpt>
      <trkpt lat="44.23527" lon="2.1138">
        <ele>472.63</ele>
        <time>2012-07-17T09:38:26Z</time>
      </trkpt>
      <trkpt lat="44.23535" lon="2.11372">
        <ele>472.14</ele>
        <time>2012-07-17T09:38:31Z</time>
      </trkpt>
      <trkpt lat="44.23533" lon="2.11363">
        <ele>473.59</ele>
        <time>2012-07-17T09:38:44Z</time>
      </trkpt>
      <trkpt lat="44.23526" lon="2.11366">
        <ele>474.07</ele>
        <time>2012-07-17T09:38:49Z</time>
      </trkpt>
      <trkpt lat="44.23513" lon="2.11347">
        <ele>474.07</ele>
        <time>2012-07-17T09:39:07Z</time>
      </trkpt>
      <trkpt lat="44.23513" lon="2.11347">
        <ele>474.55</ele>
        <time>2012-07-17T09:39:10Z</time>
      </trkpt>
      <trkpt lat="44.23513" lon="2.11339">
        <ele>474.07</ele>
        <time>2012-07-17T09:39:26Z</time>
      </trkpt>
      <trkpt lat="44.23512" lon="2.11337">
        <ele>473.11</ele>
        <time>2012-07-17T09:40:20Z</time>
      </trkpt>
      <trkpt lat="44.23513" lon="2.11335">
        <ele>473.59</ele>
        <time>2012-07-17T09:40:45Z</time>
      </trkpt>
      <trkpt lat="44.23511" lon="2.11335">
        <ele>473.59</ele>
        <time>2012-07-17T09:41:43Z</time>
      </trkpt>
      <trkpt lat="44.23509" lon="2.11342">
        <ele>474.07</ele>
        <time>2012-07-17T09:42:13Z</time>
      </trkpt>
      <trkpt lat="44.23511" lon="2.11336">
        <ele>473.59</ele>
        <time>2012-07-17T09:42:24Z</time>
      </trkpt>
      <trkpt lat="44.2351" lon="2.11337">
        <ele>473.59</ele>
        <time>2012-07-17T09:42:45Z</time>
      </trkpt>
      <trkpt lat="44.23511" lon="2.11337">
        <ele>474.07</ele>
        <time>2012-07-17T09:43:46Z</time>
      </trkpt>
      <trkpt lat="44.2351" lon="2.11336">
        <ele>473.11</ele>
        <time>2012-07-17T09:47:23Z</time>
      </trkpt>
      <trkpt lat="44.23511" lon="2.11337">
        <ele>473.11</ele>
        <time>2012-07-17T09:48:09Z</time>
      </trkpt>
      <trkpt lat="44.23511" lon="2.11337">
        <ele>473.11</ele>
        <time>2012-07-17T09:48:37Z</time>
      </trkpt>
      <trkpt lat="44.2351" lon="2.11337">
        <ele>475.51</ele>
        <time>2012-07-17T09:52:53Z</time>
      </trkpt>
      <trkpt lat="44.2351" lon="2.11337">
        <ele>475.03</ele>
        <time>2012-07-17T09:53:36Z</time>
      </trkpt>
      <trkpt lat="44.23511" lon="2.11337">
        <ele>475.99</ele>
        <time>2012-07-17T09:56:52Z</time>
      </trkpt>
      <trkpt lat="44.2351" lon="2.11336">
        <ele>476.47</ele>
        <time>2012-07-17T09:57:19Z</time>
      </trkpt>
      <trkpt lat="44.2351" lon="2.11335">
        <ele>475.99</ele>
        <time>2012-07-17T09:58:03Z</time>
      </trkpt>
      <trkpt lat="44.23511" lon="2.11339">
        <ele>475.99</ele>
        <time>2012-07-17T09:59:23Z</time>
      </trkpt>
      <trkpt lat="44.2351" lon="2.11341">
        <ele>476.47</ele>
        <time>2012-07-17T09:59:30Z</time>
      </trkpt>
      <trkpt lat="44.23516" lon="2.11325">
        <ele>476.47</ele>
        <time>2012-07-17T09:59:45Z</time>
      </trkpt>
      <trkpt lat="44.2352" lon="2.11319">
        <ele>476.47</ele>
        <time>2012-07-17T09:59:50Z</time>
      </trkpt>
      <trkpt lat="44.23523" lon="2.11318">
        <ele>476.47</ele>
        <time>2012-07-17T09:59:53Z</time>
      </trkpt>
      <trkpt lat="44.23526" lon="2.11319">
        <ele>476.47</ele>
        <time>2012-07-17T09:59:56Z</time>
      </trkpt>
      <trkpt lat="44.23538" lon="2.11315">
        <ele>475.99</ele>
        <time>2012-07-17T10:00:06Z</time>
      </trkpt>
      <trkpt lat="44.23542" lon="2.11315">
        <ele>475.51</ele>
        <time>2012-07-17T10:00:13Z</time>
      </trkpt>
      <trkpt lat="44.23538" lon="2.11315">
        <ele>475.51</ele>
        <time>2012-07-17T10:00:17Z</time>
      </trkpt>
      <trkpt lat="44.23527" lon="2.11316">
        <ele>475.99</ele>
        <time>2012-07-17T10:00:30Z</time>
      </trkpt>
      <trkpt lat="44.23526" lon="2.11317">
        <ele>475.99</ele>
        <time>2012-07-17T10:00:32Z</time>
      </trkpt>
      <trkpt lat="44.23514" lon="2.11338">
        <ele>476.47</ele>
        <time>2012-07-17T10:00:47Z</time>
      </trkpt>
      <trkpt lat="44.2351" lon="2.11342">
        <ele>476.95</ele>
        <time>2012-07-17T10:01:02Z</time>
      </trkpt>
      <trkpt lat="44.23511" lon="2.11343">
        <ele>476.95</ele>
        <time>2012-07-17T10:01:20Z</time>
      </trkpt>
      <trkpt lat="44.23511" lon="2.1134">
        <ele>476.47</ele>
        <time>2012-07-17T10:01:40Z</time>
      </trkpt>
      <trkpt lat="44.23511" lon="2.1134">
        <ele>476.47</ele>
        <time>2012-07-17T10:01:45Z</time>
      </trkpt>
      <trkpt lat="44.23513" lon="2.11331">
        <ele>476.95</ele>
        <time>2012-07-17T10:01:51Z</time>
      </trkpt>
      <trkpt lat="44.2352" lon="2.1132">
        <ele>476.47</ele>
        <time>2012-07-17T10:01:59Z</time>
      </trkpt>
      <trkpt lat="44.23528" lon="2.11318">
        <ele>476.47</ele>
        <time>2012-07-17T10:02:11Z</time>
      </trkpt>
      <trkpt lat="44.23533" lon="2.11319">
        <ele>476.47</ele>
        <time>2012-07-17T10:02:18Z</time>
      </trkpt>
      <trkpt lat="44.23539" lon="2.11314">
        <ele>475.99</ele>
        <time>2012-07-17T10:02:23Z</time>
      </trkpt>
      <trkpt lat="44.23549" lon="2.11262">
        <ele>473.11</ele>
        <time>2012-07-17T10:02:37Z</time>
      </trkpt>
      <trkpt lat="44.23546" lon="2.11237">
        <ele>471.66</ele>
        <time>2012-07-17T10:02:46Z</time>
      </trkpt>
      <trkpt lat="44.23523" lon="2.11249">
        <ele>468.78</ele>
        <time>2012-07-17T10:02:58Z</time>
      </trkpt>
      <trkpt lat="44.23522" lon="2.11253">
        <ele>468.3</ele>
        <time>2012-07-17T10:03:00Z</time>
      </trkpt>
      <trkpt lat="44.23515" lon="2.11251">
        <ele>467.34</ele>
        <time>2012-07-17T10:03:06Z</time>
      </trkpt>
      <trkpt lat="44.23532" lon="2.11199">
        <ele>465.42</ele>
        <time>2012-07-17T10:03:17Z</time>
      </trkpt>
      <trkpt lat="44.23544" lon="2.11168">
        <ele>463.97</ele>
        <time>2012-07-17T10:03:23Z</time>
      </trkpt>
      <trkpt lat="44.23543" lon="2.11148">
        <ele>463.01</ele>
        <time>2012-07-17T10:03:33Z</time>
      </trkpt>
      <trkpt lat="44.23544" lon="2.11149">
        <ele>463.01</ele>
        <time>2012-07-17T10:03:48Z</time>
      </trkpt>
      <trkpt lat="44.23542" lon="2.1115">
        <ele>462.53</ele>
        <time>2012-07-17T10:04:18Z</time>
      </trkpt>
      <trkpt lat="44.23542" lon="2.11151">
        <ele>462.53</ele>
        <time>2012-07-17T10:05:23Z</time>
      </trkpt>
      <trkpt lat="44.23542" lon="2.11149">
        <ele>462.53</ele>
        <time>2012-07-17T10:05:43Z</time>
      </trkpt>
      <trkpt lat="44.23541" lon="2.11108">
        <ele>460.13</ele>
        <time>2012-07-17T10:05:53Z</time>
      </trkpt>
      <trkpt lat="44.23527" lon="2.11063">
        <ele>456.28</ele>
        <time>2012-07-17T10:05:58Z</time>
      </trkpt>
      <trkpt lat="44.23518" lon="2.11029">
        <ele>454.36</ele>
        <time>2012-07-17T10:06:01Z</time>
      </trkpt>
      <trkpt lat="44.23505" lon="2.10986">
        <ele>451</ele>
        <time>2012-07-17T10:06:05Z</time>
      </trkpt>
      <trkpt lat="44.23488" lon="2.10941">
        <ele>448.59</ele>
        <time>2012-07-17T10:06:13Z</time>
      </trkpt>
      <trkpt lat="44.23464" lon="2.10878">
        <ele>445.23</ele>
        <time>2012-07-17T10:06:23Z</time>
      </trkpt>
      <trkpt lat="44.23436" lon="2.10805">
        <ele>442.34</ele>
        <time>2012-07-17T10:06:31Z</time>
      </trkpt>
      <trkpt lat="44.23436" lon="2.10736">
        <ele>438.5</ele>
        <time>2012-07-17T10:06:38Z</time>
      </trkpt>
      <trkpt lat="44.23438" lon="2.1071">
        <ele>437.54</ele>
        <time>2012-07-17T10:06:40Z</time>
      </trkpt>
      <trkpt lat="44.23445" lon="2.10668">
        <ele>434.65</ele>
        <time>2012-07-17T10:06:43Z</time>
      </trkpt>
      <trkpt lat="44.2346" lon="2.10612">
        <ele>430.81</ele>
        <time>2012-07-17T10:06:47Z</time>
      </trkpt>
      <trkpt lat="44.23472" lon="2.10573">
        <ele>429.37</ele>
        <time>2012-07-17T10:06:50Z</time>
      </trkpt>
      <trkpt lat="44.23483" lon="2.10537">
        <ele>426.96</ele>
        <time>2012-07-17T10:06:54Z</time>
      </trkpt>
      <trkpt lat="44.23482" lon="2.105">
        <ele>424.08</ele>
        <time>2012-07-17T10:06:59Z</time>
      </trkpt>
      <trkpt lat="44.23463" lon="2.10447">
        <ele>420.23</ele>
        <time>2012-07-17T10:07:04Z</time>
      </trkpt>
      <trkpt lat="44.23459" lon="2.10436">
        <ele>418.79</ele>
        <time>2012-07-17T10:07:05Z</time>
      </trkpt>
      <trkpt lat="44.23436" lon="2.10417">
        <ele>415.91</ele>
        <time>2012-07-17T10:07:09Z</time>
      </trkpt>
      <trkpt lat="44.23418" lon="2.10413">
        <ele>413.98</ele>
        <time>2012-07-17T10:07:11Z</time>
      </trkpt>
      <trkpt lat="44.23393" lon="2.10374">
        <ele>410.14</ele>
        <time>2012-07-17T10:07:15Z</time>
      </trkpt>
      <trkpt lat="44.23369" lon="2.10351">
        <ele>407.26</ele>
        <time>2012-07-17T10:07:19Z</time>
      </trkpt>
      <trkpt lat="44.23341" lon="2.10373">
        <ele>404.85</ele>
        <time>2012-07-17T10:07:23Z</time>
      </trkpt>
      <trkpt lat="44.23328" lon="2.10389">
        <ele>403.41</ele>
        <time>2012-07-17T10:07:25Z</time>
      </trkpt>
      <trkpt lat="44.23312" lon="2.10415">
        <ele>401.01</ele>
        <time>2012-07-17T10:07:28Z</time>
      </trkpt>
      <trkpt lat="44.23284" lon="2.10392">
        <ele>398.12</ele>
        <time>2012-07-17T10:07:34Z</time>
      </trkpt>
      <trkpt lat="44.2329" lon="2.1037">
        <ele>397.16</ele>
        <time>2012-07-17T10:07:36Z</time>
      </trkpt>
      <trkpt lat="44.23301" lon="2.1035">
        <ele>396.2</ele>
        <time>2012-07-17T10:07:38Z</time>
      </trkpt>
      <trkpt lat="44.23306" lon="2.10302">
        <ele>392.84</ele>
        <time>2012-07-17T10:07:42Z</time>
      </trkpt>
      <trkpt lat="44.23286" lon="2.10218">
        <ele>388.99</ele>
        <time>2012-07-17T10:07:48Z</time>
      </trkpt>
      <trkpt lat="44.23281" lon="2.10192">
        <ele>388.03</ele>
        <time>2012-07-17T10:07:50Z</time>
      </trkpt>
      <trkpt lat="44.23285" lon="2.10158">
        <ele>387.07</ele>
        <time>2012-07-17T10:07:53Z</time>
      </trkpt>
      <trkpt lat="44.23293" lon="2.10143">
        <ele>387.07</ele>
        <time>2012-07-17T10:07:55Z</time>
      </trkpt>
      <trkpt lat="44.23303" lon="2.10118">
        <ele>389.47</ele>
        <time>2012-07-17T10:08:05Z</time>
      </trkpt>
      <trkpt lat="44.23304" lon="2.10109">
        <ele>389.47</ele>
        <time>2012-07-17T10:08:10Z</time>
      </trkpt>
      <trkpt lat="44.23305" lon="2.10102">
        <ele>389.95</ele>
        <time>2012-07-17T10:08:14Z</time>
      </trkpt>
      <trkpt lat="44.23306" lon="2.10093">
        <ele>390.43</ele>
        <time>2012-07-17T10:08:19Z</time>
      </trkpt>
      <trkpt lat="44.23302" lon="2.1007">
        <ele>392.36</ele>
        <time>2012-07-17T10:08:32Z</time>
      </trkpt>
      <trkpt lat="44.23288" lon="2.10048">
        <ele>393.32</ele>
        <time>2012-07-17T10:08:46Z</time>
      </trkpt>
      <trkpt lat="44.23264" lon="2.10024">
        <ele>394.76</ele>
        <time>2012-07-17T10:09:06Z</time>
      </trkpt>
      <trkpt lat="44.23241" lon="2.09991">
        <ele>396.68</ele>
        <time>2012-07-17T10:09:31Z</time>
      </trkpt>
      <trkpt lat="44.23225" lon="2.0996">
        <ele>398.6</ele>
        <time>2012-07-17T10:09:50Z</time>
      </trkpt>
      <trkpt lat="44.23211" lon="2.09934">
        <ele>401.01</ele>
        <time>2012-07-17T10:10:08Z</time>
      </trkpt>
      <trkpt lat="44.23194" lon="2.09903">
        <ele>403.41</ele>
        <time>2012-07-17T10:10:30Z</time>
      </trkpt>
      <trkpt lat="44.23174" lon="2.09876">
        <ele>405.81</ele>
        <time>2012-07-17T10:10:51Z</time>
      </trkpt>
      <trkpt lat="44.23138" lon="2.09854">
        <ele>403.89</ele>
        <time>2012-07-17T10:11:01Z</time>
      </trkpt>
      <trkpt lat="44.23111" lon="2.09826">
        <ele>401.49</ele>
        <time>2012-07-17T10:11:05Z</time>
      </trkpt>
      <trkpt lat="44.23105" lon="2.09817">
        <ele>401.01</ele>
        <time>2012-07-17T10:11:06Z</time>
      </trkpt>
      <trkpt lat="44.23059" lon="2.09801">
        <ele>399.08</ele>
        <time>2012-07-17T10:11:12Z</time>
      </trkpt>
      <trkpt lat="44.23052" lon="2.09806">
        <ele>399.08</ele>
        <time>2012-07-17T10:11:13Z</time>
      </trkpt>
      <trkpt lat="44.23004" lon="2.09842">
        <ele>401.97</ele>
        <time>2012-07-17T10:11:27Z</time>
      </trkpt>
      <trkpt lat="44.22979" lon="2.09815">
        <ele>402.93</ele>
        <time>2012-07-17T10:11:37Z</time>
      </trkpt>
      <trkpt lat="44.22987" lon="2.09769">
        <ele>404.37</ele>
        <time>2012-07-17T10:11:51Z</time>
      </trkpt>
      <trkpt lat="44.23008" lon="2.0972">
        <ele>407.26</ele>
        <time>2012-07-17T10:12:11Z</time>
      </trkpt>
      <trkpt lat="44.23035" lon="2.09674">
        <ele>410.62</ele>
        <time>2012-07-17T10:12:33Z</time>
      </trkpt>
      <trkpt lat="44.23051" lon="2.09625">
        <ele>413.02</ele>
        <time>2012-07-17T10:12:52Z</time>
      </trkpt>
      <trkpt lat="44.23055" lon="2.0958">
        <ele>415.91</ele>
        <time>2012-07-17T10:13:11Z</time>
      </trkpt>
      <trkpt lat="44.23035" lon="2.09599">
        <ele>417.83</ele>
        <time>2012-07-17T10:13:24Z</time>
      </trkpt>
      <trkpt lat="44.23011" lon="2.09628">
        <ele>421.19</ele>
        <time>2012-07-17T10:13:41Z</time>
      </trkpt>
      <trkpt lat="44.22977" lon="2.09625">
        <ele>424.56</ele>
        <time>2012-07-17T10:13:58Z</time>
      </trkpt>
      <trkpt lat="44.22949" lon="2.09594">
        <ele>426.48</ele>
        <time>2012-07-17T10:14:16Z</time>
      </trkpt>
      <trkpt lat="44.22915" lon="2.09549">
        <ele>426.48</ele>
        <time>2012-07-17T10:14:36Z</time>
      </trkpt>
      <trkpt lat="44.22873" lon="2.09533">
        <ele>426</ele>
        <time>2012-07-17T10:14:49Z</time>
      </trkpt>
      <trkpt lat="44.2285" lon="2.09525">
        <ele>424.56</ele>
        <time>2012-07-17T10:14:53Z</time>
      </trkpt>
      <trkpt lat="44.22809" lon="2.09503">
        <ele>423.12</ele>
        <time>2012-07-17T10:15:00Z</time>
      </trkpt>
      <trkpt lat="44.22772" lon="2.09499">
        <ele>421.68</ele>
        <time>2012-07-17T10:15:05Z</time>
      </trkpt>
      <trkpt lat="44.2275" lon="2.09494">
        <ele>420.71</ele>
        <time>2012-07-17T10:15:08Z</time>
      </trkpt>
      <trkpt lat="44.22729" lon="2.09492">
        <ele>419.75</ele>
        <time>2012-07-17T10:15:11Z</time>
      </trkpt>
      <trkpt lat="44.22694" lon="2.09461">
        <ele>418.79</ele>
        <time>2012-07-17T10:15:17Z</time>
      </trkpt>
      <trkpt lat="44.22694" lon="2.09452">
        <ele>419.27</ele>
        <time>2012-07-17T10:15:18Z</time>
      </trkpt>
      <trkpt lat="44.22704" lon="2.09404">
        <ele>420.71</ele>
        <time>2012-07-17T10:15:30Z</time>
      </trkpt>
      <trkpt lat="44.22706" lon="2.09346">
        <ele>423.6</ele>
        <time>2012-07-17T10:15:50Z</time>
      </trkpt>
      <trkpt lat="44.22671" lon="2.0931">
        <ele>424.08</ele>
        <time>2012-07-17T10:16:07Z</time>
      </trkpt>
      <trkpt lat="44.22664" lon="2.09304">
        <ele>424.08</ele>
        <time>2012-07-17T10:16:09Z</time>
      </trkpt>
      <trkpt lat="44.22616" lon="2.09285">
        <ele>421.68</ele>
        <time>2012-07-17T10:16:17Z</time>
      </trkpt>
      <trkpt lat="44.22575" lon="2.09248">
        <ele>421.68</ele>
        <time>2012-07-17T10:16:27Z</time>
      </trkpt>
      <trkpt lat="44.22542" lon="2.09204">
        <ele>424.56</ele>
        <time>2012-07-17T10:16:47Z</time>
      </trkpt>
      <trkpt lat="44.22531" lon="2.09151">
        <ele>426.96</ele>
        <time>2012-07-17T10:17:06Z</time>
      </trkpt>
      <trkpt lat="44.22545" lon="2.09088">
        <ele>426.48</ele>
        <time>2012-07-17T10:17:20Z</time>
      </trkpt>
      <trkpt lat="44.22563" lon="2.09037">
        <ele>425.52</ele>
        <time>2012-07-17T10:17:29Z</time>
      </trkpt>
      <trkpt lat="44.22573" lon="2.09007">
        <ele>424.56</ele>
        <time>2012-07-17T10:17:34Z</time>
      </trkpt>
      <trkpt lat="44.22596" lon="2.08899">
        <ele>421.19</ele>
        <time>2012-07-17T10:17:47Z</time>
      </trkpt>
      <trkpt lat="44.22605" lon="2.0881">
        <ele>417.35</ele>
        <time>2012-07-17T10:17:55Z</time>
      </trkpt>
      <trkpt lat="44.22618" lon="2.08666">
        <ele>414.47</ele>
        <time>2012-07-17T10:18:08Z</time>
      </trkpt>
      <trkpt lat="44.22627" lon="2.08609">
        <ele>412.54</ele>
        <time>2012-07-17T10:18:14Z</time>
      </trkpt>
      <trkpt lat="44.2264" lon="2.08503">
        <ele>410.62</ele>
        <time>2012-07-17T10:18:26Z</time>
      </trkpt>
      <trkpt lat="44.22648" lon="2.0842">
        <ele>409.18</ele>
        <time>2012-07-17T10:18:35Z</time>
      </trkpt>
      <trkpt lat="44.22659" lon="2.08394">
        <ele>408.7</ele>
        <time>2012-07-17T10:18:39Z</time>
      </trkpt>
      <trkpt lat="44.22687" lon="2.08286">
        <ele>406.29</ele>
        <time>2012-07-17T10:18:53Z</time>
      </trkpt>
      <trkpt lat="44.22692" lon="2.08266">
        <ele>406.29</ele>
        <time>2012-07-17T10:18:56Z</time>
      </trkpt>
      <trkpt lat="44.22695" lon="2.08222">
        <ele>405.81</ele>
        <time>2012-07-17T10:19:02Z</time>
      </trkpt>
      <trkpt lat="44.22696" lon="2.08203">
        <ele>405.33</ele>
        <time>2012-07-17T10:19:04Z</time>
      </trkpt>
      <trkpt lat="44.22722" lon="2.08127">
        <ele>403.41</ele>
        <time>2012-07-17T10:19:13Z</time>
      </trkpt>
      <trkpt lat="44.22758" lon="2.08062">
        <ele>405.33</ele>
        <time>2012-07-17T10:19:25Z</time>
      </trkpt>
      <trkpt lat="44.22797" lon="2.08024">
        <ele>405.81</ele>
        <time>2012-07-17T10:19:40Z</time>
      </trkpt>
      <trkpt lat="44.22843" lon="2.07986">
        <ele>404.85</ele>
        <time>2012-07-17T10:19:55Z</time>
      </trkpt>
      <trkpt lat="44.22902" lon="2.07932">
        <ele>404.85</ele>
        <time>2012-07-17T10:20:14Z</time>
      </trkpt>
      <trkpt lat="44.22955" lon="2.0788">
        <ele>404.85</ele>
        <time>2012-07-17T10:20:35Z</time>
      </trkpt>
      <trkpt lat="44.22982" lon="2.07797">
        <ele>401.97</ele>
        <time>2012-07-17T10:20:48Z</time>
      </trkpt>
      <trkpt lat="44.22998" lon="2.07743">
        <ele>398.6</ele>
        <time>2012-07-17T10:20:53Z</time>
      </trkpt>
      <trkpt lat="44.23001" lon="2.07731">
        <ele>398.6</ele>
        <time>2012-07-17T10:20:54Z</time>
      </trkpt>
      <trkpt lat="44.23012" lon="2.07692">
        <ele>395.72</ele>
        <time>2012-07-17T10:20:57Z</time>
      </trkpt>
      <trkpt lat="44.23017" lon="2.07648">
        <ele>390.43</ele>
        <time>2012-07-17T10:21:01Z</time>
      </trkpt>
      <trkpt lat="44.23017" lon="2.07629">
        <ele>389.47</ele>
        <time>2012-07-17T10:21:03Z</time>
      </trkpt>
      <trkpt lat="44.23029" lon="2.07601">
        <ele>386.59</ele>
        <time>2012-07-17T10:21:06Z</time>
      </trkpt>
      <trkpt lat="44.23052" lon="2.07573">
        <ele>383.7</ele>
        <time>2012-07-17T10:21:09Z</time>
      </trkpt>
      <trkpt lat="44.23075" lon="2.07527">
        <ele>381.3</ele>
        <time>2012-07-17T10:21:13Z</time>
      </trkpt>
      <trkpt lat="44.23089" lon="2.0749">
        <ele>379.86</ele>
        <time>2012-07-17T10:21:16Z</time>
      </trkpt>
      <trkpt lat="44.23099" lon="2.07455">
        <ele>378.9</ele>
        <time>2012-07-17T10:21:19Z</time>
      </trkpt>
      <trkpt lat="44.23101" lon="2.07345">
        <ele>376.97</ele>
        <time>2012-07-17T10:21:29Z</time>
      </trkpt>
      <trkpt lat="44.23103" lon="2.07295">
        <ele>374.57</ele>
        <time>2012-07-17T10:21:36Z</time>
      </trkpt>
      <trkpt lat="44.23103" lon="2.0728">
        <ele>373.13</ele>
        <time>2012-07-17T10:21:38Z</time>
      </trkpt>
      <trkpt lat="44.23097" lon="2.07254">
        <ele>371.69</ele>
        <time>2012-07-17T10:21:41Z</time>
      </trkpt>
      <trkpt lat="44.2309" lon="2.07226">
        <ele>369.28</ele>
        <time>2012-07-17T10:21:44Z</time>
      </trkpt>
      <trkpt lat="44.23091" lon="2.07196">
        <ele>365.44</ele>
        <time>2012-07-17T10:21:51Z</time>
      </trkpt>
      <trkpt lat="44.23082" lon="2.07208">
        <ele>364.96</ele>
        <time>2012-07-17T10:21:56Z</time>
      </trkpt>
      <trkpt lat="44.23083" lon="2.07216">
        <ele>364.96</ele>
        <time>2012-07-17T10:22:07Z</time>
      </trkpt>
      <trkpt lat="44.23084" lon="2.07215">
        <ele>364.96</ele>
        <time>2012-07-17T10:22:44Z</time>
      </trkpt>
      <trkpt lat="44.23085" lon="2.07216">
        <ele>364.48</ele>
        <time>2012-07-17T10:25:09Z</time>
      </trkpt>
      <trkpt lat="44.23072" lon="2.07195">
        <ele>364.48</ele>
        <time>2012-07-17T10:25:18Z</time>
      </trkpt>
      <trkpt lat="44.23066" lon="2.07195">
        <ele>364.48</ele>
        <time>2012-07-17T10:25:19Z</time>
      </trkpt>
      <trkpt lat="44.23046" lon="2.07191">
        <ele>363.52</ele>
        <time>2012-07-17T10:25:22Z</time>
      </trkpt>
      <trkpt lat="44.22989" lon="2.07152">
        <ele>361.11</ele>
        <time>2012-07-17T10:25:33Z</time>
      </trkpt>
      <trkpt lat="44.22967" lon="2.07123">
        <ele>363.52</ele>
        <time>2012-07-17T10:25:45Z</time>
      </trkpt>
      <trkpt lat="44.22946" lon="2.07094">
        <ele>366.4</ele>
        <time>2012-07-17T10:26:00Z</time>
      </trkpt>
      <trkpt lat="44.22911" lon="2.07079">
        <ele>366.88</ele>
        <time>2012-07-17T10:26:14Z</time>
      </trkpt>
      <trkpt lat="44.22882" lon="2.07038">
        <ele>366.88</ele>
        <time>2012-07-17T10:26:27Z</time>
      </trkpt>
      <trkpt lat="44.22853" lon="2.06952">
        <ele>366.4</ele>
        <time>2012-07-17T10:26:47Z</time>
      </trkpt>
      <trkpt lat="44.22819" lon="2.06867">
        <ele>363.52</ele>
        <time>2012-07-17T10:27:00Z</time>
      </trkpt>
      <trkpt lat="44.22789" lon="2.06803">
        <ele>359.67</ele>
        <time>2012-07-17T10:27:07Z</time>
      </trkpt>
      <trkpt lat="44.22786" lon="2.06792">
        <ele>358.71</ele>
        <time>2012-07-17T10:27:08Z</time>
      </trkpt>
      <trkpt lat="44.22782" lon="2.06747">
        <ele>355.34</ele>
        <time>2012-07-17T10:27:12Z</time>
      </trkpt>
      <trkpt lat="44.22782" lon="2.06735">
        <ele>353.9</ele>
        <time>2012-07-17T10:27:13Z</time>
      </trkpt>
      <trkpt lat="44.22767" lon="2.06693">
        <ele>349.58</ele>
        <time>2012-07-17T10:27:17Z</time>
      </trkpt>
      <trkpt lat="44.22759" lon="2.06683">
        <ele>349.58</ele>
        <time>2012-07-17T10:27:18Z</time>
      </trkpt>
      <trkpt lat="44.22732" lon="2.06661">
        <ele>346.21</ele>
        <time>2012-07-17T10:27:21Z</time>
      </trkpt>
      <trkpt lat="44.22712" lon="2.06654">
        <ele>343.81</ele>
        <time>2012-07-17T10:27:23Z</time>
      </trkpt>
      <trkpt lat="44.22691" lon="2.0665">
        <ele>341.41</ele>
        <time>2012-07-17T10:27:25Z</time>
      </trkpt>
      <trkpt lat="44.2267" lon="2.0664">
        <ele>339.96</ele>
        <time>2012-07-17T10:27:27Z</time>
      </trkpt>
      <trkpt lat="44.22649" lon="2.06605">
        <ele>337.08</ele>
        <time>2012-07-17T10:27:30Z</time>
      </trkpt>
      <trkpt lat="44.22638" lon="2.06578">
        <ele>335.64</ele>
        <time>2012-07-17T10:27:32Z</time>
      </trkpt>
      <trkpt lat="44.22607" lon="2.06539">
        <ele>332.75</ele>
        <time>2012-07-17T10:27:36Z</time>
      </trkpt>
      <trkpt lat="44.22568" lon="2.06516">
        <ele>331.31</ele>
        <time>2012-07-17T10:27:40Z</time>
      </trkpt>
      <trkpt lat="44.22526" lon="2.06494">
        <ele>330.83</ele>
        <time>2012-07-17T10:27:45Z</time>
      </trkpt>
      <trkpt lat="44.22463" lon="2.06495">
        <ele>328.91</ele>
        <time>2012-07-17T10:27:54Z</time>
      </trkpt>
      <trkpt lat="44.22431" lon="2.06497">
        <ele>326.99</ele>
        <time>2012-07-17T10:27:59Z</time>
      </trkpt>
      <trkpt lat="44.22396" lon="2.06495">
        <ele>325.06</ele>
        <time>2012-07-17T10:28:05Z</time>
      </trkpt>
      <trkpt lat="44.22363" lon="2.06492">
        <ele>323.62</ele>
        <time>2012-07-17T10:28:11Z</time>
      </trkpt>
      <trkpt lat="44.22344" lon="2.06497">
        <ele>323.14</ele>
        <time>2012-07-17T10:28:15Z</time>
      </trkpt>
      <trkpt lat="44.2233" lon="2.06503">
        <ele>322.66</ele>
        <time>2012-07-17T10:28:18Z</time>
      </trkpt>
      <trkpt lat="44.22316" lon="2.06513">
        <ele>322.18</ele>
        <time>2012-07-17T10:28:21Z</time>
      </trkpt>
      <trkpt lat="44.22283" lon="2.06544">
        <ele>322.18</ele>
        <time>2012-07-17T10:28:30Z</time>
      </trkpt>
      <trkpt lat="44.22253" lon="2.06577">
        <ele>321.7</ele>
        <time>2012-07-17T10:28:40Z</time>
      </trkpt>
      <trkpt lat="44.22226" lon="2.06596">
        <ele>321.7</ele>
        <time>2012-07-17T10:28:50Z</time>
      </trkpt>
      <trkpt lat="44.22207" lon="2.06587">
        <ele>322.66</ele>
        <time>2012-07-17T10:29:00Z</time>
      </trkpt>
      <trkpt lat="44.22202" lon="2.0658">
        <ele>323.14</ele>
        <time>2012-07-17T10:29:02Z</time>
      </trkpt>
      <trkpt lat="44.22173" lon="2.06546">
        <ele>322.66</ele>
        <time>2012-07-17T10:29:10Z</time>
      </trkpt>
      <trkpt lat="44.22158" lon="2.06522">
        <ele>322.18</ele>
        <time>2012-07-17T10:29:15Z</time>
      </trkpt>
      <trkpt lat="44.22143" lon="2.0649">
        <ele>321.7</ele>
        <time>2012-07-17T10:29:20Z</time>
      </trkpt>
      <trkpt lat="44.22117" lon="2.06441">
        <ele>322.18</ele>
        <time>2012-07-17T10:29:28Z</time>
      </trkpt>
      <trkpt lat="44.22096" lon="2.06334">
        <ele>322.66</ele>
        <time>2012-07-17T10:29:45Z</time>
      </trkpt>
      <trkpt lat="44.22064" lon="2.06263">
        <ele>323.62</ele>
        <time>2012-07-17T10:29:59Z</time>
      </trkpt>
      <trkpt lat="44.22047" lon="2.06232">
        <ele>323.62</ele>
        <time>2012-07-17T10:30:05Z</time>
      </trkpt>
      <trkpt lat="44.2204" lon="2.06224">
        <ele>323.62</ele>
        <time>2012-07-17T10:30:07Z</time>
      </trkpt>
      <trkpt lat="44.2201" lon="2.06216">
        <ele>323.14</ele>
        <time>2012-07-17T10:30:13Z</time>
      </trkpt>
      <trkpt lat="44.21987" lon="2.06224">
        <ele>322.66</ele>
        <time>2012-07-17T10:30:17Z</time>
      </trkpt>
      <trkpt lat="44.21939" lon="2.06247">
        <ele>322.66</ele>
        <time>2012-07-17T10:30:26Z</time>
      </trkpt>
      <trkpt lat="44.21898" lon="2.06261">
        <ele>322.66</ele>
        <time>2012-07-17T10:30:34Z</time>
      </trkpt>
      <trkpt lat="44.21885" lon="2.0626">
        <ele>323.14</ele>
        <time>2012-07-17T10:30:37Z</time>
      </trkpt>
      <trkpt lat="44.21823" lon="2.06245">
        <ele>325.06</ele>
        <time>2012-07-17T10:30:53Z</time>
      </trkpt>
      <trkpt lat="44.21782" lon="2.06242">
        <ele>326.02</ele>
        <time>2012-07-17T10:31:04Z</time>
      </trkpt>
      <trkpt lat="44.21774" lon="2.06239">
        <ele>326.5</ele>
        <time>2012-07-17T10:31:06Z</time>
      </trkpt>
      <trkpt lat="44.21749" lon="2.06232">
        <ele>326.5</ele>
        <time>2012-07-17T10:31:12Z</time>
      </trkpt>
      <trkpt lat="44.21741" lon="2.0623">
        <ele>326.5</ele>
        <time>2012-07-17T10:31:14Z</time>
      </trkpt>
      <trkpt lat="44.21676" lon="2.06234">
        <ele>327.47</ele>
        <time>2012-07-17T10:31:28Z</time>
      </trkpt>
      <trkpt lat="44.21645" lon="2.0623">
        <ele>326.99</ele>
        <time>2012-07-17T10:31:35Z</time>
      </trkpt>
      <trkpt lat="44.21627" lon="2.06222">
        <ele>326.02</ele>
        <time>2012-07-17T10:31:39Z</time>
      </trkpt>
      <trkpt lat="44.21619" lon="2.06218">
        <ele>325.54</ele>
        <time>2012-07-17T10:31:41Z</time>
      </trkpt>
      <trkpt lat="44.21587" lon="2.06207">
        <ele>325.54</ele>
        <time>2012-07-17T10:31:47Z</time>
      </trkpt>
      <trkpt lat="44.21551" lon="2.06195">
        <ele>325.06</ele>
        <time>2012-07-17T10:31:54Z</time>
      </trkpt>
      <trkpt lat="44.21517" lon="2.06183">
        <ele>324.58</ele>
        <time>2012-07-17T10:32:00Z</time>
      </trkpt>
      <trkpt lat="44.21506" lon="2.06175">
        <ele>324.58</ele>
        <time>2012-07-17T10:32:02Z</time>
      </trkpt>
      <trkpt lat="44.21485" lon="2.06155">
        <ele>324.1</ele>
        <time>2012-07-17T10:32:06Z</time>
      </trkpt>
      <trkpt lat="44.21466" lon="2.06128">
        <ele>324.1</ele>
        <time>2012-07-17T10:32:11Z</time>
      </trkpt>
      <trkpt lat="44.21377" lon="2.06084">
        <ele>323.14</ele>
        <time>2012-07-17T10:32:27Z</time>
      </trkpt>
      <trkpt lat="44.21304" lon="2.0603">
        <ele>322.66</ele>
        <time>2012-07-17T10:32:40Z</time>
      </trkpt>
      <trkpt lat="44.21281" lon="2.05981">
        <ele>322.66</ele>
        <time>2012-07-17T10:32:47Z</time>
      </trkpt>
      <trkpt lat="44.21276" lon="2.05956">
        <ele>322.18</ele>
        <time>2012-07-17T10:32:50Z</time>
      </trkpt>
      <trkpt lat="44.21269" lon="2.05925">
        <ele>321.7</ele>
        <time>2012-07-17T10:32:54Z</time>
      </trkpt>
      <trkpt lat="44.21243" lon="2.05855">
        <ele>319.78</ele>
        <time>2012-07-17T10:33:02Z</time>
      </trkpt>
      <trkpt lat="44.21206" lon="2.05833">
        <ele>318.81</ele>
        <time>2012-07-17T10:33:09Z</time>
      </trkpt>
      <trkpt lat="44.21195" lon="2.05833">
        <ele>319.3</ele>
        <time>2012-07-17T10:33:12Z</time>
      </trkpt>
      <trkpt lat="44.21172" lon="2.05826">
        <ele>320.74</ele>
        <time>2012-07-17T10:33:23Z</time>
      </trkpt>
      <trkpt lat="44.21132" lon="2.05852">
        <ele>323.62</ele>
        <time>2012-07-17T10:33:41Z</time>
      </trkpt>
      <trkpt lat="44.21107" lon="2.05877">
        <ele>326.5</ele>
        <time>2012-07-17T10:33:55Z</time>
      </trkpt>
      <trkpt lat="44.21079" lon="2.05901">
        <ele>329.39</ele>
        <time>2012-07-17T10:34:12Z</time>
      </trkpt>
      <trkpt lat="44.21051" lon="2.05923">
        <ele>332.27</ele>
        <time>2012-07-17T10:34:31Z</time>
      </trkpt>
      <trkpt lat="44.21023" lon="2.05958">
        <ele>335.16</ele>
        <time>2012-07-17T10:34:51Z</time>
      </trkpt>
      <trkpt lat="44.20998" lon="2.05995">
        <ele>338.52</ele>
        <time>2012-07-17T10:35:12Z</time>
      </trkpt>
      <trkpt lat="44.20979" lon="2.06018">
        <ele>341.41</ele>
        <time>2012-07-17T10:35:27Z</time>
      </trkpt>
      <trkpt lat="44.20951" lon="2.06032">
        <ele>344.29</ele>
        <time>2012-07-17T10:35:45Z</time>
      </trkpt>
      <trkpt lat="44.2093" lon="2.06044">
        <ele>347.17</ele>
        <time>2012-07-17T10:36:02Z</time>
      </trkpt>
      <trkpt lat="44.20913" lon="2.06049">
        <ele>348.62</ele>
        <time>2012-07-17T10:36:14Z</time>
      </trkpt>
      <trkpt lat="44.20878" lon="2.06057">
        <ele>351.5</ele>
        <time>2012-07-17T10:36:34Z</time>
      </trkpt>
      <trkpt lat="44.20844" lon="2.06047">
        <ele>354.86</ele>
        <time>2012-07-17T10:36:56Z</time>
      </trkpt>
      <trkpt lat="44.20814" lon="2.06043">
        <ele>357.75</ele>
        <time>2012-07-17T10:37:16Z</time>
      </trkpt>
      <trkpt lat="44.20787" lon="2.06058">
        <ele>360.15</ele>
        <time>2012-07-17T10:37:36Z</time>
      </trkpt>
      <trkpt lat="44.20768" lon="2.06083">
        <ele>362.55</ele>
        <time>2012-07-17T10:37:55Z</time>
      </trkpt>
      <trkpt lat="44.20754" lon="2.06115">
        <ele>365.92</ele>
        <time>2012-07-17T10:38:14Z</time>
      </trkpt>
      <trkpt lat="44.20736" lon="2.06155">
        <ele>368.8</ele>
        <time>2012-07-17T10:38:36Z</time>
      </trkpt>
      <trkpt lat="44.20717" lon="2.0619">
        <ele>371.69</ele>
        <time>2012-07-17T10:38:57Z</time>
      </trkpt>
      <trkpt lat="44.20698" lon="2.0622">
        <ele>375.05</ele>
        <time>2012-07-17T10:39:16Z</time>
      </trkpt>
      <trkpt lat="44.20675" lon="2.06258">
        <ele>377.94</ele>
        <time>2012-07-17T10:39:38Z</time>
      </trkpt>
      <trkpt lat="44.20655" lon="2.06291">
        <ele>381.3</ele>
        <time>2012-07-17T10:39:58Z</time>
      </trkpt>
      <trkpt lat="44.2063" lon="2.06322">
        <ele>384.66</ele>
        <time>2012-07-17T10:40:19Z</time>
      </trkpt>
      <trkpt lat="44.20601" lon="2.0634">
        <ele>387.55</ele>
        <time>2012-07-17T10:40:39Z</time>
      </trkpt>
      <trkpt lat="44.20585" lon="2.06341">
        <ele>388.51</ele>
        <time>2012-07-17T10:40:54Z</time>
      </trkpt>
      <trkpt lat="44.20585" lon="2.0634">
        <ele>388.03</ele>
        <time>2012-07-17T10:41:51Z</time>
      </trkpt>
      <trkpt lat="44.20585" lon="2.06339">
        <ele>388.03</ele>
        <time>2012-07-17T10:42:26Z</time>
      </trkpt>
      <trkpt lat="44.20586" lon="2.06339">
        <ele>388.51</ele>
        <time>2012-07-17T10:44:21Z</time>
      </trkpt>
      <trkpt lat="44.20586" lon="2.0634">
        <ele>388.99</ele>
        <time>2012-07-17T10:45:32Z</time>
      </trkpt>
      <trkpt lat="44.20585" lon="2.06343">
        <ele>388.51</ele>
        <time>2012-07-17T10:46:40Z</time>
      </trkpt>
      <trkpt lat="44.20586" lon="2.06343">
        <ele>388.51</ele>
        <time>2012-07-17T10:46:43Z</time>
      </trkpt>
      <trkpt lat="44.20567" lon="2.06349">
        <ele>388.51</ele>
        <time>2012-07-17T10:46:55Z</time>
      </trkpt>
      <trkpt lat="44.20542" lon="2.06357">
        <ele>388.51</ele>
        <time>2012-07-17T10:47:02Z</time>
      </trkpt>
      <trkpt lat="44.20451" lon="2.06383">
        <ele>385.15</ele>
        <time>2012-07-17T10:47:17Z</time>
      </trkpt>
      <trkpt lat="44.20425" lon="2.06403">
        <ele>383.7</ele>
        <time>2012-07-17T10:47:21Z</time>
      </trkpt>
      <trkpt lat="44.20385" lon="2.06451">
        <ele>382.26</ele>
        <time>2012-07-17T10:47:28Z</time>
      </trkpt>
      <trkpt lat="44.20365" lon="2.06468">
        <ele>381.3</ele>
        <time>2012-07-17T10:47:31Z</time>
      </trkpt>
      <trkpt lat="44.20266" lon="2.06484">
        <ele>378.42</ele>
        <time>2012-07-17T10:47:44Z</time>
      </trkpt>
      <trkpt lat="44.20191" lon="2.06513">
        <ele>375.53</ele>
        <time>2012-07-17T10:47:54Z</time>
      </trkpt>
      <trkpt lat="44.20125" lon="2.06526">
        <ele>375.53</ele>
        <time>2012-07-17T10:48:05Z</time>
      </trkpt>
      <trkpt lat="44.20094" lon="2.06527">
        <ele>377.94</ele>
        <time>2012-07-17T10:48:20Z</time>
      </trkpt>
      <trkpt lat="44.2009" lon="2.06526">
        <ele>378.42</ele>
        <time>2012-07-17T10:48:23Z</time>
      </trkpt>
      <trkpt lat="44.20088" lon="2.06512">
        <ele>379.38</ele>
        <time>2012-07-17T10:48:29Z</time>
      </trkpt>
      <trkpt lat="44.20115" lon="2.06454">
        <ele>379.86</ele>
        <time>2012-07-17T10:48:48Z</time>
      </trkpt>
      <trkpt lat="44.20149" lon="2.06345">
        <ele>376.49</ele>
        <time>2012-07-17T10:49:03Z</time>
      </trkpt>
      <trkpt lat="44.20172" lon="2.06287">
        <ele>374.09</ele>
        <time>2012-07-17T10:49:09Z</time>
      </trkpt>
      <trkpt lat="44.20196" lon="2.06229">
        <ele>370.24</ele>
        <time>2012-07-17T10:49:14Z</time>
      </trkpt>
      <trkpt lat="44.20208" lon="2.06173">
        <ele>366.88</ele>
        <time>2012-07-17T10:49:18Z</time>
      </trkpt>
      <trkpt lat="44.2021" lon="2.06158">
        <ele>366.88</ele>
        <time>2012-07-17T10:49:19Z</time>
      </trkpt>
      <trkpt lat="44.20226" lon="2.061">
        <ele>363.04</ele>
        <time>2012-07-17T10:49:23Z</time>
      </trkpt>
      <trkpt lat="44.20247" lon="2.06044">
        <ele>359.19</ele>
        <time>2012-07-17T10:49:27Z</time>
      </trkpt>
      <trkpt lat="44.20259" lon="2.05987">
        <ele>356.79</ele>
        <time>2012-07-17T10:49:31Z</time>
      </trkpt>
      <trkpt lat="44.20259" lon="2.0594">
        <ele>354.38</ele>
        <time>2012-07-17T10:49:34Z</time>
      </trkpt>
      <trkpt lat="44.20268" lon="2.05885">
        <ele>352.94</ele>
        <time>2012-07-17T10:49:38Z</time>
      </trkpt>
      <trkpt lat="44.20267" lon="2.05764">
        <ele>350.06</ele>
        <time>2012-07-17T10:49:48Z</time>
      </trkpt>
      <trkpt lat="44.20265" lon="2.05646">
        <ele>349.1</ele>
        <time>2012-07-17T10:50:01Z</time>
      </trkpt>
      <trkpt lat="44.20264" lon="2.05535">
        <ele>352.46</ele>
        <time>2012-07-17T10:50:20Z</time>
      </trkpt>
      <trkpt lat="44.20281" lon="2.054">
        <ele>353.42</ele>
        <time>2012-07-17T10:50:45Z</time>
      </trkpt>
      <trkpt lat="44.20313" lon="2.05281">
        <ele>355.34</ele>
        <time>2012-07-17T10:51:09Z</time>
      </trkpt>
      <trkpt lat="44.2034" lon="2.05181">
        <ele>354.38</ele>
        <time>2012-07-17T10:51:26Z</time>
      </trkpt>
      <trkpt lat="44.20346" lon="2.05089">
        <ele>355.83</ele>
        <time>2012-07-17T10:51:40Z</time>
      </trkpt>
      <trkpt lat="44.20342" lon="2.05006">
        <ele>358.71</ele>
        <time>2012-07-17T10:51:58Z</time>
      </trkpt>
      <trkpt lat="44.20323" lon="2.04913">
        <ele>358.71</ele>
        <time>2012-07-17T10:52:15Z</time>
      </trkpt>
      <trkpt lat="44.20264" lon="2.04805">
        <ele>357.27</ele>
        <time>2012-07-17T10:52:31Z</time>
      </trkpt>
      <trkpt lat="44.20191" lon="2.04675">
        <ele>355.83</ele>
        <time>2012-07-17T10:52:48Z</time>
      </trkpt>
      <trkpt lat="44.20121" lon="2.04568">
        <ele>352.94</ele>
        <time>2012-07-17T10:53:01Z</time>
      </trkpt>
      <trkpt lat="44.20105" lon="2.04541">
        <ele>352.46</ele>
        <time>2012-07-17T10:53:05Z</time>
      </trkpt>
      <trkpt lat="44.20097" lon="2.04518">
        <ele>351.98</ele>
        <time>2012-07-17T10:53:11Z</time>
      </trkpt>
      <trkpt lat="44.20093" lon="2.04526">
        <ele>350.54</ele>
        <time>2012-07-17T10:53:18Z</time>
      </trkpt>
      <trkpt lat="44.201" lon="2.04527">
        <ele>350.54</ele>
        <time>2012-07-17T10:53:20Z</time>
      </trkpt>
      <trkpt lat="44.20124" lon="2.0453">
        <ele>351.02</ele>
        <time>2012-07-17T10:53:27Z</time>
      </trkpt>
      <trkpt lat="44.20122" lon="2.04524">
        <ele>350.54</ele>
        <time>2012-07-17T10:53:31Z</time>
      </trkpt>
      <trkpt lat="44.2003" lon="2.04497">
        <ele>351.5</ele>
        <time>2012-07-17T10:53:53Z</time>
      </trkpt>
      <trkpt lat="44.20025" lon="2.04496">
        <ele>351.5</ele>
        <time>2012-07-17T10:53:54Z</time>
      </trkpt>
      <trkpt lat="44.20018" lon="2.04467">
        <ele>353.42</ele>
        <time>2012-07-17T10:54:01Z</time>
      </trkpt>
      <trkpt lat="44.20042" lon="2.04414">
        <ele>353.9</ele>
        <time>2012-07-17T10:54:14Z</time>
      </trkpt>
      <trkpt lat="44.20054" lon="2.04408">
        <ele>353.42</ele>
        <time>2012-07-17T10:54:17Z</time>
      </trkpt>
      <trkpt lat="44.2007" lon="2.04405">
        <ele>352.46</ele>
        <time>2012-07-17T10:54:20Z</time>
      </trkpt>
      <trkpt lat="44.20089" lon="2.04389">
        <ele>350.06</ele>
        <time>2012-07-17T10:54:24Z</time>
      </trkpt>
      <trkpt lat="44.20107" lon="2.04344">
        <ele>347.65</ele>
        <time>2012-07-17T10:54:29Z</time>
      </trkpt>
      <trkpt lat="44.20106" lon="2.04291">
        <ele>346.21</ele>
        <time>2012-07-17T10:54:36Z</time>
      </trkpt>
      <trkpt lat="44.20093" lon="2.0427">
        <ele>346.21</ele>
        <time>2012-07-17T10:54:43Z</time>
      </trkpt>
      <trkpt lat="44.201" lon="2.04287">
        <ele>344.77</ele>
        <time>2012-07-17T10:54:51Z</time>
      </trkpt>
      <trkpt lat="44.20106" lon="2.04296">
        <ele>344.77</ele>
        <time>2012-07-17T10:54:53Z</time>
      </trkpt>
      <trkpt lat="44.20109" lon="2.04342">
        <ele>344.77</ele>
        <time>2012-07-17T10:55:01Z</time>
      </trkpt>
      <trkpt lat="44.20083" lon="2.04397">
        <ele>347.65</ele>
        <time>2012-07-17T10:55:17Z</time>
      </trkpt>
      <trkpt lat="44.20061" lon="2.04405">
        <ele>351.02</ele>
        <time>2012-07-17T10:55:29Z</time>
      </trkpt>
      <trkpt lat="44.20028" lon="2.04435">
        <ele>353.9</ele>
        <time>2012-07-17T10:55:48Z</time>
      </trkpt>
      <trkpt lat="44.20017" lon="2.04478">
        <ele>353.42</ele>
        <time>2012-07-17T10:56:02Z</time>
      </trkpt>
      <trkpt lat="44.20005" lon="2.04491">
        <ele>352.46</ele>
        <time>2012-07-17T10:56:06Z</time>
      </trkpt>
      <trkpt lat="44.19899" lon="2.04455">
        <ele>353.42</ele>
        <time>2012-07-17T10:56:31Z</time>
      </trkpt>
      <trkpt lat="44.19823" lon="2.04411">
        <ele>355.34</ele>
        <time>2012-07-17T10:56:53Z</time>
      </trkpt>
      <trkpt lat="44.19778" lon="2.04355">
        <ele>358.23</ele>
        <time>2012-07-17T10:57:15Z</time>
      </trkpt>
      <trkpt lat="44.19751" lon="2.04305">
        <ele>361.11</ele>
        <time>2012-07-17T10:57:34Z</time>
      </trkpt>
      <trkpt lat="44.19723" lon="2.04257">
        <ele>364.48</ele>
        <time>2012-07-17T10:57:53Z</time>
      </trkpt>
      <trkpt lat="44.19689" lon="2.04216">
        <ele>366.88</ele>
        <time>2012-07-17T10:58:12Z</time>
      </trkpt>
      <trkpt lat="44.19641" lon="2.0417">
        <ele>369.28</ele>
        <time>2012-07-17T10:58:36Z</time>
      </trkpt>
      <trkpt lat="44.1958" lon="2.04114">
        <ele>371.69</ele>
        <time>2012-07-17T10:59:01Z</time>
      </trkpt>
      <trkpt lat="44.19515" lon="2.04047">
        <ele>372.17</ele>
        <time>2012-07-17T10:59:22Z</time>
      </trkpt>
      <trkpt lat="44.19421" lon="2.03928">
        <ele>371.69</ele>
        <time>2012-07-17T10:59:47Z</time>
      </trkpt>
      <trkpt lat="44.19334" lon="2.03816">
        <ele>372.65</ele>
        <time>2012-07-17T11:00:13Z</time>
      </trkpt>
      <trkpt lat="44.19301" lon="2.03754">
        <ele>374.09</ele>
        <time>2012-07-17T11:00:31Z</time>
      </trkpt>
      <trkpt lat="44.19304" lon="2.03702">
        <ele>376.01</ele>
        <time>2012-07-17T11:00:45Z</time>
      </trkpt>
      <trkpt lat="44.19308" lon="2.03672">
        <ele>375.05</ele>
        <time>2012-07-17T11:00:51Z</time>
      </trkpt>
      <trkpt lat="44.19319" lon="2.03601">
        <ele>371.69</ele>
        <time>2012-07-17T11:01:00Z</time>
      </trkpt>
      <trkpt lat="44.19321" lon="2.03591">
        <ele>371.69</ele>
        <time>2012-07-17T11:01:01Z</time>
      </trkpt>
      <trkpt lat="44.19341" lon="2.035">
        <ele>368.32</ele>
        <time>2012-07-17T11:01:09Z</time>
      </trkpt>
      <trkpt lat="44.19358" lon="2.03427">
        <ele>364.96</ele>
        <time>2012-07-17T11:01:15Z</time>
      </trkpt>
      <trkpt lat="44.19381" lon="2.03317">
        <ele>362.07</ele>
        <time>2012-07-17T11:01:24Z</time>
      </trkpt>
      <trkpt lat="44.19399" lon="2.03237">
        <ele>360.15</ele>
        <time>2012-07-17T11:01:31Z</time>
      </trkpt>
      <trkpt lat="44.19424" lon="2.03197">
        <ele>358.71</ele>
        <time>2012-07-17T11:01:36Z</time>
      </trkpt>
      <trkpt lat="44.19456" lon="2.03189">
        <ele>356.79</ele>
        <time>2012-07-17T11:01:40Z</time>
      </trkpt>
      <trkpt lat="44.19502" lon="2.032">
        <ele>354.86</ele>
        <time>2012-07-17T11:01:46Z</time>
      </trkpt>
      <trkpt lat="44.19523" lon="2.03217">
        <ele>353.9</ele>
        <time>2012-07-17T11:01:49Z</time>
      </trkpt>
      <trkpt lat="44.19553" lon="2.03227">
        <ele>352.94</ele>
        <time>2012-07-17T11:01:53Z</time>
      </trkpt>
      <trkpt lat="44.19592" lon="2.03217">
        <ele>351.5</ele>
        <time>2012-07-17T11:01:58Z</time>
      </trkpt>
      <trkpt lat="44.19642" lon="2.03176">
        <ele>349.1</ele>
        <time>2012-07-17T11:02:05Z</time>
      </trkpt>
      <trkpt lat="44.19681" lon="2.0312">
        <ele>345.25</ele>
        <time>2012-07-17T11:02:11Z</time>
      </trkpt>
      <trkpt lat="44.19688" lon="2.03109">
        <ele>345.25</ele>
        <time>2012-07-17T11:02:12Z</time>
      </trkpt>
      <trkpt lat="44.19724" lon="2.0305">
        <ele>341.41</ele>
        <time>2012-07-17T11:02:17Z</time>
      </trkpt>
      <trkpt lat="44.19747" lon="2.03014">
        <ele>338.04</ele>
        <time>2012-07-17T11:02:20Z</time>
      </trkpt>
      <trkpt lat="44.19754" lon="2.03002">
        <ele>338.04</ele>
        <time>2012-07-17T11:02:21Z</time>
      </trkpt>
      <trkpt lat="44.1976" lon="2.02992">
        <ele>337.08</ele>
        <time>2012-07-17T11:02:22Z</time>
      </trkpt>
      <trkpt lat="44.19777" lon="2.02945">
        <ele>333.23</ele>
        <time>2012-07-17T11:02:26Z</time>
      </trkpt>
      <trkpt lat="44.19778" lon="2.02916">
        <ele>331.31</ele>
        <time>2012-07-17T11:02:28Z</time>
      </trkpt>
      <trkpt lat="44.19776" lon="2.02886">
        <ele>330.35</ele>
        <time>2012-07-17T11:02:30Z</time>
      </trkpt>
      <trkpt lat="44.19772" lon="2.02856">
        <ele>328.43</ele>
        <time>2012-07-17T11:02:32Z</time>
      </trkpt>
      <trkpt lat="44.19772" lon="2.02803">
        <ele>324.58</ele>
        <time>2012-07-17T11:02:36Z</time>
      </trkpt>
      <trkpt lat="44.19787" lon="2.02789">
        <ele>322.66</ele>
        <time>2012-07-17T11:02:38Z</time>
      </trkpt>
      <trkpt lat="44.19807" lon="2.02783">
        <ele>321.7</ele>
        <time>2012-07-17T11:02:40Z</time>
      </trkpt>
      <trkpt lat="44.19841" lon="2.02756">
        <ele>318.33</ele>
        <time>2012-07-17T11:02:44Z</time>
      </trkpt>
      <trkpt lat="44.19873" lon="2.02695">
        <ele>314.01</ele>
        <time>2012-07-17T11:02:49Z</time>
      </trkpt>
      <trkpt lat="44.19878" lon="2.02682">
        <ele>314.01</ele>
        <time>2012-07-17T11:02:50Z</time>
      </trkpt>
      <trkpt lat="44.19893" lon="2.02642">
        <ele>311.12</ele>
        <time>2012-07-17T11:02:53Z</time>
      </trkpt>
      <trkpt lat="44.19899" lon="2.02576">
        <ele>306.32</ele>
        <time>2012-07-17T11:02:58Z</time>
      </trkpt>
      <trkpt lat="44.19891" lon="2.0255">
        <ele>305.36</ele>
        <time>2012-07-17T11:03:00Z</time>
      </trkpt>
      <trkpt lat="44.19869" lon="2.02525">
        <ele>302.47</ele>
        <time>2012-07-17T11:03:03Z</time>
      </trkpt>
      <trkpt lat="44.1984" lon="2.02468">
        <ele>297.18</ele>
        <time>2012-07-17T11:03:09Z</time>
      </trkpt>
      <trkpt lat="44.19847" lon="2.02442">
        <ele>296.7</ele>
        <time>2012-07-17T11:03:11Z</time>
      </trkpt>
      <trkpt lat="44.19837" lon="2.0236">
        <ele>292.38</ele>
        <time>2012-07-17T11:03:17Z</time>
      </trkpt>
      <trkpt lat="44.19833" lon="2.02346">
        <ele>291.42</ele>
        <time>2012-07-17T11:03:18Z</time>
      </trkpt>
      <trkpt lat="44.19829" lon="2.02319">
        <ele>290.94</ele>
        <time>2012-07-17T11:03:20Z</time>
      </trkpt>
      <trkpt lat="44.19849" lon="2.02283">
        <ele>289.01</ele>
        <time>2012-07-17T11:03:24Z</time>
      </trkpt>
      <trkpt lat="44.19867" lon="2.0228">
        <ele>288.53</ele>
        <time>2012-07-17T11:03:26Z</time>
      </trkpt>
      <trkpt lat="44.19894" lon="2.02276">
        <ele>288.05</ele>
        <time>2012-07-17T11:03:30Z</time>
      </trkpt>
      <trkpt lat="44.19934" lon="2.02289">
        <ele>290.46</ele>
        <time>2012-07-17T11:03:41Z</time>
      </trkpt>
      <trkpt lat="44.19963" lon="2.0232">
        <ele>293.34</ele>
        <time>2012-07-17T11:03:59Z</time>
      </trkpt>
      <trkpt lat="44.1999" lon="2.02351">
        <ele>296.7</ele>
        <time>2012-07-17T11:04:17Z</time>
      </trkpt>
      <trkpt lat="44.2002" lon="2.02366">
        <ele>299.11</ele>
        <time>2012-07-17T11:04:35Z</time>
      </trkpt>
      <trkpt lat="44.20054" lon="2.02353">
        <ele>302.47</ele>
        <time>2012-07-17T11:04:54Z</time>
      </trkpt>
      <trkpt lat="44.20078" lon="2.02335">
        <ele>304.39</ele>
        <time>2012-07-17T11:05:09Z</time>
      </trkpt>
      <trkpt lat="44.20103" lon="2.02327">
        <ele>306.32</ele>
        <time>2012-07-17T11:05:22Z</time>
      </trkpt>
      <trkpt lat="44.20134" lon="2.02327">
        <ele>308.72</ele>
        <time>2012-07-17T11:05:38Z</time>
      </trkpt>
      <trkpt lat="44.20161" lon="2.02324">
        <ele>311.12</ele>
        <time>2012-07-17T11:05:54Z</time>
      </trkpt>
      <trkpt lat="44.20203" lon="2.02324">
        <ele>314.49</ele>
        <time>2012-07-17T11:06:17Z</time>
      </trkpt>
      <trkpt lat="44.20229" lon="2.02326">
        <ele>317.37</ele>
        <time>2012-07-17T11:06:32Z</time>
      </trkpt>
      <trkpt lat="44.20258" lon="2.02301">
        <ele>319.78</ele>
        <time>2012-07-17T11:06:51Z</time>
      </trkpt>
      <trkpt lat="44.20273" lon="2.02283">
        <ele>322.18</ele>
        <time>2012-07-17T11:07:03Z</time>
      </trkpt>
      <trkpt lat="44.20287" lon="2.02266">
        <ele>323.14</ele>
        <time>2012-07-17T11:07:15Z</time>
      </trkpt>
      <trkpt lat="44.20304" lon="2.0225">
        <ele>325.06</ele>
        <time>2012-07-17T11:07:27Z</time>
      </trkpt>
      <trkpt lat="44.20321" lon="2.02243">
        <ele>326.99</ele>
        <time>2012-07-17T11:07:39Z</time>
      </trkpt>
      <trkpt lat="44.20345" lon="2.02238">
        <ele>329.39</ele>
        <time>2012-07-17T11:07:54Z</time>
      </trkpt>
      <trkpt lat="44.20368" lon="2.02217">
        <ele>331.79</ele>
        <time>2012-07-17T11:08:11Z</time>
      </trkpt>
      <trkpt lat="44.20359" lon="2.02189">
        <ele>335.16</ele>
        <time>2012-07-17T11:08:25Z</time>
      </trkpt>
      <trkpt lat="44.20336" lon="2.02168">
        <ele>337.08</ele>
        <time>2012-07-17T11:08:43Z</time>
      </trkpt>
      <trkpt lat="44.2031" lon="2.02144">
        <ele>339</ele>
        <time>2012-07-17T11:09:01Z</time>
      </trkpt>
      <trkpt lat="44.20276" lon="2.02126">
        <ele>342.37</ele>
        <time>2012-07-17T11:09:24Z</time>
      </trkpt>
      <trkpt lat="44.2024" lon="2.02119">
        <ele>344.77</ele>
        <time>2012-07-17T11:09:47Z</time>
      </trkpt>
      <trkpt lat="44.20208" lon="2.02098">
        <ele>347.65</ele>
        <time>2012-07-17T11:10:09Z</time>
      </trkpt>
      <trkpt lat="44.20178" lon="2.0209">
        <ele>349.58</ele>
        <time>2012-07-17T11:10:29Z</time>
      </trkpt>
      <trkpt lat="44.20147" lon="2.02087">
        <ele>352.46</ele>
        <time>2012-07-17T11:10:49Z</time>
      </trkpt>
      <trkpt lat="44.20126" lon="2.0207">
        <ele>354.38</ele>
        <time>2012-07-17T11:11:06Z</time>
      </trkpt>
      <trkpt lat="44.20115" lon="2.02023">
        <ele>356.79</ele>
        <time>2012-07-17T11:11:27Z</time>
      </trkpt>
      <trkpt lat="44.20107" lon="2.01967">
        <ele>359.67</ele>
        <time>2012-07-17T11:11:52Z</time>
      </trkpt>
      <trkpt lat="44.20106" lon="2.01917">
        <ele>363.04</ele>
        <time>2012-07-17T11:12:15Z</time>
      </trkpt>
      <trkpt lat="44.20102" lon="2.01863">
        <ele>365.92</ele>
        <time>2012-07-17T11:12:39Z</time>
      </trkpt>
      <trkpt lat="44.20108" lon="2.01821">
        <ele>368.8</ele>
        <time>2012-07-17T11:13:01Z</time>
      </trkpt>
      <trkpt lat="44.2012" lon="2.01787">
        <ele>371.69</ele>
        <time>2012-07-17T11:13:21Z</time>
      </trkpt>
      <trkpt lat="44.20134" lon="2.01749">
        <ele>374.57</ele>
        <time>2012-07-17T11:13:44Z</time>
      </trkpt>
      <trkpt lat="44.20155" lon="2.01699">
        <ele>377.45</ele>
        <time>2012-07-17T11:14:13Z</time>
      </trkpt>
      <trkpt lat="44.2017" lon="2.0167">
        <ele>379.86</ele>
        <time>2012-07-17T11:14:33Z</time>
      </trkpt>
      <trkpt lat="44.20188" lon="2.01642">
        <ele>381.3</ele>
        <time>2012-07-17T11:14:52Z</time>
      </trkpt>
      <trkpt lat="44.20212" lon="2.01611">
        <ele>382.26</ele>
        <time>2012-07-17T11:15:14Z</time>
      </trkpt>
      <trkpt lat="44.20233" lon="2.01577">
        <ele>383.7</ele>
        <time>2012-07-17T11:15:36Z</time>
      </trkpt>
      <trkpt lat="44.20234" lon="2.01576">
        <ele>384.18</ele>
        <time>2012-07-17T11:15:50Z</time>
      </trkpt>
      <trkpt lat="44.20233" lon="2.01576">
        <ele>384.66</ele>
        <time>2012-07-17T11:16:42Z</time>
      </trkpt>
      <trkpt lat="44.20234" lon="2.01576">
        <ele>383.7</ele>
        <time>2012-07-17T11:17:10Z</time>
      </trkpt>
      <trkpt lat="44.20233" lon="2.01577">
        <ele>383.7</ele>
        <time>2012-07-17T11:17:27Z</time>
      </trkpt>
      <trkpt lat="44.20233" lon="2.01577">
        <ele>383.7</ele>
        <time>2012-07-17T11:17:36Z</time>
      </trkpt>
      <trkpt lat="44.20241" lon="2.01572">
        <ele>383.7</ele>
        <time>2012-07-17T11:17:44Z</time>
      </trkpt>
      <trkpt lat="44.20281" lon="2.01521">
        <ele>384.66</ele>
        <time>2012-07-17T11:18:06Z</time>
      </trkpt>
      <trkpt lat="44.20324" lon="2.01464">
        <ele>386.11</ele>
        <time>2012-07-17T11:18:28Z</time>
      </trkpt>
      <trkpt lat="44.20375" lon="2.01397">
        <ele>389.47</ele>
        <time>2012-07-17T11:18:55Z</time>
      </trkpt>
      <trkpt lat="44.20415" lon="2.01345">
        <ele>392.36</ele>
        <time>2012-07-17T11:19:16Z</time>
      </trkpt>
      <trkpt lat="44.20468" lon="2.01274">
        <ele>395.24</ele>
        <time>2012-07-17T11:19:44Z</time>
      </trkpt>
      <trkpt lat="44.20523" lon="2.01203">
        <ele>395.24</ele>
        <time>2012-07-17T11:20:04Z</time>
      </trkpt>
      <trkpt lat="44.20599" lon="2.01105">
        <ele>396.2</ele>
        <time>2012-07-17T11:20:29Z</time>
      </trkpt>
      <trkpt lat="44.20691" lon="2.00988">
        <ele>396.68</ele>
        <time>2012-07-17T11:21:00Z</time>
      </trkpt>
      <trkpt lat="44.20774" lon="2.00929">
        <ele>396.2</ele>
        <time>2012-07-17T11:21:21Z</time>
      </trkpt>
      <trkpt lat="44.20858" lon="2.0087">
        <ele>398.12</ele>
        <time>2012-07-17T11:21:46Z</time>
      </trkpt>
      <trkpt lat="44.20951" lon="2.00806">
        <ele>400.53</ele>
        <time>2012-07-17T11:22:17Z</time>
      </trkpt>
      <trkpt lat="44.2102" lon="2.00752">
        <ele>403.41</ele>
        <time>2012-07-17T11:22:44Z</time>
      </trkpt>
      <trkpt lat="44.21078" lon="2.00696">
        <ele>403.89</ele>
        <time>2012-07-17T11:23:07Z</time>
      </trkpt>
      <trkpt lat="44.21146" lon="2.00628">
        <ele>405.81</ele>
        <time>2012-07-17T11:23:34Z</time>
      </trkpt>
      <trkpt lat="44.21189" lon="2.00566">
        <ele>407.74</ele>
        <time>2012-07-17T11:23:55Z</time>
      </trkpt>
      <trkpt lat="44.21229" lon="2.00492">
        <ele>409.18</ele>
        <time>2012-07-17T11:24:17Z</time>
      </trkpt>
      <trkpt lat="44.21266" lon="2.00412">
        <ele>411.58</ele>
        <time>2012-07-17T11:24:43Z</time>
      </trkpt>
      <trkpt lat="44.21281" lon="2.00367">
        <ele>414.47</ele>
        <time>2012-07-17T11:25:01Z</time>
      </trkpt>
      <trkpt lat="44.21293" lon="2.00316">
        <ele>417.35</ele>
        <time>2012-07-17T11:25:21Z</time>
      </trkpt>
      <trkpt lat="44.21301" lon="2.00266">
        <ele>420.71</ele>
        <time>2012-07-17T11:25:43Z</time>
      </trkpt>
      <trkpt lat="44.21309" lon="2.00226">
        <ele>423.6</ele>
        <time>2012-07-17T11:26:01Z</time>
      </trkpt>
      <trkpt lat="44.2132" lon="2.00178">
        <ele>425.04</ele>
        <time>2012-07-17T11:26:22Z</time>
      </trkpt>
      <trkpt lat="44.21336" lon="2.00129">
        <ele>425.04</ele>
        <time>2012-07-17T11:26:40Z</time>
      </trkpt>
      <trkpt lat="44.21352" lon="2.00076">
        <ele>426</ele>
        <time>2012-07-17T11:26:58Z</time>
      </trkpt>
      <trkpt lat="44.21369" lon="1.99977">
        <ele>426.96</ele>
        <time>2012-07-17T11:27:25Z</time>
      </trkpt>
      <trkpt lat="44.21377" lon="1.99908">
        <ele>425.04</ele>
        <time>2012-07-17T11:27:39Z</time>
      </trkpt>
      <trkpt lat="44.21383" lon="1.99812">
        <ele>421.68</ele>
        <time>2012-07-17T11:27:48Z</time>
      </trkpt>
      <trkpt lat="44.21383" lon="1.99729">
        <ele>418.31</ele>
        <time>2012-07-17T11:27:55Z</time>
      </trkpt>
      <trkpt lat="44.21383" lon="1.99717">
        <ele>417.83</ele>
        <time>2012-07-17T11:27:56Z</time>
      </trkpt>
      <trkpt lat="44.21387" lon="1.99678">
        <ele>416.39</ele>
        <time>2012-07-17T11:27:59Z</time>
      </trkpt>
      <trkpt lat="44.21423" lon="1.99597">
        <ele>412.54</ele>
        <time>2012-07-17T11:28:06Z</time>
      </trkpt>
      <trkpt lat="44.21429" lon="1.99586">
        <ele>412.06</ele>
        <time>2012-07-17T11:28:07Z</time>
      </trkpt>
      <trkpt lat="44.21442" lon="1.99564">
        <ele>411.1</ele>
        <time>2012-07-17T11:28:09Z</time>
      </trkpt>
      <trkpt lat="44.21459" lon="1.99546">
        <ele>409.66</ele>
        <time>2012-07-17T11:28:11Z</time>
      </trkpt>
      <trkpt lat="44.21511" lon="1.99502">
        <ele>405.81</ele>
        <time>2012-07-17T11:28:17Z</time>
      </trkpt>
      <trkpt lat="44.2152" lon="1.99496">
        <ele>405.81</ele>
        <time>2012-07-17T11:28:18Z</time>
      </trkpt>
      <trkpt lat="44.21563" lon="1.99466">
        <ele>402.45</ele>
        <time>2012-07-17T11:28:23Z</time>
      </trkpt>
      <trkpt lat="44.21595" lon="1.9943">
        <ele>399.57</ele>
        <time>2012-07-17T11:28:27Z</time>
      </trkpt>
      <trkpt lat="44.21635" lon="1.99379">
        <ele>396.2</ele>
        <time>2012-07-17T11:28:32Z</time>
      </trkpt>
      <trkpt lat="44.21683" lon="1.9932">
        <ele>392.84</ele>
        <time>2012-07-17T11:28:38Z</time>
      </trkpt>
      <trkpt lat="44.21716" lon="1.99281">
        <ele>389.47</ele>
        <time>2012-07-17T11:28:42Z</time>
      </trkpt>
      <trkpt lat="44.21732" lon="1.99261">
        <ele>388.51</ele>
        <time>2012-07-17T11:28:44Z</time>
      </trkpt>
      <trkpt lat="44.21774" lon="1.99208">
        <ele>385.15</ele>
        <time>2012-07-17T11:28:49Z</time>
      </trkpt>
      <trkpt lat="44.21803" lon="1.99174">
        <ele>380.82</ele>
        <time>2012-07-17T11:28:52Z</time>
      </trkpt>
      <trkpt lat="44.21813" lon="1.99163">
        <ele>380.82</ele>
        <time>2012-07-17T11:28:53Z</time>
      </trkpt>
      <trkpt lat="44.21839" lon="1.9913">
        <ele>376.97</ele>
        <time>2012-07-17T11:28:56Z</time>
      </trkpt>
      <trkpt lat="44.21856" lon="1.9911">
        <ele>374.57</ele>
        <time>2012-07-17T11:28:58Z</time>
      </trkpt>
      <trkpt lat="44.21878" lon="1.99067">
        <ele>371.21</ele>
        <time>2012-07-17T11:29:02Z</time>
      </trkpt>
      <trkpt lat="44.21879" lon="1.99053">
        <ele>370.73</ele>
        <time>2012-07-17T11:29:03Z</time>
      </trkpt>
      <trkpt lat="44.21877" lon="1.99027">
        <ele>369.76</ele>
        <time>2012-07-17T11:29:05Z</time>
      </trkpt>
      <trkpt lat="44.21871" lon="1.98915">
        <ele>371.21</ele>
        <time>2012-07-17T11:29:17Z</time>
      </trkpt>
      <trkpt lat="44.21863" lon="1.98838">
        <ele>368.8</ele>
        <time>2012-07-17T11:29:31Z</time>
      </trkpt>
      <trkpt lat="44.21851" lon="1.98819">
        <ele>366.88</ele>
        <time>2012-07-17T11:29:42Z</time>
      </trkpt>
      <trkpt lat="44.21857" lon="1.9882">
        <ele>366.88</ele>
        <time>2012-07-17T11:29:59Z</time>
      </trkpt>
      <trkpt lat="44.21853" lon="1.98811">
        <ele>366.88</ele>
        <time>2012-07-17T11:30:21Z</time>
      </trkpt>
      <trkpt lat="44.21855" lon="1.98801">
        <ele>365.92</ele>
        <time>2012-07-17T11:30:37Z</time>
      </trkpt>
      <trkpt lat="44.21851" lon="1.98807">
        <ele>366.4</ele>
        <time>2012-07-17T11:30:49Z</time>
      </trkpt>
      <trkpt lat="44.21855" lon="1.9881">
        <ele>366.4</ele>
        <time>2012-07-17T11:31:01Z</time>
      </trkpt>
      <trkpt lat="44.21862" lon="1.98821">
        <ele>366.88</ele>
        <time>2012-07-17T11:31:17Z</time>
      </trkpt>
      <trkpt lat="44.21862" lon="1.9882">
        <ele>366.88</ele>
        <time>2012-07-17T11:31:19Z</time>
      </trkpt>
      <trkpt lat="44.21863" lon="1.98818">
        <ele>366.88</ele>
        <time>2012-07-17T11:31:21Z</time>
      </trkpt>
      <trkpt lat="44.21867" lon="1.98786">
        <ele>364.96</ele>
        <time>2012-07-17T11:31:42Z</time>
      </trkpt>
      <trkpt lat="44.21868" lon="1.98785">
        <ele>364.48</ele>
        <time>2012-07-17T11:32:05Z</time>
      </trkpt>
      <trkpt lat="44.21868" lon="1.98786">
        <ele>364.48</ele>
        <time>2012-07-17T11:32:38Z</time>
      </trkpt>
      <trkpt lat="44.21857" lon="1.98798">
        <ele>364.96</ele>
        <time>2012-07-17T11:32:52Z</time>
      </trkpt>
      <trkpt lat="44.21849" lon="1.98809">
        <ele>364.96</ele>
        <time>2012-07-17T11:33:01Z</time>
      </trkpt>
      <trkpt lat="44.21856" lon="1.98821">
        <ele>366.4</ele>
        <time>2012-07-17T11:33:15Z</time>
      </trkpt>
      <trkpt lat="44.21856" lon="1.9882">
        <ele>366.4</ele>
        <time>2012-07-17T11:33:40Z</time>
      </trkpt>
      <trkpt lat="44.21857" lon="1.98819">
        <ele>365.92</ele>
        <time>2012-07-17T11:34:50Z</time>
      </trkpt>
      <trkpt lat="44.21857" lon="1.98819">
        <ele>366.4</ele>
        <time>2012-07-17T11:36:32Z</time>
      </trkpt>
      <trkpt lat="44.21858" lon="1.98818">
        <ele>365.92</ele>
        <time>2012-07-17T11:36:55Z</time>
      </trkpt>
      <trkpt lat="44.21858" lon="1.98818">
        <ele>366.4</ele>
        <time>2012-07-17T11:37:23Z</time>
      </trkpt>
      <trkpt lat="44.21854" lon="1.9882">
        <ele>365.44</ele>
        <time>2012-07-17T11:37:34Z</time>
      </trkpt>
      <trkpt lat="44.21854" lon="1.9882">
        <ele>365.44</ele>
        <time>2012-07-17T11:37:36Z</time>
      </trkpt>
      <trkpt lat="44.21869" lon="1.98796">
        <ele>364.96</ele>
        <time>2012-07-17T11:37:46Z</time>
      </trkpt>
      <trkpt lat="44.21883" lon="1.98784">
        <ele>363.52</ele>
        <time>2012-07-17T11:37:50Z</time>
      </trkpt>
      <trkpt lat="44.21895" lon="1.98783">
        <ele>363.04</ele>
        <time>2012-07-17T11:37:54Z</time>
      </trkpt>
      <trkpt lat="44.21929" lon="1.98733">
        <ele>359.67</ele>
        <time>2012-07-17T11:38:02Z</time>
      </trkpt>
      <trkpt lat="44.21964" lon="1.9868">
        <ele>355.83</ele>
        <time>2012-07-17T11:38:08Z</time>
      </trkpt>
      <trkpt lat="44.21971" lon="1.98669">
        <ele>355.34</ele>
        <time>2012-07-17T11:38:09Z</time>
      </trkpt>
      <trkpt lat="44.21999" lon="1.98629">
        <ele>352.94</ele>
        <time>2012-07-17T11:38:13Z</time>
      </trkpt>
      <trkpt lat="44.2202" lon="1.98599">
        <ele>350.06</ele>
        <time>2012-07-17T11:38:16Z</time>
      </trkpt>
      <trkpt lat="44.22035" lon="1.98567">
        <ele>346.69</ele>
        <time>2012-07-17T11:38:20Z</time>
      </trkpt>
      <trkpt lat="44.22039" lon="1.98549">
        <ele>345.25</ele>
        <time>2012-07-17T11:38:23Z</time>
      </trkpt>
      <trkpt lat="44.22045" lon="1.98521">
        <ele>342.37</ele>
        <time>2012-07-17T11:38:34Z</time>
      </trkpt>
      <trkpt lat="44.22036" lon="1.98513">
        <ele>341.89</ele>
        <time>2012-07-17T11:38:38Z</time>
      </trkpt>
      <trkpt lat="44.22022" lon="1.98485">
        <ele>340.92</ele>
        <time>2012-07-17T11:38:42Z</time>
      </trkpt>
      <trkpt lat="44.22021" lon="1.98412">
        <ele>336.6</ele>
        <time>2012-07-17T11:38:48Z</time>
      </trkpt>
      <trkpt lat="44.2202" lon="1.98369">
        <ele>333.23</ele>
        <time>2012-07-17T11:38:51Z</time>
      </trkpt>
      <trkpt lat="44.22019" lon="1.98354">
        <ele>333.23</ele>
        <time>2012-07-17T11:38:52Z</time>
      </trkpt>
      <trkpt lat="44.22011" lon="1.98291">
        <ele>329.39</ele>
        <time>2012-07-17T11:38:56Z</time>
      </trkpt>
      <trkpt lat="44.21997" lon="1.98225">
        <ele>325.54</ele>
        <time>2012-07-17T11:39:00Z</time>
      </trkpt>
      <trkpt lat="44.21989" lon="1.98194">
        <ele>324.58</ele>
        <time>2012-07-17T11:39:02Z</time>
      </trkpt>
      <trkpt lat="44.21986" lon="1.98179">
        <ele>323.14</ele>
        <time>2012-07-17T11:39:03Z</time>
      </trkpt>
      <trkpt lat="44.21985" lon="1.9811">
        <ele>318.81</ele>
        <time>2012-07-17T11:39:08Z</time>
      </trkpt>
      <trkpt lat="44.21988" lon="1.98068">
        <ele>317.37</ele>
        <time>2012-07-17T11:39:11Z</time>
      </trkpt>
      <trkpt lat="44.21988" lon="1.98004">
        <ele>313.05</ele>
        <time>2012-07-17T11:39:16Z</time>
      </trkpt>
      <trkpt lat="44.2198" lon="1.97946">
        <ele>310.16</ele>
        <time>2012-07-17T11:39:20Z</time>
      </trkpt>
      <trkpt lat="44.21967" lon="1.97902">
        <ele>307.28</ele>
        <time>2012-07-17T11:39:23Z</time>
      </trkpt>
      <trkpt lat="44.2195" lon="1.97857">
        <ele>303.91</ele>
        <time>2012-07-17T11:39:26Z</time>
      </trkpt>
      <trkpt lat="44.2193" lon="1.97811">
        <ele>302.47</ele>
        <time>2012-07-17T11:39:29Z</time>
      </trkpt>
      <trkpt lat="44.219" lon="1.97756">
        <ele>298.15</ele>
        <time>2012-07-17T11:39:33Z</time>
      </trkpt>
      <trkpt lat="44.21872" lon="1.97705">
        <ele>294.78</ele>
        <time>2012-07-17T11:39:37Z</time>
      </trkpt>
      <trkpt lat="44.21859" lon="1.97678">
        <ele>293.82</ele>
        <time>2012-07-17T11:39:39Z</time>
      </trkpt>
      <trkpt lat="44.21843" lon="1.97634">
        <ele>291.42</ele>
        <time>2012-07-17T11:39:42Z</time>
      </trkpt>
      <trkpt lat="44.21788" lon="1.97536">
        <ele>287.57</ele>
        <time>2012-07-17T11:39:50Z</time>
      </trkpt>
      <trkpt lat="44.21751" lon="1.97483">
        <ele>284.69</ele>
        <time>2012-07-17T11:39:55Z</time>
      </trkpt>
      <trkpt lat="44.21729" lon="1.97419">
        <ele>282.28</ele>
        <time>2012-07-17T11:40:00Z</time>
      </trkpt>
      <trkpt lat="44.21718" lon="1.97262">
        <ele>278.44</ele>
        <time>2012-07-17T11:40:11Z</time>
      </trkpt>
      <trkpt lat="44.21702" lon="1.97137">
        <ele>275.07</ele>
        <time>2012-07-17T11:40:20Z</time>
      </trkpt>
      <trkpt lat="44.21699" lon="1.97097">
        <ele>274.11</ele>
        <time>2012-07-17T11:40:23Z</time>
      </trkpt>
      <trkpt lat="44.21688" lon="1.97047">
        <ele>272.67</ele>
        <time>2012-07-17T11:40:27Z</time>
      </trkpt>
      <trkpt lat="44.21679" lon="1.97025">
        <ele>271.23</ele>
        <time>2012-07-17T11:40:29Z</time>
      </trkpt>
      <trkpt lat="44.21671" lon="1.96939">
        <ele>267.86</ele>
        <time>2012-07-17T11:40:36Z</time>
      </trkpt>
      <trkpt lat="44.21679" lon="1.96892">
        <ele>265.46</ele>
        <time>2012-07-17T11:40:40Z</time>
      </trkpt>
      <trkpt lat="44.21694" lon="1.96847">
        <ele>264.02</ele>
        <time>2012-07-17T11:40:44Z</time>
      </trkpt>
      <trkpt lat="44.21702" lon="1.96808">
        <ele>262.58</ele>
        <time>2012-07-17T11:40:47Z</time>
      </trkpt>
      <trkpt lat="44.21698" lon="1.96737">
        <ele>260.17</ele>
        <time>2012-07-17T11:40:52Z</time>
      </trkpt>
      <trkpt lat="44.21668" lon="1.96646">
        <ele>256.33</ele>
        <time>2012-07-17T11:40:59Z</time>
      </trkpt>
      <trkpt lat="44.21678" lon="1.96575">
        <ele>252.96</ele>
        <time>2012-07-17T11:41:05Z</time>
      </trkpt>
      <trkpt lat="44.21709" lon="1.96589">
        <ele>250.56</ele>
        <time>2012-07-17T11:41:08Z</time>
      </trkpt>
      <trkpt lat="44.21736" lon="1.96604">
        <ele>249.12</ele>
        <time>2012-07-17T11:41:11Z</time>
      </trkpt>
      <trkpt lat="44.21771" lon="1.96629">
        <ele>246.72</ele>
        <time>2012-07-17T11:41:15Z</time>
      </trkpt>
      <trkpt lat="44.21806" lon="1.96675">
        <ele>243.35</ele>
        <time>2012-07-17T11:41:20Z</time>
      </trkpt>
      <trkpt lat="44.21851" lon="1.96714">
        <ele>239.02</ele>
        <time>2012-07-17T11:41:25Z</time>
      </trkpt>
      <trkpt lat="44.21871" lon="1.96725">
        <ele>237.58</ele>
        <time>2012-07-17T11:41:27Z</time>
      </trkpt>
      <trkpt lat="44.21891" lon="1.96741">
        <ele>236.62</ele>
        <time>2012-07-17T11:41:29Z</time>
      </trkpt>
      <trkpt lat="44.21906" lon="1.96766">
        <ele>234.7</ele>
        <time>2012-07-17T11:41:31Z</time>
      </trkpt>
      <trkpt lat="44.2193" lon="1.96827">
        <ele>230.37</ele>
        <time>2012-07-17T11:41:35Z</time>
      </trkpt>
      <trkpt lat="44.21942" lon="1.96856">
        <ele>228.45</ele>
        <time>2012-07-17T11:41:37Z</time>
      </trkpt>
      <trkpt lat="44.21979" lon="1.96921">
        <ele>224.61</ele>
        <time>2012-07-17T11:41:42Z</time>
      </trkpt>
      <trkpt lat="44.21993" lon="1.96955">
        <ele>222.2</ele>
        <time>2012-07-17T11:41:44Z</time>
      </trkpt>
      <trkpt lat="44.22011" lon="1.9702">
        <ele>218.84</ele>
        <time>2012-07-17T11:41:48Z</time>
      </trkpt>
      <trkpt lat="44.22021" lon="1.97073">
        <ele>215.95</ele>
        <time>2012-07-17T11:41:51Z</time>
      </trkpt>
      <trkpt lat="44.22033" lon="1.97139">
        <ele>211.63</ele>
        <time>2012-07-17T11:41:55Z</time>
      </trkpt>
      <trkpt lat="44.22041" lon="1.97186">
        <ele>210.19</ele>
        <time>2012-07-17T11:41:58Z</time>
      </trkpt>
      <trkpt lat="44.22073" lon="1.97233">
        <ele>207.3</ele>
        <time>2012-07-17T11:42:03Z</time>
      </trkpt>
      <trkpt lat="44.22123" lon="1.97242">
        <ele>205.86</ele>
        <time>2012-07-17T11:42:11Z</time>
      </trkpt>
      <trkpt lat="44.2212" lon="1.97243">
        <ele>205.38</ele>
        <time>2012-07-17T11:42:21Z</time>
      </trkpt>
      <trkpt lat="44.22119" lon="1.97243">
        <ele>205.38</ele>
        <time>2012-07-17T11:42:23Z</time>
      </trkpt>
      <trkpt lat="44.22115" lon="1.97242">
        <ele>205.86</ele>
        <time>2012-07-17T11:42:26Z</time>
      </trkpt>
      <trkpt lat="44.22104" lon="1.97239">
        <ele>205.38</ele>
        <time>2012-07-17T11:42:41Z</time>
      </trkpt>
      <trkpt lat="44.22104" lon="1.97239">
        <ele>205.86</ele>
        <time>2012-07-17T11:42:53Z</time>
      </trkpt>
      <trkpt lat="44.22107" lon="1.97239">
        <ele>206.34</ele>
        <time>2012-07-17T11:43:25Z</time>
      </trkpt>
      <trkpt lat="44.22107" lon="1.97239">
        <ele>206.34</ele>
        <time>2012-07-17T11:43:37Z</time>
      </trkpt>
      <trkpt lat="44.22102" lon="1.9723">
        <ele>206.82</ele>
        <time>2012-07-17T11:43:54Z</time>
      </trkpt>
      <trkpt lat="44.221" lon="1.97237">
        <ele>206.82</ele>
        <time>2012-07-17T11:44:13Z</time>
      </trkpt>
      <trkpt lat="44.221" lon="1.97236">
        <ele>206.82</ele>
        <time>2012-07-17T11:44:16Z</time>
      </trkpt>
      <trkpt lat="44.22107" lon="1.97234">
        <ele>206.34</ele>
        <time>2012-07-17T11:44:30Z</time>
      </trkpt>
      <trkpt lat="44.22115" lon="1.97233">
        <ele>206.34</ele>
        <time>2012-07-17T11:44:43Z</time>
      </trkpt>
      <trkpt lat="44.22116" lon="1.97236">
        <ele>205.38</ele>
        <time>2012-07-17T11:45:01Z</time>
      </trkpt>
      <trkpt lat="44.22119" lon="1.97241">
        <ele>205.38</ele>
        <time>2012-07-17T11:45:28Z</time>
      </trkpt>
      <trkpt lat="44.22124" lon="1.9724">
        <ele>204.9</ele>
        <time>2012-07-17T11:46:09Z</time>
      </trkpt>
      <trkpt lat="44.22123" lon="1.97243">
        <ele>205.38</ele>
        <time>2012-07-17T11:46:25Z</time>
      </trkpt>
      <trkpt lat="44.22126" lon="1.97242">
        <ele>204.9</ele>
        <time>2012-07-17T11:46:36Z</time>
      </trkpt>
      <trkpt lat="44.22134" lon="1.97237">
        <ele>204.9</ele>
        <time>2012-07-17T11:46:40Z</time>
      </trkpt>
      <trkpt lat="44.22145" lon="1.97154">
        <ele>204.42</ele>
        <time>2012-07-17T11:46:56Z</time>
      </trkpt>
      <trkpt lat="44.22155" lon="1.97082">
        <ele>203.46</ele>
        <time>2012-07-17T11:47:05Z</time>
      </trkpt>
      <trkpt lat="44.22199" lon="1.96977">
        <ele>202.01</ele>
        <time>2012-07-17T11:47:20Z</time>
      </trkpt>
      <trkpt lat="44.22221" lon="1.96936">
        <ele>203.94</ele>
        <time>2012-07-17T11:47:31Z</time>
      </trkpt>
      <trkpt lat="44.22239" lon="1.96936">
        <ele>205.86</ele>
        <time>2012-07-17T11:47:42Z</time>
      </trkpt>
      <trkpt lat="44.22265" lon="1.96941">
        <ele>209.22</ele>
        <time>2012-07-17T11:47:57Z</time>
      </trkpt>
      <trkpt lat="44.22287" lon="1.96952">
        <ele>212.11</ele>
        <time>2012-07-17T11:48:13Z</time>
      </trkpt>
      <trkpt lat="44.22309" lon="1.96973">
        <ele>215.47</ele>
        <time>2012-07-17T11:48:28Z</time>
      </trkpt>
      <trkpt lat="44.22334" lon="1.96989">
        <ele>216.91</ele>
        <time>2012-07-17T11:48:43Z</time>
      </trkpt>
      <trkpt lat="44.22359" lon="1.96995">
        <ele>219.32</ele>
        <time>2012-07-17T11:48:59Z</time>
      </trkpt>
      <trkpt lat="44.22395" lon="1.97001">
        <ele>220.28</ele>
        <time>2012-07-17T11:49:14Z</time>
      </trkpt>
      <trkpt lat="44.22465" lon="1.97024">
        <ele>217.88</ele>
        <time>2012-07-17T11:49:26Z</time>
      </trkpt>
      <trkpt lat="44.22472" lon="1.97026">
        <ele>217.4</ele>
        <time>2012-07-17T11:49:27Z</time>
      </trkpt>
      <trkpt lat="44.22492" lon="1.9703">
        <ele>216.91</ele>
        <time>2012-07-17T11:49:30Z</time>
      </trkpt>
      <trkpt lat="44.22504" lon="1.97028">
        <ele>216.91</ele>
        <time>2012-07-17T11:49:32Z</time>
      </trkpt>
      <trkpt lat="44.22537" lon="1.97009">
        <ele>217.4</ele>
        <time>2012-07-17T11:49:39Z</time>
      </trkpt>
      <trkpt lat="44.22594" lon="1.97034">
        <ele>217.88</ele>
        <time>2012-07-17T11:49:50Z</time>
      </trkpt>
      <trkpt lat="44.22604" lon="1.97037">
        <ele>217.88</ele>
        <time>2012-07-17T11:49:53Z</time>
      </trkpt>
      <trkpt lat="44.22616" lon="1.97041">
        <ele>217.4</ele>
        <time>2012-07-17T11:49:56Z</time>
      </trkpt>
      <trkpt lat="44.22628" lon="1.97047">
        <ele>217.4</ele>
        <time>2012-07-17T11:49:58Z</time>
      </trkpt>
      <trkpt lat="44.22644" lon="1.9707">
        <ele>216.91</ele>
        <time>2012-07-17T11:50:04Z</time>
      </trkpt>
      <trkpt lat="44.2269" lon="1.97089">
        <ele>219.32</ele>
        <time>2012-07-17T11:50:14Z</time>
      </trkpt>
      <trkpt lat="44.22745" lon="1.97119">
        <ele>222.68</ele>
        <time>2012-07-17T11:50:34Z</time>
      </trkpt>
      <trkpt lat="44.22785" lon="1.97119">
        <ele>225.09</ele>
        <time>2012-07-17T11:50:50Z</time>
      </trkpt>
      <trkpt lat="44.22803" lon="1.97122">
        <ele>226.05</ele>
        <time>2012-07-17T11:50:59Z</time>
      </trkpt>
      <trkpt lat="44.22822" lon="1.97141">
        <ele>227.97</ele>
        <time>2012-07-17T11:51:10Z</time>
      </trkpt>
      <trkpt lat="44.22862" lon="1.97161">
        <ele>230.85</ele>
        <time>2012-07-17T11:51:27Z</time>
      </trkpt>
      <trkpt lat="44.2289" lon="1.97175">
        <ele>232.78</ele>
        <time>2012-07-17T11:51:39Z</time>
      </trkpt>
      <trkpt lat="44.22911" lon="1.972">
        <ele>234.7</ele>
        <time>2012-07-17T11:51:51Z</time>
      </trkpt>
      <trkpt lat="44.22939" lon="1.97231">
        <ele>236.62</ele>
        <time>2012-07-17T11:52:04Z</time>
      </trkpt>
      <trkpt lat="44.22958" lon="1.97274">
        <ele>239.02</ele>
        <time>2012-07-17T11:52:20Z</time>
      </trkpt>
      <trkpt lat="44.2296" lon="1.97276">
        <ele>239.51</ele>
        <time>2012-07-17T11:52:21Z</time>
      </trkpt>
      <trkpt lat="44.22984" lon="1.97273">
        <ele>240.95</ele>
        <time>2012-07-17T11:52:32Z</time>
      </trkpt>
      <trkpt lat="44.23015" lon="1.9729">
        <ele>242.87</ele>
        <time>2012-07-17T11:52:45Z</time>
      </trkpt>
      <trkpt lat="44.23044" lon="1.97318">
        <ele>245.75</ele>
        <time>2012-07-17T11:53:02Z</time>
      </trkpt>
      <trkpt lat="44.23066" lon="1.97337">
        <ele>247.68</ele>
        <time>2012-07-17T11:53:15Z</time>
      </trkpt>
      <trkpt lat="44.23086" lon="1.97361">
        <ele>250.08</ele>
        <time>2012-07-17T11:53:30Z</time>
      </trkpt>
      <trkpt lat="44.231" lon="1.97382">
        <ele>252</ele>
        <time>2012-07-17T11:53:42Z</time>
      </trkpt>
      <trkpt lat="44.23104" lon="1.97393">
        <ele>252.48</ele>
        <time>2012-07-17T11:53:47Z</time>
      </trkpt>
      <trkpt lat="44.23113" lon="1.97423">
        <ele>253.93</ele>
        <time>2012-07-17T11:53:59Z</time>
      </trkpt>
      <trkpt lat="44.23119" lon="1.97465">
        <ele>256.81</ele>
        <time>2012-07-17T11:54:19Z</time>
      </trkpt>
      <trkpt lat="44.23132" lon="1.97496">
        <ele>259.21</ele>
        <time>2012-07-17T11:54:35Z</time>
      </trkpt>
      <trkpt lat="44.23162" lon="1.97509">
        <ele>262.1</ele>
        <time>2012-07-17T11:54:55Z</time>
      </trkpt>
      <trkpt lat="44.232" lon="1.97522">
        <ele>264.98</ele>
        <time>2012-07-17T11:55:18Z</time>
      </trkpt>
      <trkpt lat="44.2322" lon="1.97533">
        <ele>266.9</ele>
        <time>2012-07-17T11:55:32Z</time>
      </trkpt>
      <trkpt lat="44.23246" lon="1.97542">
        <ele>269.31</ele>
        <time>2012-07-17T11:55:48Z</time>
      </trkpt>
      <trkpt lat="44.23271" lon="1.9755">
        <ele>271.71</ele>
        <time>2012-07-17T11:56:06Z</time>
      </trkpt>
      <trkpt lat="44.23303" lon="1.97586">
        <ele>274.59</ele>
        <time>2012-07-17T11:56:28Z</time>
      </trkpt>
      <trkpt lat="44.23327" lon="1.97629">
        <ele>277.48</ele>
        <time>2012-07-17T11:56:50Z</time>
      </trkpt>
      <trkpt lat="44.23336" lon="1.97666">
        <ele>278.92</ele>
        <time>2012-07-17T11:57:06Z</time>
      </trkpt>
      <trkpt lat="44.23368" lon="1.97684">
        <ele>280.84</ele>
        <time>2012-07-17T11:57:23Z</time>
      </trkpt>
      <trkpt lat="44.23408" lon="1.97694">
        <ele>282.28</ele>
        <time>2012-07-17T11:57:45Z</time>
      </trkpt>
      <trkpt lat="44.23441" lon="1.97709">
        <ele>284.69</ele>
        <time>2012-07-17T11:58:04Z</time>
      </trkpt>
      <trkpt lat="44.2348" lon="1.97737">
        <ele>288.05</ele>
        <time>2012-07-17T11:58:27Z</time>
      </trkpt>
      <trkpt lat="44.23512" lon="1.97765">
        <ele>290.94</ele>
        <time>2012-07-17T11:58:46Z</time>
      </trkpt>
      <trkpt lat="44.23547" lon="1.97791">
        <ele>293.82</ele>
        <time>2012-07-17T11:59:07Z</time>
      </trkpt>
      <trkpt lat="44.23586" lon="1.97806">
        <ele>295.74</ele>
        <time>2012-07-17T11:59:29Z</time>
      </trkpt>
      <trkpt lat="44.23613" lon="1.97788">
        <ele>296.7</ele>
        <time>2012-07-17T11:59:46Z</time>
      </trkpt>
      <trkpt lat="44.23643" lon="1.97768">
        <ele>299.59</ele>
        <time>2012-07-17T12:00:05Z</time>
      </trkpt>
      <trkpt lat="44.23675" lon="1.97759">
        <ele>301.99</ele>
        <time>2012-07-17T12:00:23Z</time>
      </trkpt>
      <trkpt lat="44.23703" lon="1.97742">
        <ele>304.39</ele>
        <time>2012-07-17T12:00:40Z</time>
      </trkpt>
      <trkpt lat="44.23727" lon="1.97724">
        <ele>306.32</ele>
        <time>2012-07-17T12:00:56Z</time>
      </trkpt>
      <trkpt lat="44.23752" lon="1.97681">
        <ele>308.72</ele>
        <time>2012-07-17T12:01:18Z</time>
      </trkpt>
      <trkpt lat="44.2377" lon="1.97656">
        <ele>310.16</ele>
        <time>2012-07-17T12:01:32Z</time>
      </trkpt>
      <trkpt lat="44.23796" lon="1.9764">
        <ele>312.09</ele>
        <time>2012-07-17T12:01:49Z</time>
      </trkpt>
      <trkpt lat="44.23824" lon="1.97634">
        <ele>314.01</ele>
        <time>2012-07-17T12:02:06Z</time>
      </trkpt>
      <trkpt lat="44.23859" lon="1.9764">
        <ele>316.41</ele>
        <time>2012-07-17T12:02:25Z</time>
      </trkpt>
      <trkpt lat="44.23896" lon="1.97642">
        <ele>319.3</ele>
        <time>2012-07-17T12:02:48Z</time>
      </trkpt>
      <trkpt lat="44.23922" lon="1.97671">
        <ele>322.18</ele>
        <time>2012-07-17T12:03:07Z</time>
      </trkpt>
      <trkpt lat="44.23952" lon="1.97666">
        <ele>324.1</ele>
        <time>2012-07-17T12:03:25Z</time>
      </trkpt>
      <trkpt lat="44.23972" lon="1.97666">
        <ele>325.06</ele>
        <time>2012-07-17T12:03:41Z</time>
      </trkpt>
      <trkpt lat="44.23976" lon="1.97666">
        <ele>324.58</ele>
        <time>2012-07-17T12:04:56Z</time>
      </trkpt>
      <trkpt lat="44.24001" lon="1.97668">
        <ele>324.1</ele>
        <time>2012-07-17T12:05:04Z</time>
      </trkpt>
      <trkpt lat="44.24039" lon="1.9766">
        <ele>322.66</ele>
        <time>2012-07-17T12:05:11Z</time>
      </trkpt>
      <trkpt lat="44.24117" lon="1.97647">
        <ele>321.22</ele>
        <time>2012-07-17T12:05:23Z</time>
      </trkpt>
      <trkpt lat="44.24128" lon="1.97658">
        <ele>322.18</ele>
        <time>2012-07-17T12:05:27Z</time>
      </trkpt>
      <trkpt lat="44.24158" lon="1.97709">
        <ele>325.06</ele>
        <time>2012-07-17T12:05:45Z</time>
      </trkpt>
      <trkpt lat="44.24177" lon="1.97771">
        <ele>327.95</ele>
        <time>2012-07-17T12:06:09Z</time>
      </trkpt>
      <trkpt lat="44.24207" lon="1.978">
        <ele>330.35</ele>
        <time>2012-07-17T12:06:28Z</time>
      </trkpt>
      <trkpt lat="44.2423" lon="1.97813">
        <ele>333.23</ele>
        <time>2012-07-17T12:06:44Z</time>
      </trkpt>
      <trkpt lat="44.24252" lon="1.97821">
        <ele>335.16</ele>
        <time>2012-07-17T12:06:59Z</time>
      </trkpt>
      <trkpt lat="44.24257" lon="1.97822">
        <ele>335.64</ele>
        <time>2012-07-17T12:07:02Z</time>
      </trkpt>
      <trkpt lat="44.24266" lon="1.97826">
        <ele>336.6</ele>
        <time>2012-07-17T12:07:09Z</time>
      </trkpt>
      <trkpt lat="44.24289" lon="1.9783">
        <ele>338.52</ele>
        <time>2012-07-17T12:07:25Z</time>
      </trkpt>
      <trkpt lat="44.24314" lon="1.97836">
        <ele>340.44</ele>
        <time>2012-07-17T12:07:39Z</time>
      </trkpt>
      <trkpt lat="44.24339" lon="1.97828">
        <ele>342.85</ele>
        <time>2012-07-17T12:07:54Z</time>
      </trkpt>
      <trkpt lat="44.24347" lon="1.97824">
        <ele>343.33</ele>
        <time>2012-07-17T12:07:59Z</time>
      </trkpt>
      <trkpt lat="44.24364" lon="1.97809">
        <ele>344.77</ele>
        <time>2012-07-17T12:08:10Z</time>
      </trkpt>
      <trkpt lat="44.24367" lon="1.97803">
        <ele>345.25</ele>
        <time>2012-07-17T12:08:13Z</time>
      </trkpt>
      <trkpt lat="44.24364" lon="1.97792">
        <ele>346.21</ele>
        <time>2012-07-17T12:08:19Z</time>
      </trkpt>
      <trkpt lat="44.24357" lon="1.97792">
        <ele>346.69</ele>
        <time>2012-07-17T12:08:24Z</time>
      </trkpt>
      <trkpt lat="44.24351" lon="1.97796">
        <ele>347.65</ele>
        <time>2012-07-17T12:08:29Z</time>
      </trkpt>
      <trkpt lat="44.24343" lon="1.97807">
        <ele>348.13</ele>
        <time>2012-07-17T12:08:36Z</time>
      </trkpt>
      <trkpt lat="44.24312" lon="1.978">
        <ele>350.06</ele>
        <time>2012-07-17T12:08:52Z</time>
      </trkpt>
      <trkpt lat="44.24286" lon="1.97777">
        <ele>351.98</ele>
        <time>2012-07-17T12:09:10Z</time>
      </trkpt>
      <trkpt lat="44.24254" lon="1.97751">
        <ele>354.86</ele>
        <time>2012-07-17T12:09:31Z</time>
      </trkpt>
      <trkpt lat="44.2424" lon="1.9773">
        <ele>355.83</ele>
        <time>2012-07-17T12:09:44Z</time>
      </trkpt>
      <trkpt lat="44.24249" lon="1.97724">
        <ele>356.79</ele>
        <time>2012-07-17T12:09:50Z</time>
      </trkpt>
      <trkpt lat="44.2427" lon="1.97746">
        <ele>359.19</ele>
        <time>2012-07-17T12:10:06Z</time>
      </trkpt>
      <trkpt lat="44.24299" lon="1.97761">
        <ele>361.11</ele>
        <time>2012-07-17T12:10:26Z</time>
      </trkpt>
      <trkpt lat="44.2433" lon="1.97757">
        <ele>364.48</ele>
        <time>2012-07-17T12:10:45Z</time>
      </trkpt>
      <trkpt lat="44.24357" lon="1.97745">
        <ele>366.4</ele>
        <time>2012-07-17T12:11:03Z</time>
      </trkpt>
      <trkpt lat="44.2438" lon="1.97729">
        <ele>367.84</ele>
        <time>2012-07-17T12:11:20Z</time>
      </trkpt>
      <trkpt lat="44.24403" lon="1.97725">
        <ele>369.76</ele>
        <time>2012-07-17T12:11:36Z</time>
      </trkpt>
      <trkpt lat="44.24425" lon="1.97732">
        <ele>371.69</ele>
        <time>2012-07-17T12:11:49Z</time>
      </trkpt>
      <trkpt lat="44.24448" lon="1.9774">
        <ele>373.61</ele>
        <time>2012-07-17T12:12:04Z</time>
      </trkpt>
      <trkpt lat="44.2447" lon="1.97752">
        <ele>375.53</ele>
        <time>2012-07-17T12:12:19Z</time>
      </trkpt>
      <trkpt lat="44.24498" lon="1.97765">
        <ele>377.45</ele>
        <time>2012-07-17T12:12:37Z</time>
      </trkpt>
      <trkpt lat="44.24529" lon="1.97776">
        <ele>379.38</ele>
        <time>2012-07-17T12:12:57Z</time>
      </trkpt>
      <trkpt lat="44.24555" lon="1.97771">
        <ele>379.38</ele>
        <time>2012-07-17T12:13:11Z</time>
      </trkpt>
      <trkpt lat="44.24595" lon="1.97751">
        <ele>379.86</ele>
        <time>2012-07-17T12:13:27Z</time>
      </trkpt>
      <trkpt lat="44.24627" lon="1.97738">
        <ele>380.82</ele>
        <time>2012-07-17T12:13:41Z</time>
      </trkpt>
      <trkpt lat="44.24674" lon="1.97737">
        <ele>383.7</ele>
        <time>2012-07-17T12:14:02Z</time>
      </trkpt>
      <trkpt lat="44.24708" lon="1.97737">
        <ele>385.63</ele>
        <time>2012-07-17T12:14:19Z</time>
      </trkpt>
      <trkpt lat="44.24734" lon="1.97737">
        <ele>388.03</ele>
        <time>2012-07-17T12:14:36Z</time>
      </trkpt>
      <trkpt lat="44.24755" lon="1.97731">
        <ele>389.47</ele>
        <time>2012-07-17T12:14:50Z</time>
      </trkpt>
      <trkpt lat="44.24782" lon="1.97734">
        <ele>391.39</ele>
        <time>2012-07-17T12:15:06Z</time>
      </trkpt>
      <trkpt lat="44.24817" lon="1.97765">
        <ele>393.8</ele>
        <time>2012-07-17T12:15:28Z</time>
      </trkpt>
      <trkpt lat="44.24849" lon="1.97808">
        <ele>395.24</ele>
        <time>2012-07-17T12:15:48Z</time>
      </trkpt>
      <trkpt lat="44.24849" lon="1.97875">
        <ele>396.2</ele>
        <time>2012-07-17T12:16:05Z</time>
      </trkpt>
      <trkpt lat="44.24866" lon="1.9793">
        <ele>396.68</ele>
        <time>2012-07-17T12:16:20Z</time>
      </trkpt>
      <trkpt lat="44.24902" lon="1.97956">
        <ele>399.08</ele>
        <time>2012-07-17T12:16:41Z</time>
      </trkpt>
      <trkpt lat="44.24919" lon="1.98">
        <ele>400.53</ele>
        <time>2012-07-17T12:16:58Z</time>
      </trkpt>
      <trkpt lat="44.2494" lon="1.98062">
        <ele>403.41</ele>
        <time>2012-07-17T12:17:21Z</time>
      </trkpt>
      <trkpt lat="44.24968" lon="1.98113">
        <ele>405.33</ele>
        <time>2012-07-17T12:17:43Z</time>
      </trkpt>
      <trkpt lat="44.24993" lon="1.98145">
        <ele>408.22</ele>
        <time>2012-07-17T12:18:03Z</time>
      </trkpt>
      <trkpt lat="44.25004" lon="1.98182">
        <ele>410.14</ele>
        <time>2012-07-17T12:18:19Z</time>
      </trkpt>
      <trkpt lat="44.25013" lon="1.98223">
        <ele>412.54</ele>
        <time>2012-07-17T12:18:42Z</time>
      </trkpt>
      <trkpt lat="44.25015" lon="1.98228">
        <ele>412.06</ele>
        <time>2012-07-17T12:18:59Z</time>
      </trkpt>
      <trkpt lat="44.25016" lon="1.98229">
        <ele>412.06</ele>
        <time>2012-07-17T12:19:33Z</time>
      </trkpt>
      <trkpt lat="44.25015" lon="1.98228">
        <ele>412.06</ele>
        <time>2012-07-17T12:20:23Z</time>
      </trkpt>
      <trkpt lat="44.25014" lon="1.98227">
        <ele>412.54</ele>
        <time>2012-07-17T12:22:45Z</time>
      </trkpt>
      <trkpt lat="44.25015" lon="1.98228">
        <ele>413.02</ele>
        <time>2012-07-17T12:23:39Z</time>
      </trkpt>
      <trkpt lat="44.25016" lon="1.98228">
        <ele>413.5</ele>
        <time>2012-07-17T12:23:45Z</time>
      </trkpt>
      <trkpt lat="44.25027" lon="1.98245">
        <ele>414.95</ele>
        <time>2012-07-17T12:23:59Z</time>
      </trkpt>
      <trkpt lat="44.25048" lon="1.98273">
        <ele>416.87</ele>
        <time>2012-07-17T12:24:19Z</time>
      </trkpt>
      <trkpt lat="44.25072" lon="1.98309">
        <ele>419.75</ele>
        <time>2012-07-17T12:24:43Z</time>
      </trkpt>
      <trkpt lat="44.25101" lon="1.98352">
        <ele>422.64</ele>
        <time>2012-07-17T12:25:09Z</time>
      </trkpt>
      <trkpt lat="44.25118" lon="1.98385">
        <ele>425.52</ele>
        <time>2012-07-17T12:25:29Z</time>
      </trkpt>
      <trkpt lat="44.2514" lon="1.98396">
        <ele>427.44</ele>
        <time>2012-07-17T12:25:46Z</time>
      </trkpt>
      <trkpt lat="44.25164" lon="1.98372">
        <ele>429.85</ele>
        <time>2012-07-17T12:26:07Z</time>
      </trkpt>
      <trkpt lat="44.25185" lon="1.98335">
        <ele>432.73</ele>
        <time>2012-07-17T12:26:28Z</time>
      </trkpt>
      <trkpt lat="44.2521" lon="1.98313">
        <ele>435.13</ele>
        <time>2012-07-17T12:26:47Z</time>
      </trkpt>
      <trkpt lat="44.25235" lon="1.98303">
        <ele>437.06</ele>
        <time>2012-07-17T12:27:05Z</time>
      </trkpt>
      <trkpt lat="44.2526" lon="1.98307">
        <ele>436.58</ele>
        <time>2012-07-17T12:27:13Z</time>
      </trkpt>
      <trkpt lat="44.25291" lon="1.98345">
        <ele>435.13</ele>
        <time>2012-07-17T12:27:19Z</time>
      </trkpt>
      <trkpt lat="44.2531" lon="1.98389">
        <ele>432.73</ele>
        <time>2012-07-17T12:27:24Z</time>
      </trkpt>
      <trkpt lat="44.25331" lon="1.98411">
        <ele>431.77</ele>
        <time>2012-07-17T12:27:27Z</time>
      </trkpt>
      <trkpt lat="44.25367" lon="1.98451">
        <ele>428.4</ele>
        <time>2012-07-17T12:27:32Z</time>
      </trkpt>
      <trkpt lat="44.25407" lon="1.98516">
        <ele>425.52</ele>
        <time>2012-07-17T12:27:38Z</time>
      </trkpt>
      <trkpt lat="44.25413" lon="1.98527">
        <ele>424.56</ele>
        <time>2012-07-17T12:27:39Z</time>
      </trkpt>
      <trkpt lat="44.25441" lon="1.98563">
        <ele>421.68</ele>
        <time>2012-07-17T12:27:43Z</time>
      </trkpt>
      <trkpt lat="44.25451" lon="1.98618">
        <ele>419.27</ele>
        <time>2012-07-17T12:27:48Z</time>
      </trkpt>
      <trkpt lat="44.25443" lon="1.98644">
        <ele>417.83</ele>
        <time>2012-07-17T12:27:50Z</time>
      </trkpt>
      <trkpt lat="44.25438" lon="1.9871">
        <ele>414.47</ele>
        <time>2012-07-17T12:27:55Z</time>
      </trkpt>
      <trkpt lat="44.25462" lon="1.9877">
        <ele>411.58</ele>
        <time>2012-07-17T12:28:00Z</time>
      </trkpt>
      <trkpt lat="44.25478" lon="1.98786">
        <ele>410.14</ele>
        <time>2012-07-17T12:28:02Z</time>
      </trkpt>
      <trkpt lat="44.25485" lon="1.98862">
        <ele>406.29</ele>
        <time>2012-07-17T12:28:08Z</time>
      </trkpt>
      <trkpt lat="44.25485" lon="1.98876">
        <ele>406.29</ele>
        <time>2012-07-17T12:28:09Z</time>
      </trkpt>
      <trkpt lat="44.25483" lon="1.98936">
        <ele>402.93</ele>
        <time>2012-07-17T12:28:13Z</time>
      </trkpt>
      <trkpt lat="44.25481" lon="1.98968">
        <ele>400.53</ele>
        <time>2012-07-17T12:28:15Z</time>
      </trkpt>
      <trkpt lat="44.25484" lon="1.99019">
        <ele>397.16</ele>
        <time>2012-07-17T12:28:18Z</time>
      </trkpt>
      <trkpt lat="44.25488" lon="1.99054">
        <ele>396.2</ele>
        <time>2012-07-17T12:28:20Z</time>
      </trkpt>
      <trkpt lat="44.25488" lon="1.99085">
        <ele>393.32</ele>
        <time>2012-07-17T12:28:22Z</time>
      </trkpt>
      <trkpt lat="44.25511" lon="1.99135">
        <ele>388.99</ele>
        <time>2012-07-17T12:28:27Z</time>
      </trkpt>
      <trkpt lat="44.25524" lon="1.99133">
        <ele>388.03</ele>
        <time>2012-07-17T12:28:28Z</time>
      </trkpt>
      <trkpt lat="44.25568" lon="1.99134">
        <ele>385.15</ele>
        <time>2012-07-17T12:28:32Z</time>
      </trkpt>
      <trkpt lat="44.2558" lon="1.99134">
        <ele>383.7</ele>
        <time>2012-07-17T12:28:33Z</time>
      </trkpt>
      <trkpt lat="44.25625" lon="1.99152">
        <ele>379.38</ele>
        <time>2012-07-17T12:28:37Z</time>
      </trkpt>
      <trkpt lat="44.25666" lon="1.99195">
        <ele>375.05</ele>
        <time>2012-07-17T12:28:41Z</time>
      </trkpt>
      <trkpt lat="44.25678" lon="1.99203">
        <ele>375.05</ele>
        <time>2012-07-17T12:28:42Z</time>
      </trkpt>
      <trkpt lat="44.25713" lon="1.99224">
        <ele>371.69</ele>
        <time>2012-07-17T12:28:45Z</time>
      </trkpt>
      <trkpt lat="44.2575" lon="1.99245">
        <ele>368.8</ele>
        <time>2012-07-17T12:28:48Z</time>
      </trkpt>
      <trkpt lat="44.25774" lon="1.99261">
        <ele>366.4</ele>
        <time>2012-07-17T12:28:50Z</time>
      </trkpt>
      <trkpt lat="44.25806" lon="1.99293">
        <ele>364.48</ele>
        <time>2012-07-17T12:28:53Z</time>
      </trkpt>
      <trkpt lat="44.25826" lon="1.99318">
        <ele>362.07</ele>
        <time>2012-07-17T12:28:55Z</time>
      </trkpt>
      <trkpt lat="44.2587" lon="1.99352">
        <ele>357.75</ele>
        <time>2012-07-17T12:28:59Z</time>
      </trkpt>
      <trkpt lat="44.25897" lon="1.99389">
        <ele>353.9</ele>
        <time>2012-07-17T12:29:02Z</time>
      </trkpt>
      <trkpt lat="44.25903" lon="1.99406">
        <ele>352.46</ele>
        <time>2012-07-17T12:29:03Z</time>
      </trkpt>
      <trkpt lat="44.25917" lon="1.9945">
        <ele>350.06</ele>
        <time>2012-07-17T12:29:06Z</time>
      </trkpt>
      <trkpt lat="44.25953" lon="1.99471">
        <ele>345.73</ele>
        <time>2012-07-17T12:29:11Z</time>
      </trkpt>
      <trkpt lat="44.2599" lon="1.99445">
        <ele>342.85</ele>
        <time>2012-07-17T12:29:15Z</time>
      </trkpt>
      <trkpt lat="44.26031" lon="1.99438">
        <ele>339.48</ele>
        <time>2012-07-17T12:29:19Z</time>
      </trkpt>
      <trkpt lat="44.26053" lon="1.99439">
        <ele>338.04</ele>
        <time>2012-07-17T12:29:21Z</time>
      </trkpt>
      <trkpt lat="44.26076" lon="1.99435">
        <ele>336.12</ele>
        <time>2012-07-17T12:29:23Z</time>
      </trkpt>
      <trkpt lat="44.26111" lon="1.99437">
        <ele>333.71</ele>
        <time>2012-07-17T12:29:26Z</time>
      </trkpt>
      <trkpt lat="44.26135" lon="1.99447">
        <ele>331.79</ele>
        <time>2012-07-17T12:29:28Z</time>
      </trkpt>
      <trkpt lat="44.26183" lon="1.99448">
        <ele>327.95</ele>
        <time>2012-07-17T12:29:32Z</time>
      </trkpt>
      <trkpt lat="44.26217" lon="1.99432">
        <ele>324.58</ele>
        <time>2012-07-17T12:29:35Z</time>
      </trkpt>
      <trkpt lat="44.26226" lon="1.99427">
        <ele>324.58</ele>
        <time>2012-07-17T12:29:36Z</time>
      </trkpt>
      <trkpt lat="44.26255" lon="1.99398">
        <ele>320.26</ele>
        <time>2012-07-17T12:29:40Z</time>
      </trkpt>
      <trkpt lat="44.26261" lon="1.99387">
        <ele>317.85</ele>
        <time>2012-07-17T12:29:41Z</time>
      </trkpt>
      <trkpt lat="44.26284" lon="1.99325">
        <ele>314.01</ele>
        <time>2012-07-17T12:29:46Z</time>
      </trkpt>
      <trkpt lat="44.26292" lon="1.99299">
        <ele>313.53</ele>
        <time>2012-07-17T12:29:48Z</time>
      </trkpt>
      <trkpt lat="44.26329" lon="1.99246">
        <ele>309.68</ele>
        <time>2012-07-17T12:29:53Z</time>
      </trkpt>
      <trkpt lat="44.26361" lon="1.9923">
        <ele>307.28</ele>
        <time>2012-07-17T12:29:56Z</time>
      </trkpt>
      <trkpt lat="44.26384" lon="1.99224">
        <ele>305.84</ele>
        <time>2012-07-17T12:29:58Z</time>
      </trkpt>
      <trkpt lat="44.26408" lon="1.9922">
        <ele>303.91</ele>
        <time>2012-07-17T12:30:00Z</time>
      </trkpt>
      <trkpt lat="44.26459" lon="1.99188">
        <ele>299.11</ele>
        <time>2012-07-17T12:30:05Z</time>
      </trkpt>
      <trkpt lat="44.26467" lon="1.99176">
        <ele>299.11</ele>
        <time>2012-07-17T12:30:06Z</time>
      </trkpt>
      <trkpt lat="44.26475" lon="1.99164">
        <ele>298.15</ele>
        <time>2012-07-17T12:30:07Z</time>
      </trkpt>
      <trkpt lat="44.26525" lon="1.99105">
        <ele>291.9</ele>
        <time>2012-07-17T12:30:13Z</time>
      </trkpt>
      <trkpt lat="44.26551" lon="1.99078">
        <ele>289.01</ele>
        <time>2012-07-17T12:30:16Z</time>
      </trkpt>
      <trkpt lat="44.2658" lon="1.99029">
        <ele>285.17</ele>
        <time>2012-07-17T12:30:20Z</time>
      </trkpt>
      <trkpt lat="44.26598" lon="1.98991">
        <ele>282.28</ele>
        <time>2012-07-17T12:30:23Z</time>
      </trkpt>
      <trkpt lat="44.26607" lon="1.9897">
        <ele>280.84</ele>
        <time>2012-07-17T12:30:25Z</time>
      </trkpt>
      <trkpt lat="44.26629" lon="1.98956">
        <ele>277</ele>
        <time>2012-07-17T12:30:29Z</time>
      </trkpt>
      <trkpt lat="44.2664" lon="1.98998">
        <ele>274.11</ele>
        <time>2012-07-17T12:30:33Z</time>
      </trkpt>
      <trkpt lat="44.26621" lon="1.99074">
        <ele>270.75</ele>
        <time>2012-07-17T12:30:39Z</time>
      </trkpt>
      <trkpt lat="44.26618" lon="1.99134">
        <ele>266.9</ele>
        <time>2012-07-17T12:30:43Z</time>
      </trkpt>
      <trkpt lat="44.26616" lon="1.99167">
        <ele>265.94</ele>
        <time>2012-07-17T12:30:45Z</time>
      </trkpt>
      <trkpt lat="44.26608" lon="1.99235">
        <ele>262.58</ele>
        <time>2012-07-17T12:30:49Z</time>
      </trkpt>
      <trkpt lat="44.26598" lon="1.99284">
        <ele>259.69</ele>
        <time>2012-07-17T12:30:52Z</time>
      </trkpt>
      <trkpt lat="44.26583" lon="1.99325">
        <ele>257.77</ele>
        <time>2012-07-17T12:30:55Z</time>
      </trkpt>
      <trkpt lat="44.26566" lon="1.99358">
        <ele>254.89</ele>
        <time>2012-07-17T12:30:58Z</time>
      </trkpt>
      <trkpt lat="44.26563" lon="1.99412">
        <ele>252.48</ele>
        <time>2012-07-17T12:31:03Z</time>
      </trkpt>
      <trkpt lat="44.26587" lon="1.99479">
        <ele>249.12</ele>
        <time>2012-07-17T12:31:09Z</time>
      </trkpt>
      <trkpt lat="44.26599" lon="1.99523">
        <ele>247.2</ele>
        <time>2012-07-17T12:31:13Z</time>
      </trkpt>
      <trkpt lat="44.26615" lon="1.99565">
        <ele>244.79</ele>
        <time>2012-07-17T12:31:18Z</time>
      </trkpt>
      <trkpt lat="44.26659" lon="1.99603">
        <ele>241.91</ele>
        <time>2012-07-17T12:31:24Z</time>
      </trkpt>
      <trkpt lat="44.26666" lon="1.99613">
        <ele>240.95</ele>
        <time>2012-07-17T12:31:25Z</time>
      </trkpt>
      <trkpt lat="44.26688" lon="1.99658">
        <ele>239.02</ele>
        <time>2012-07-17T12:31:29Z</time>
      </trkpt>
      <trkpt lat="44.26704" lon="1.99727">
        <ele>238.06</ele>
        <time>2012-07-17T12:31:35Z</time>
      </trkpt>
      <trkpt lat="44.26708" lon="1.99798">
        <ele>237.58</ele>
        <time>2012-07-17T12:31:43Z</time>
      </trkpt>
      <trkpt lat="44.26714" lon="1.99826">
        <ele>237.58</ele>
        <time>2012-07-17T12:31:47Z</time>
      </trkpt>
      <trkpt lat="44.26721" lon="1.99835">
        <ele>238.06</ele>
        <time>2012-07-17T12:31:49Z</time>
      </trkpt>
      <trkpt lat="44.26729" lon="1.99843">
        <ele>238.06</ele>
        <time>2012-07-17T12:31:51Z</time>
      </trkpt>
      <trkpt lat="44.26816" lon="1.9989">
        <ele>236.62</ele>
        <time>2012-07-17T12:32:08Z</time>
      </trkpt>
      <trkpt lat="44.26908" lon="1.99935">
        <ele>236.62</ele>
        <time>2012-07-17T12:32:29Z</time>
      </trkpt>
      <trkpt lat="44.26959" lon="1.99936">
        <ele>237.58</ele>
        <time>2012-07-17T12:32:44Z</time>
      </trkpt>
      <trkpt lat="44.26996" lon="1.99915">
        <ele>239.51</ele>
        <time>2012-07-17T12:32:59Z</time>
      </trkpt>
      <trkpt lat="44.27044" lon="1.99885">
        <ele>240.95</ele>
        <time>2012-07-17T12:33:19Z</time>
      </trkpt>
      <trkpt lat="44.27089" lon="1.99868">
        <ele>242.87</ele>
        <time>2012-07-17T12:33:41Z</time>
      </trkpt>
      <trkpt lat="44.27129" lon="1.9985">
        <ele>245.75</ele>
        <time>2012-07-17T12:34:02Z</time>
      </trkpt>
      <trkpt lat="44.27159" lon="1.99808">
        <ele>248.16</ele>
        <time>2012-07-17T12:34:24Z</time>
      </trkpt>
      <trkpt lat="44.27182" lon="1.99781">
        <ele>250.56</ele>
        <time>2012-07-17T12:34:42Z</time>
      </trkpt>
      <trkpt lat="44.27207" lon="1.99752">
        <ele>253.44</ele>
        <time>2012-07-17T12:35:03Z</time>
      </trkpt>
      <trkpt lat="44.27227" lon="1.99728">
        <ele>255.85</ele>
        <time>2012-07-17T12:35:20Z</time>
      </trkpt>
      <trkpt lat="44.27249" lon="1.99704">
        <ele>258.25</ele>
        <time>2012-07-17T12:35:38Z</time>
      </trkpt>
      <trkpt lat="44.27276" lon="1.99684">
        <ele>260.17</ele>
        <time>2012-07-17T12:35:58Z</time>
      </trkpt>
      <trkpt lat="44.273" lon="1.99686">
        <ele>261.14</ele>
        <time>2012-07-17T12:36:15Z</time>
      </trkpt>
      <trkpt lat="44.27328" lon="1.99728">
        <ele>260.17</ele>
        <time>2012-07-17T12:36:27Z</time>
      </trkpt>
      <trkpt lat="44.27363" lon="1.99787">
        <ele>260.17</ele>
        <time>2012-07-17T12:36:45Z</time>
      </trkpt>
      <trkpt lat="44.27378" lon="1.99811">
        <ele>259.69</ele>
        <time>2012-07-17T12:36:57Z</time>
      </trkpt>
      <trkpt lat="44.27386" lon="1.99814">
        <ele>258.25</ele>
        <time>2012-07-17T12:37:16Z</time>
      </trkpt>
      <trkpt lat="44.27391" lon="1.9982">
        <ele>257.77</ele>
        <time>2012-07-17T12:37:29Z</time>
      </trkpt>
      <trkpt lat="44.27391" lon="1.9982">
        <ele>257.77</ele>
        <time>2012-07-17T12:37:42Z</time>
      </trkpt>
      <trkpt lat="44.27399" lon="1.99836">
        <ele>257.29</ele>
        <time>2012-07-17T12:37:54Z</time>
      </trkpt>
    </trkseg>
  </trk>
</gpx>